[[{"header":{"parameterUnit":"m.s-1","parameterCategory":1,"la1":30.6,"la2":29.2853,"lo1":-89.7004,"lo2":-87.6739,"dy":0.0162,"dx":0.0183,"nx":112,"ny":82,"refTime":"2024-03-22T00:00:00:Z","depth":0,"parameterNumber":2,"parameterNumberName":"U-component_of_WINDS"},"data":[0.0,0.0,0.0,0.0,0.0,0.0,0.0,0.0,0.0,0.0,0.0,0.0,0.0,0.0,0.0,0.0,0.0,0.0,0.0,0.0,0.0,0.0,0.0,0.0,0.0,0.0,0.0,0.0,0.0,0.0,0.0,0.0,0.0,0.0,0.0,0.0,0.0,0.0,0.0,0.0,0.0,0.0,0.0,0.0,0.0,0.0,0.0,0.0,0.0,0.0,0.0,0.0,0.0,0.0,0.0,0.0,0.0,0.0,0.0,0.0,0.0,0.0,0.0,0.0,0.0,0.0,0.0,0.0,0.0,0.0,0.0,0.0,0.0,0.0,0.0,0.0,0.0,0.0,0.0,0.0,0.0,0.0,0.0,0.0,0.0,0.0,0.0,0.0,0.0,0.0,3.703,3.7301,3.7959,3.8423,3.8423,3.7727,3.7185,3.6953,0.0,0.0,0.0,0.0,0.0,0.0,0.0,0.0,0.0,0.0,0.0,0.0,0.0,0.0,0.0,0.0,0.0,0.0,0.0,0.0,0.0,0.0,0.0,0.0,0.0,0.0,0.0,0.0,0.0,0.0,0.0,0.0,0.0,0.0,0.0,0.0,0.0,0.0,0.0,0.0,0.0,0.0,0.0,0.0,0.0,0.0,0.0,0.0,0.0,0.0,0.0,0.0,0.0,0.0,0.0,0.0,0.0,0.0,0.0,0.0,0.0,0.0,0.0,0.0,0.0,0.0,0.0,0.0,0.0,0.0,0.0,0.0,0.0,0.0,0.0,0.0,0.0,0.0,0.0,0.0,0.0,0.0,0.0,0.0,0.0,0.0,0.0,0.0,0.0,0.0,0.0,0.0,0.0,0.0,0.0,0.0,0.0,0.0,0.0,0.0,0.0,0.0,0.0,0.0,3.7538,3.9032,3.9303,3.9381,3.9381,3.9265,3.8567,3.7063,0.0,0.0,0.0,0.0,0.0,0.0,0.0,0.0,0.0,0.0,0.0,0.0,0.0,0.0,0.0,0.0,0.0,0.0,0.0,0.0,0.0,0.0,0.0,0.0,0.0,0.0,0.0,0.0,0.0,0.0,0.0,0.0,0.0,0.0,0.0,0.0,0.0,0.0,0.0,0.0,0.0,0.0,0.0,0.0,0.0,0.0,0.0,0.0,0.0,0.0,0.0,0.0,0.0,0.0,0.0,0.0,0.0,0.0,0.0,0.0,0.0,0.0,0.0,0.0,0.0,0.0,0.0,0.0,0.0,0.0,0.0,0.0,0.0,0.0,0.0,0.0,0.0,0.0,0.0,0.0,0.0,0.0,0.0,0.0,0.0,0.0,0.0,0.0,0.0,0.0,0.0,0.0,0.0,0.0,0.0,0.0,0.0,0.0,0.0,0.0,0.0,0.0,0.0,3.7869,3.8877,4.0128,4.0245,4.0245,4.0245,3.9867,3.9043,3.7792,3.6503,0.0,0.0,0.0,0.0,0.0,0.0,0.0,0.0,0.0,0.0,0.0,0.0,0.0,0.0,0.0,0.0,0.0,0.0,0.0,0.0,0.0,0.0,0.0,0.0,0.0,0.0,0.0,0.0,0.0,0.0,0.0,0.0,0.0,0.0,0.0,0.0,0.0,0.0,0.0,0.0,0.0,0.0,0.0,0.0,0.0,0.0,0.0,0.0,0.0,0.0,0.0,0.0,0.0,0.0,0.0,0.0,0.0,0.0,0.0,0.0,0.0,0.0,0.0,0.0,0.0,0.0,0.0,0.0,0.0,0.0,0.0,0.0,0.0,0.0,0.0,0.0,0.0,0.0,0.0,0.0,0.0,0.0,0.0,0.0,0.0,0.0,0.0,0.0,0.0,0.0,0.0,0.0,0.0,0.0,0.0,0.0,0.0,0.0,0.0,0.0,0.0,0.0,3.9063,3.9917,4.0731,4.0809,4.0809,4.0809,4.0266,3.9451,3.8355,3.7657,0.0,0.0,0.0,0.0,0.0,0.0,0.0,0.0,0.0,0.0,0.0,0.0,0.0,0.0,0.0,0.0,0.0,0.0,0.0,0.0,0.0,0.0,0.0,0.0,0.0,0.0,0.0,0.0,0.0,0.0,0.0,0.0,0.0,0.0,0.0,0.0,0.0,0.0,0.0,0.0,0.0,0.0,0.0,0.0,0.0,0.0,0.0,0.0,0.0,0.0,0.0,0.0,0.0,0.0,0.0,0.0,0.0,0.0,0.0,0.0,0.0,0.0,0.0,0.0,0.0,0.0,0.0,0.0,0.0,0.0,0.0,0.0,0.0,0.0,0.0,0.0,0.0,0.0,0.0,0.0,0.0,0.0,0.0,0.0,0.0,0.0,0.0,0.0,0.0,0.0,0.0,0.0,0.0,0.0,0.0,0.0,0.0,0.0,0.0,0.0,0.0,0.0,3.9102,4.0005,4.082,4.0898,4.0898,4.0898,4.082,4.0082,3.8433,3.8229,0.0,0.0,0.0,0.0,0.0,0.0,0.0,0.0,0.0,0.0,0.0,0.0,0.0,0.0,0.0,0.0,0.0,0.0,0.0,0.0,0.0,0.0,0.0,0.0,0.0,0.0,0.0,0.0,0.0,0.0,0.0,0.0,0.0,0.0,0.0,0.0,0.0,0.0,0.0,0.0,0.0,0.0,0.0,0.0,0.0,0.0,0.0,0.0,0.0,0.0,0.0,0.0,0.0,0.0,0.0,0.0,0.0,0.0,0.0,0.0,0.0,0.0,0.0,0.0,0.0,0.0,0.0,0.0,0.0,0.0,0.0,0.0,0.0,0.0,0.0,0.0,0.0,0.0,0.0,0.0,0.0,0.0,0.0,0.0,0.0,0.0,0.0,0.0,0.0,0.0,0.0,0.0,0.0,0.0,0.0,0.0,0.0,0.0,0.0,0.0,0.0,0.0,3.9927,4.0752,0.0,4.1218,4.1102,4.1646,4.1218,4.0402,3.9267,0.0,0.0,0.0,0.0,0.0,0.0,0.0,0.0,0.0,0.0,0.0,0.0,0.0,0.0,0.0,0.0,0.0,0.0,0.0,0.0,0.0,0.0,0.0,0.0,0.0,0.0,0.0,0.0,0.0,0.0,0.0,0.0,0.0,0.0,0.0,0.0,0.0,0.0,0.0,0.0,0.0,0.0,0.0,0.0,0.0,0.0,0.0,0.0,0.0,0.0,0.0,0.0,0.0,0.0,0.0,0.0,0.0,0.0,0.0,0.0,0.0,0.0,0.0,0.0,0.0,0.0,0.0,0.0,0.0,0.0,0.0,0.0,0.0,0.0,0.0,0.0,0.0,0.0,0.0,0.0,0.0,0.0,0.0,0.0,0.0,0.0,0.0,0.0,0.0,0.0,0.0,0.0,0.0,0.0,0.0,0.0,0.0,0.0,0.0,0.0,0.0,0.0,3.9625,4.0635,4.1529,0.0,4.1917,4.184,4.2151,4.1646,4.0869,3.9781,0.0,0.0,0.0,0.0,0.0,0.0,0.0,0.0,0.0,0.0,0.0,0.0,0.0,0.0,0.0,0.0,0.0,0.0,0.0,0.0,0.0,0.0,0.0,0.0,0.0,0.0,0.0,0.0,0.0,0.0,0.0,0.0,0.0,0.0,0.0,0.0,0.0,0.0,0.0,0.0,0.0,0.0,0.0,0.0,0.0,0.0,0.0,0.0,0.0,0.0,0.0,0.0,0.0,0.0,0.0,0.0,0.0,0.0,0.0,0.0,0.0,0.0,0.0,0.0,0.0,0.0,0.0,0.0,0.0,0.0,0.0,0.0,0.0,0.0,0.0,0.0,0.0,0.0,0.0,0.0,0.0,0.0,0.0,0.0,0.0,0.0,0.0,0.0,0.0,0.0,0.0,0.0,0.0,0.0,0.0,0.0,0.0,0.0,0.0,0.0,0.0,0.0,3.9742,4.1179,4.2189,4.2228,4.3005,4.3161,4.2306,4.2189,4.149,0.0,0.0,0.0,0.0,0.0,0.0,0.0,0.0,0.0,0.0,0.0,0.0,0.0,0.0,0.0,0.0,0.0,0.0,0.0,0.0,0.0,0.0,0.0,0.0,0.0,0.0,0.0,0.0,0.0,0.0,0.0,0.0,0.0,0.0,0.0,0.0,0.0,0.0,0.0,0.0,0.0,0.0,0.0,0.0,0.0,0.0,0.0,0.0,0.0,0.0,0.0,0.0,0.0,0.0,0.0,0.0,0.0,0.0,0.0,0.0,0.0,0.0,0.0,0.0,0.0,0.0,0.0,0.0,0.0,0.0,0.0,0.0,0.0,0.0,0.0,0.0,0.0,0.0,0.0,0.0,0.0,0.0,0.0,0.0,0.0,0.0,0.0,0.0,0.0,0.0,0.0,0.0,0.0,0.0,0.0,0.0,0.0,0.0,0.0,0.0,0.0,0.0,0.0,4.1296,4.1879,4.2656,4.3899,4.3704,4.3627,4.4015,4.2889,4.1995,4.149,0.0,0.0,0.0,0.0,0.0,0.0,0.0,0.0,0.0,0.0,0.0,0.0,0.0,0.0,0.0,0.0,0.0,0.0,0.0,0.0,0.0,0.0,0.0,0.0,0.0,0.0,0.0,0.0,0.0,0.0,0.0,0.0,0.0,0.0,0.0,0.0,0.0,0.0,0.0,0.0,0.0,0.0,0.0,0.0,0.0,0.0,0.0,0.0,0.0,0.0,0.0,0.0,0.0,0.0,0.0,0.0,0.0,0.0,0.0,0.0,0.0,0.0,0.0,0.0,0.0,0.0,0.0,0.0,0.0,0.0,0.0,0.0,0.0,0.0,0.0,0.0,0.0,0.0,0.0,0.0,0.0,0.0,0.0,0.0,0.0,0.0,0.0,0.0,0.0,0.0,0.0,0.0,0.0,0.0,0.0,0.0,0.0,0.0,0.0,0.0,0.0,0.0,4.2567,4.3043,4.3626,4.4705,4.4628,4.4589,4.4783,4.385,4.2956,4.2247,0.0,0.0,0.0,0.0,0.0,0.0,0.0,0.0,0.0,0.0,0.0,0.0,0.0,0.0,0.0,0.0,0.0,0.0,0.0,0.0,0.0,0.0,0.0,0.0,0.0,0.0,0.0,0.0,0.0,0.0,0.0,0.0,0.0,0.0,0.0,0.0,0.0,0.0,0.0,0.0,0.0,0.0,0.0,0.0,0.0,0.0,0.0,0.0,0.0,0.0,0.0,0.0,0.0,0.0,0.0,0.0,0.0,0.0,0.0,0.0,0.0,0.0,0.0,0.0,0.0,0.0,0.0,0.0,0.0,0.0,0.0,0.0,0.0,0.0,0.0,0.0,0.0,0.0,0.0,0.0,0.0,0.0,0.0,0.0,0.0,0.0,0.0,0.0,0.0,0.0,0.0,0.0,0.0,0.0,0.0,0.0,0.0,0.0,0.0,0.0,0.0,0.0,4.3583,4.4362,4.4829,4.4906,4.5646,4.5763,4.4984,4.4868,4.4081,4.243,0.0,0.0,0.0,0.0,0.0,0.0,0.0,0.0,0.0,0.0,0.0,0.0,0.0,0.0,0.0,0.0,0.0,0.0,0.0,0.0,0.0,0.0,0.0,0.0,0.0,0.0,0.0,0.0,0.0,0.0,0.0,0.0,0.0,0.0,0.0,0.0,0.0,0.0,0.0,0.0,0.0,0.0,0.0,0.0,0.0,0.0,0.0,0.0,0.0,0.0,0.0,0.0,0.0,0.0,0.0,0.0,0.0,0.0,0.0,0.0,3.5857,0.0,0.0,0.0,0.0,0.0,0.0,0.0,0.0,0.0,0.0,0.0,0.0,0.0,0.0,0.0,0.0,0.0,0.0,0.0,0.0,0.0,0.0,0.0,0.0,0.0,0.0,0.0,0.0,0.0,0.0,0.0,0.0,0.0,0.0,0.0,0.0,0.0,0.0,0.0,0.0,0.0,4.444,4.4673,4.5062,4.5763,4.5996,4.6035,4.584,4.5179,4.4362,4.3342,4.2486,0.0,0.0,0.0,0.0,0.0,0.0,0.0,0.0,0.0,0.0,0.0,0.0,0.0,0.0,0.0,0.0,0.0,0.0,0.0,0.0,0.0,0.0,0.0,0.0,0.0,0.0,0.0,0.0,0.0,0.0,0.0,0.0,0.0,0.0,0.0,0.0,0.0,0.0,0.0,0.0,0.0,0.0,0.0,0.0,0.0,0.0,0.0,0.0,0.0,0.0,0.0,0.0,0.0,0.0,0.0,0.0,0.0,0.0,0.0,0.0,3.7061,0.0,0.0,0.0,0.0,0.0,0.0,0.0,0.0,0.0,0.0,0.0,0.0,0.0,0.0,0.0,0.0,0.0,0.0,0.0,0.0,0.0,0.0,0.0,0.0,0.0,0.0,0.0,0.0,0.0,0.0,0.0,0.0,0.0,0.0,0.0,0.0,0.0,0.0,0.0,0.0,4.5952,4.6107,4.6419,4.7315,4.7392,4.7237,4.6808,4.6341,4.5562,4.43,4.3405,0.0,0.0,0.0,0.0,0.0,0.0,0.0,0.0,0.0,0.0,0.0,0.0,0.0,0.0,0.0,0.0,0.0,0.0,0.0,0.0,0.0,0.0,0.0,0.0,0.0,0.0,0.0,0.0,0.0,0.0,0.0,0.0,0.0,0.0,0.0,0.0,0.0,0.0,0.0,0.0,0.0,0.0,0.0,0.0,0.0,0.0,0.0,0.0,0.0,0.0,0.0,0.0,0.0,4.2471,4.286,4.2908,4.3626,4.3946,4.3791,4.0974,3.9565,3.9293,3.9293,0.0,0.0,0.0,0.0,0.0,0.0,0.0,0.0,0.0,0.0,0.0,0.0,0.0,0.0,0.0,0.0,0.0,0.0,0.0,0.0,0.0,0.0,0.0,0.0,4.3288,4.3094,4.033,0.0,0.0,0.0,0.0,0.0,0.0,0.0,0.0,0.0,0.0,0.0,4.754,4.7735,4.8008,4.8709,4.8787,4.8514,4.7774,4.7579,4.6831,4.5219,4.4323,4.3031,0.0,0.0,0.0,0.0,0.0,0.0,0.0,0.0,0.0,0.0,0.0,0.0,0.0,0.0,0.0,0.0,0.0,0.0,0.0,0.0,0.0,0.0,0.0,0.0,0.0,0.0,0.0,0.0,0.0,0.0,0.0,0.0,3.0224,3.0341,0.0,0.0,0.0,0.0,0.0,0.0,0.0,0.0,0.0,0.0,0.0,0.0,0.0,4.2112,4.3005,4.3743,4.4181,4.4287,4.5182,4.558,4.5607,4.5693,4.5771,4.5732,4.5296,0.0,4.2914,4.2914,0.0,0.0,0.0,0.0,0.0,0.0,0.0,0.0,0.0,0.0,0.0,0.0,0.0,0.0,0.0,0.0,0.0,0.0,0.0,0.0,0.0,0.0,4.3637,4.4377,4.465,4.4805,0.0,4.4058,4.3109,4.3226,4.335,0.0,0.0,0.0,0.0,0.0,0.0,0.0,4.8592,4.8631,4.867,4.8787,4.8787,4.8748,4.8631,4.793,4.7072,4.6098,4.5202,4.3948,4.2213,4.1279,0.0,0.0,0.0,0.0,0.0,0.0,0.0,0.0,0.0,0.0,0.0,0.0,0.0,0.0,0.0,0.0,0.0,0.0,0.0,0.0,0.0,0.0,0.0,0.0,0.0,0.0,0.0,0.0,0.0,3.0846,3.2322,3.2788,3.3954,3.4886,0.0,0.0,0.0,0.0,0.0,0.0,0.0,0.0,0.0,4.3044,4.3452,4.4317,4.5677,4.6076,4.6523,4.6999,4.7894,4.8292,4.8301,4.8777,4.9019,4.9019,4.9036,4.8608,4.779,4.5819,4.504,4.5009,0.0,0.0,0.0,0.0,4.3934,4.3934,4.3934,4.3934,4.3934,4.3934,0.0,0.0,0.0,0.0,0.0,0.0,0.0,0.0,0.0,0.0,4.6605,4.6995,4.7072,4.7189,4.7579,4.7065,4.6364,0.0,4.6169,4.6527,4.6527,0.0,0.0,0.0,0.0,4.8943,4.941,4.9488,4.9644,5.0151,5.0229,4.9995,4.9527,4.9138,4.8358,4.6995,4.6098,4.5085,4.3792,4.2461,4.1324,0.0,0.0,0.0,0.0,0.0,0.0,0.0,0.0,0.0,0.0,0.0,0.0,0.0,0.0,0.0,0.0,0.0,0.0,0.0,0.0,0.0,0.0,0.0,0.0,0.0,0.0,0.0,0.0,3.2982,3.4225,3.508,3.5935,3.6828,0.0,0.0,0.0,0.0,0.0,0.0,4.2782,4.3297,4.4122,4.5434,4.5881,4.6747,4.804,4.8487,4.9041,4.9711,5.0568,5.0996,5.1005,5.1676,5.1957,5.1957,5.1974,5.1982,5.1749,4.8686,4.747,4.7478,4.7245,4.7182,4.715,4.6956,4.6878,4.6878,4.6878,4.6878,4.6878,4.6878,4.6878,4.6878,4.6878,0.0,0.0,0.0,0.0,4.8171,4.8171,4.8801,4.9503,4.9737,4.9815,4.9854,5.0049,5.0088,4.9659,0.0,4.8358,4.8787,4.8787,0.0,0.0,0.0,0.0,4.9776,5.0594,5.0672,5.1016,5.1873,5.1749,5.1359,5.0735,5.0268,4.9488,4.8202,4.7111,4.6137,4.528,4.376,4.2468,4.1363,0.0,0.0,0.0,0.0,0.0,0.0,0.0,0.0,0.0,0.0,0.0,0.0,0.0,0.0,0.0,0.0,0.0,0.0,0.0,0.0,0.0,0.0,0.0,0.0,0.0,0.0,0.0,0.0,0.0,3.6867,3.7722,0.0,0.0,0.0,0.0,4.1995,4.3617,4.4598,4.4676,4.626,4.7163,4.728,4.8876,4.9771,4.9849,5.1454,5.232,5.2416,5.3234,5.3632,5.3689,5.3736,5.3775,5.3775,5.3775,5.3775,5.3619,5.1787,5.1047,5.0969,5.0151,4.98,4.9722,4.8943,4.867,4.867,4.867,4.867,4.867,4.867,4.867,4.867,4.867,4.867,0.0,0.0,4.9308,4.9985,4.9985,5.0621,5.1492,5.2311,5.2506,5.2701,5.3481,5.3637,5.2649,0.0,4.8787,4.8787,4.8787,0.0,5.0017,5.0017,5.0738,5.157,5.2467,5.2493,5.2792,5.3689,5.3042,5.2528,5.2489,5.0969,4.9956,4.9878,4.8358,4.7033,4.6176,4.5241,4.3955,4.2273,4.1455,0.0,0.0,0.0,0.0,0.0,0.0,0.0,0.0,0.0,0.0,0.0,0.0,0.0,0.0,0.0,0.0,0.0,0.0,0.0,0.0,0.0,0.0,0.0,0.0,0.0,0.0,0.0,0.0,3.9496,4.0352,0.0,4.2119,4.2935,4.3761,4.4656,4.5822,4.696,4.8088,4.872,4.9585,5.0636,5.1346,5.1901,5.2446,5.3632,5.4264,5.4312,5.5676,5.6299,5.6347,5.6931,5.7165,5.7165,5.7165,5.7165,5.7126,5.6503,5.4944,5.2957,5.2645,5.2528,5.2489,5.2177,5.2068,5.2083,5.2083,5.209,5.2064,5.2064,5.2064,5.2064,5.2064,5.2064,5.2064,5.2064,5.2298,5.2539,5.2539,5.2779,5.3091,5.3403,5.3481,5.3559,5.3832,5.391,5.3559,5.2337,5.2064,5.2064,5.2064,5.2337,5.2539,5.2539,5.2812,5.313,5.3442,5.3436,5.3553,5.3865,5.3624,5.3228,5.2721,5.2103,5.1278,5.0127,4.9503,4.8529,4.7111,4.6215,4.5163,4.3994,4.3137,4.2,0.0,0.0,0.0,0.0,0.0,0.0,0.0,0.0,0.0,0.0,0.0,0.0,0.0,0.0,0.0,0.0,0.0,0.0,0.0,0.0,0.0,0.0,0.0,0.0,0.0,0.0,4.0516,4.1738,4.2594,4.3458,4.4362,4.5179,4.6152,4.7319,4.8223,4.9361,5.0801,5.1161,5.194,5.338,5.3749,5.4303,5.5121,5.6026,5.6464,5.6503,5.7594,5.8139,5.8139,5.8724,5.8996,5.8996,5.9005,5.9014,5.9014,5.9014,5.7697,5.5631,5.535,5.5233,5.5163,5.489,5.478,5.4794,5.4794,5.4762,5.4768,5.4768,5.4768,5.4768,5.4768,5.4768,5.4768,5.4768,5.5009,5.521,5.521,5.5444,5.5645,5.5645,5.5645,5.5645,5.5645,5.5645,5.5567,5.5254,5.4507,5.391,5.391,5.3916,5.3922,5.3922,5.3922,5.4045,5.4318,5.4351,5.4468,5.4736,5.4501,5.4105,5.3598,5.3013,5.2194,5.105,5.042,4.9595,4.8412,4.7281,4.6222,4.5358,4.4189,4.3059,4.1929,0.0,0.0,0.0,0.0,0.0,0.0,0.0,0.0,0.0,0.0,0.0,0.0,0.0,0.0,0.0,0.0,0.0,0.0,0.0,0.0,0.0,0.0,0.0,4.1062,4.1101,4.1801,4.3467,4.4401,4.5257,4.616,4.7017,4.8223,4.9936,5.0888,5.1754,5.265,5.3533,5.4398,5.5295,5.6152,5.6931,5.7711,5.8646,5.9074,5.9074,5.9113,5.9152,5.9152,5.9152,5.9152,5.9161,5.9178,5.9147,5.9147,5.9248,5.9254,5.9176,5.8219,5.7836,5.7733,5.6875,5.6569,5.6569,5.6569,5.6569,5.6569,5.6569,5.6569,5.6569,5.6569,5.6569,5.6569,5.6569,5.72,5.7835,5.7835,5.847,5.9104,5.9104,5.9104,5.9104,5.9104,5.9104,5.887,5.8011,5.5806,5.4066,5.3988,5.4045,5.4094,5.4094,5.406,0.0,5.524,5.527,5.5572,5.6391,5.5756,5.5237,5.5198,5.3721,5.2746,5.2707,5.1102,5.016,5.0102,4.8464,4.7171,4.6293,4.4618,4.3714,4.3676,0.0,0.0,0.0,0.0,0.0,0.0,0.0,0.0,0.0,0.0,0.0,0.0,0.0,0.0,0.0,0.0,0.0,0.0,0.0,0.0,0.0,4.2461,4.3389,4.212,4.3514,4.4876,4.5437,4.6761,4.7977,4.885,4.9707,5.068,5.181,5.2667,5.3844,5.5364,5.5645,5.6464,5.7905,5.8178,5.8412,5.8646,6.0126,6.0906,6.0906,6.2114,6.2708,6.2765,6.2765,6.2773,6.275,6.2758,6.2758,6.2758,6.2804,6.2811,6.2512,5.9801,5.8741,5.8708,5.8474,5.8403,5.8376,5.8387,5.8392,5.8392,5.8392,5.8392,5.8392,5.8392,5.8392,5.8392,5.8392,5.8548,5.8748,5.8748,5.8905,5.9104,5.9104,5.9104,5.9104,5.9104,5.9104,5.9026,5.8792,5.8163,5.7299,5.6089,5.5855,5.5899,5.5899,5.5899,0.0,5.6216,5.6211,5.6328,5.6563,5.6363,5.5972,5.5348,5.484,5.4055,5.2796,5.225,5.1425,5.016,4.9653,4.8983,4.8107,4.7002,4.6137,0.0,0.0,0.0,0.0,0.0,0.0,0.0,0.0,0.0,0.0,0.0,0.0,0.0,0.0,0.0,0.0,0.0,0.0,0.0,0.0,0.0,0.0,4.4462,4.5468,4.5531,4.6185,4.6964,4.772,4.8966,5.0135,5.1008,5.1865,5.2918,5.4126,5.471,5.5723,5.7438,5.7555,5.8139,5.9503,5.9893,6.0243,6.0633,6.1958,6.2669,6.2717,6.3691,6.4168,6.4193,6.4193,6.4201,6.4216,6.4184,6.4184,6.4184,6.4229,6.4241,0.0,0.0,0.0,0.0,0.0,6.1275,6.1242,6.0856,6.0744,6.0666,6.0315,6.0198,6.0198,6.0198,6.0198,6.0198,6.0198,6.0198,6.0198,6.0198,6.0198,6.0198,6.0198,6.0198,6.0198,6.0198,6.0198,6.008,5.9729,5.9651,0.0,5.7894,5.766,5.766,5.766,5.7348,5.7113,5.7113,5.6801,5.6606,5.6606,5.6606,5.6372,5.5903,5.5513,0.0,0.0,0.0,5.2455,5.0723,5.0288,0.0,0.0,0.0,4.7781,4.7306,0.0,0.0,0.0,4.4656,4.454,0.0,0.0,0.0,0.0,0.0,0.0,0.0,0.0,0.0,0.0,0.0,0.0,0.0,0.0,0.0,0.0,4.6527,4.754,4.9839,4.9021,4.8748,5.0112,5.1047,5.1982,5.2957,5.3736,5.4905,5.6658,5.6775,5.7516,5.9191,0.0,0.0,0.0,0.0,6.2279,6.3049,6.3838,6.4276,6.4341,6.4458,6.4505,6.4489,6.4489,6.4489,6.4489,6.4509,6.4476,6.4515,6.4565,6.457,6.457,6.4325,6.4247,6.4297,6.4297,6.4297,6.4179,6.3399,0.0,0.0,6.2228,6.1993,6.1993,6.1993,6.1993,6.1993,6.1993,6.1993,6.1993,6.1993,6.1915,6.1837,6.1837,6.1759,6.172,6.172,6.1681,6.149,6.0705,6.0549,6.031,5.9534,5.9222,5.9104,5.9104,5.8441,5.7933,5.7933,5.7231,5.6723,5.6723,0.0,0.0,5.6606,5.5903,5.5396,5.5318,5.4498,5.3323,5.1752,5.0957,5.0165,4.9406,4.9283,4.9237,4.9223,4.9138,4.9138,4.9177,4.6566,4.6176,0.0,0.0,0.0,0.0,0.0,0.0,0.0,0.0,0.0,0.0,0.0,0.0,0.0,0.0,0.0,4.6137,4.8514,5.0502,5.0969,5.1982,5.2528,5.2138,5.2879,5.4009,5.5606,5.5879,5.6697,5.8373,5.8529,5.9269,6.0984,6.1101,6.1802,6.3322,6.3574,6.3778,6.3934,6.4817,6.5254,6.5254,0.0,0.0,6.6297,6.6297,6.631,6.6282,6.6282,6.6282,6.6282,6.6327,6.6327,6.617,6.4804,6.4297,6.4297,6.4297,6.4297,6.4297,6.4101,6.4062,6.4023,6.3867,6.3789,6.3789,6.3789,6.3789,0.0,6.3789,6.3789,6.3789,6.3789,6.3282,6.2735,6.2735,6.2228,6.172,6.172,6.1694,6.1665,6.147,6.146,6.1408,6.1213,6.0041,5.9104,5.9104,5.8948,5.887,5.887,5.8089,5.7582,5.7582,5.6996,5.6606,5.6606,5.645,5.6059,5.5357,5.4498,5.3834,5.3518,5.3352,5.3186,5.2991,5.2259,5.1856,5.1849,5.1172,5.1164,5.1787,4.9255,4.8241,0.0,0.0,0.0,0.0,0.0,0.0,0.0,0.0,0.0,0.0,0.0,4.3916,4.4734,0.0,4.7774,4.8631,5.019,5.1749,5.3073,5.4398,5.5022,5.4593,5.4944,5.5879,5.7594,5.7749,5.8451,6.0165,6.0282,6.1071,6.2795,6.2912,6.3271,6.4138,6.4622,6.4856,6.4856,6.6159,6.6791,6.6798,6.7695,6.8099,6.8111,6.8111,6.8117,6.8083,6.8083,6.8083,6.8083,6.8083,6.8083,6.7966,6.6717,6.5936,6.5546,6.5546,6.5546,6.5507,6.5077,6.496,6.4882,6.4453,6.4297,6.4297,6.4297,6.4306,6.4314,6.4314,6.4314,6.4314,6.4314,6.3962,6.365,6.365,6.2986,6.2358,6.2345,6.2002,6.1701,6.1715,6.1701,6.1686,6.1694,6.0995,6.0405,6.0393,6.0041,5.9768,5.9768,5.8987,5.8441,5.8441,5.7699,5.7192,5.7192,5.684,5.6411,5.5981,5.5123,5.4654,5.4654,5.422,5.4021,5.4016,5.3532,5.328,5.326,5.2824,5.2809,5.3229,5.1943,5.1359,0.0,0.0,0.0,0.0,0.0,0.0,0.0,4.11,4.1875,4.2877,4.4748,4.6307,4.6658,4.8139,4.9737,5.1101,5.1725,5.2855,5.5108,5.6207,5.687,5.7221,5.7096,5.7602,5.9122,5.9395,6.0174,6.1742,6.2015,6.2804,6.438,6.4458,6.4544,6.4716,6.5542,6.601,6.601,6.7578,6.8366,6.8379,6.9042,6.9399,6.9411,6.9411,6.9411,6.9411,6.9411,6.9411,6.9411,6.9411,6.9411,6.9333,6.863,6.7932,6.7273,6.6956,6.6834,6.6717,6.6097,6.5863,6.575,6.5048,6.4813,6.4813,6.4809,6.4818,6.4792,6.4797,6.4799,6.4799,6.4799,6.4682,6.4565,6.4565,6.3901,6.3232,6.3259,6.2553,6.1935,6.1952,6.1829,6.1697,6.1707,6.1709,6.1704,6.169,6.11,6.0631,6.0631,5.989,5.9343,5.9339,5.8558,5.7972,5.7816,5.7192,5.6762,5.6606,5.5942,5.5552,5.5552,5.4888,5.4494,5.4523,5.4328,5.4273,5.4398,5.439,5.45,5.4632,5.4827,5.4632,3.8609,3.9117,3.9855,4.0629,4.1406,4.2182,0.0,4.3339,4.3846,4.544,4.5986,4.6649,4.8215,4.9931,5.118,5.1375,5.328,5.5152,5.6205,5.7102,5.8233,5.9801,5.9217,5.9083,6.0075,6.0863,6.1729,6.268,6.346,6.4326,6.5301,6.534,6.573,6.6471,6.7344,6.7819,6.7819,6.8775,6.9249,6.9255,6.9333,6.9411,6.9411,6.9411,6.9411,6.9411,6.9411,6.9411,6.9411,6.9411,6.9411,6.9372,6.9294,6.9191,6.8932,6.7429,6.6873,6.6878,6.6777,6.6745,6.6745,6.6628,6.6628,6.6625,6.6609,6.6605,6.6614,6.66,6.6601,6.6601,6.6601,6.6015,6.5468,6.5468,6.4804,6.414,6.414,6.3476,6.2851,6.2851,6.2226,6.1717,6.1711,6.1709,6.1709,6.1707,6.1629,6.155,6.155,6.0808,6.0256,6.0237,5.9456,5.8636,5.7855,5.7738,5.7348,5.6645,5.6528,5.645,5.645,5.6372,5.6294,5.6289,5.5499,5.5449,5.6205,5.623,5.6558,5.7282,5.8061,5.7204,4.1576,4.181,4.2162,4.251,4.29,4.3521,4.4914,4.5226,4.5689,4.7362,4.8137,4.8839,5.0093,5.1302,5.2473,0.0,5.4924,5.6251,5.7109,5.8435,5.9567,6.0308,6.0917,6.1417,6.1775,6.2602,6.346,6.4365,6.4755,6.5347,6.6213,6.672,6.7195,6.7559,6.8385,6.8853,6.8853,6.9717,7.0152,7.0152,7.066,7.0894,7.0894,7.0894,7.0894,7.0894,7.0894,7.0894,7.0894,7.0894,7.0904,7.0874,7.0353,7.0158,7.0011,6.8804,6.8332,6.8362,6.8332,6.8036,6.7655,6.7655,6.7303,6.6911,6.6908,6.6906,6.6908,6.6914,6.6914,6.6914,6.6914,6.664,6.6367,6.6367,6.5703,6.5078,6.5078,6.4375,6.3594,6.3086,6.2695,6.2304,6.1795,6.1717,6.1717,6.1717,6.1717,6.1717,6.1717,6.1366,6.0971,6.0451,6.0057,5.9507,5.8636,5.8558,5.8402,5.8089,5.805,5.805,5.805,5.805,5.805,5.805,5.7656,5.7646,5.8019,5.7999,5.818,5.8468,5.8849,5.8685,4.3684,4.4036,4.4426,4.4426,4.4777,4.5441,4.6683,4.6991,4.742,4.8855,4.9864,5.0728,5.1586,5.2679,5.3811,5.5015,5.6146,5.7166,5.8019,5.9463,6.06,6.1069,6.2389,6.3364,6.3637,6.4184,6.4847,6.5471,6.5744,6.6219,6.7091,6.7754,6.8228,6.8435,6.9294,6.9762,6.9762,7.0621,7.105,7.1089,7.1714,7.1987,7.1987,7.1987,7.1987,7.1987,7.1987,7.1993,7.1997,7.1993,7.1997,7.1932,7.129,7.105,7.0977,7.0341,6.9833,6.9433,6.9394,6.9017,6.8515,6.8555,6.8125,6.7539,6.7344,6.7265,6.7226,6.6953,6.6914,6.6914,6.6914,6.6914,6.6914,6.6914,6.6406,6.5976,6.5976,6.5273,6.4453,6.3828,6.332,6.2812,6.2187,6.1875,6.1719,6.1719,6.1719,6.1719,6.1719,6.1719,6.1445,6.0815,6.0776,6.042,5.9514,5.9464,5.9378,5.9104,5.9104,5.9104,5.9104,5.9104,5.9104,5.9104,5.9104,5.9095,5.9084,5.9339,5.9404,5.9381,5.9863,6.0399,4.3684,4.4933,4.6222,4.6222,4.7432,4.8642,4.872,4.872,4.8993,4.9887,5.075,5.1648,5.2507,5.4068,5.524,5.5279,5.6684,5.805,5.8948,5.9846,6.1017,6.2735,6.3711,6.4609,0.0,6.5496,6.549,6.5585,6.6327,6.7146,6.8005,6.8083,6.8474,6.9333,7.0191,7.066,7.066,7.1519,7.1948,7.1948,7.1987,7.1987,7.1987,7.1987,7.1987,7.1987,7.1987,7.2002,7.2017,7.1997,7.1987,7.1987,7.1987,7.1948,7.1953,7.1911,7.0898,6.9492,6.9414,6.9375,6.9375,6.9453,6.9414,6.918,6.8398,6.8164,6.7969,6.7148,6.6914,6.6914,6.6914,6.6914,6.6914,6.6914,6.6875,6.6875,6.6875,6.6172,6.5547,6.5547,6.414,6.3008,6.2969,6.2265,6.1719,6.1719,6.1719,6.1719,6.1719,6.1719,6.168,6.164,6.164,6.1328,6.043,6.0376,5.9998,5.9143,5.9104,5.9104,5.9104,5.9104,5.9104,5.9104,5.9104,5.9095,5.9084,5.9963,6.0332,6.0317,6.2006,6.2815,4.63,4.712,4.7978,4.7978,4.8369,4.8954,4.954,4.9657,4.993,5.0789,5.1648,5.2546,5.3405,5.4498,5.5669,5.6762,5.7933,5.8987,5.9846,6.1213,6.2345,6.293,6.4297,0.0,0.0,0.0,0.0,6.7224,6.7498,6.8044,6.8903,6.9528,6.9957,7.027,7.1128,7.1558,7.1558,7.1831,7.1987,7.1987,7.1987,7.1987,7.1987,7.1987,7.1997,7.201,7.1997,7.1993,7.2002,7.1981,7.1988,7.1988,7.1988,7.1988,7.1988,7.1992,7.164,7.1172,7.1133,7.0742,7.0273,7.0273,6.9883,6.9375,6.914,6.8672,6.8125,6.7851,6.7344,6.6913,6.6901,6.6898,6.6898,6.6908,6.691,6.6911,6.6914,6.668,6.6289,6.5703,6.5117,6.4375,6.3203,6.2773,6.2383,6.1797,6.1719,6.1719,6.1719,6.1719,6.1719,6.1719,6.1719,6.1562,6.1289,6.1249,6.1121,6.0822,6.0822,6.0822,6.0822,6.0822,6.0822,6.0822,6.0822,6.0817,6.0812,6.1699,6.207,6.2056,6.3202,6.373,4.8057,4.8642,4.9267,4.9267,4.9501,4.9891,5.0438,5.0555,5.0711,5.1297,5.2351,5.3327,5.3912,5.4966,5.6138,5.7192,5.8324,5.93,5.9846,6.1681,6.3125,6.3438,6.4726,6.5702,0.0,0.0,0.0,6.8044,6.8396,6.8942,6.9801,7.0387,7.0855,7.1167,7.1714,7.1987,7.1987,7.1987,7.2143,7.2456,7.2456,7.2617,7.2939,7.293,7.2935,7.2909,7.26,7.2444,7.2444,7.2147,7.1992,7.1992,7.1992,7.1992,7.1992,7.1992,7.1992,7.1992,7.1992,7.164,7.1172,7.1172,7.078,7.0267,6.9994,6.9527,6.9022,6.8709,6.8006,6.7341,6.7324,6.7117,6.6917,6.6891,6.6895,6.6898,6.6908,6.6911,6.6717,6.617,6.5819,6.5234,6.4101,6.3398,6.2812,6.2265,6.1914,6.1719,6.1719,6.1719,6.1719,6.1719,6.1719,6.1719,6.1719,6.1719,6.1717,6.1704,6.169,6.172,6.172,6.172,6.172,6.172,6.1993,6.2149,6.2189,6.3032,6.341,6.3389,6.4263,6.4636,4.8954,4.954,5.0165,5.0165,5.0789,5.1414,5.1414,5.1414,5.1414,5.1414,5.278,5.399,5.399,0.0,5.6606,5.6645,5.805,5.9104,5.9143,6.1408,6.336,0.0,0.0,0.0,0.0,0.0,0.0,6.8239,0.0,6.984,7.0738,7.0777,7.1167,7.1987,7.1987,7.2026,7.2065,7.2104,7.2534,7.3354,7.3354,7.3798,7.4595,7.4579,7.4608,7.4535,7.3747,7.3359,7.3281,7.2461,7.2109,7.207,7.207,7.2031,7.1992,7.1992,7.1992,7.1992,7.1992,7.1992,7.1992,7.1992,7.1984,7.1831,7.1011,7.0753,7.0533,6.9713,6.8854,6.8151,6.8114,6.7516,6.6951,6.6912,6.6873,6.6873,6.6873,6.6891,6.6901,6.6901,6.6198,6.5617,6.5586,6.418,6.3086,6.3086,6.2344,6.1797,6.1719,6.1719,6.1719,6.1719,6.1719,6.1719,6.1719,6.1719,6.1719,6.1719,6.1704,6.172,6.1759,6.1759,6.1798,6.1837,6.2657,6.3086,6.3086,6.389,6.4268,6.4287,6.516,6.5572,4.982,5.0438,5.1063,5.1063,5.1258,5.1414,5.1414,5.1414,5.1414,5.1414,5.278,5.399,5.399,5.5435,0.0,5.7387,5.8402,0.0,5.9963,6.2306,0.0,6.4258,0.0,6.6834,6.7693,6.8552,0.0,0.0,7.023,7.0738,7.1636,7.1675,7.1753,7.1987,7.1987,7.23,7.2963,7.3627,7.4056,7.4257,7.4257,7.4374,7.4618,7.4601,7.4606,7.4606,7.4375,7.4258,7.4258,7.4023,7.3555,7.2969,7.2969,7.2578,7.1992,7.1992,7.1988,7.2006,7.2006,7.2006,7.2006,7.2006,7.201,7.1971,7.1758,7.1212,7.067,7.0436,6.9733,6.8913,6.8288,6.7932,6.7615,6.699,6.6834,6.6834,6.6834,6.6839,6.6844,6.6883,6.6219,6.5602,6.5617,6.4686,6.3984,6.3984,6.3789,6.3164,6.1875,6.1719,6.1719,6.1719,6.1719,6.1719,6.1719,6.1719,6.1719,6.1719,6.1713,6.1971,6.2657,6.2657,6.2969,6.3633,6.3867,6.3984,6.3984,6.4838,6.5211,6.5184,6.6073,6.6789,5.0691,5.1031,5.1414,5.1414,5.1414,5.1414,5.1414,5.1414,5.1414,5.1414,5.2468,5.3561,5.3912,5.5123,5.6294,0.0,0.0,0.0,5.9768,6.2423,6.4297,0.0,6.578,0.0,6.8005,6.8903,6.9762,0.0,7.105,7.148,7.1987,7.1987,7.1987,7.1987,7.2378,7.3002,7.3861,7.434,7.4774,7.5155,7.5155,7.536,7.573,7.574,7.5742,7.5703,0.0,7.5156,7.5156,7.4765,7.4297,7.3867,7.3867,7.3358,7.2569,7.2569,7.233,7.2002,7.1993,7.1987,7.1987,7.1987,7.1997,7.2006,7.1993,7.1675,7.1285,7.1285,7.066,6.9762,6.8903,6.8396,6.7888,6.699,6.6795,6.6795,6.6795,6.6795,6.6795,6.6834,6.6444,6.6136,6.6149,6.5417,6.4877,6.4883,6.4531,6.3945,6.2969,6.25,6.2109,6.1758,6.1719,6.1836,6.2226,6.2265,6.2422,6.2812,6.2848,6.3068,6.3555,6.3555,6.3789,6.4297,6.4687,6.4882,6.4882,6.5702,6.6121,6.6096,6.6939,6.7586,5.1402,5.1391,5.1414,5.1414,5.1414,5.1414,5.1414,5.1414,5.1414,5.1414,5.2078,5.2936,5.3678,5.4615,5.5552,5.6294,0.0,5.9104,5.9104,6.211,6.4297,6.4297,6.578,6.7185,6.8161,6.8942,6.9801,7.0816,7.1558,7.1987,7.1987,7.2104,7.2221,7.2339,7.3197,7.4017,7.4759,7.49,7.5333,7.6063,7.6063,7.6473,7.7187,7.7187,7.7187,7.7148,7.6406,7.6055,7.6015,7.5273,7.4883,7.4765,7.4765,7.4246,7.3471,7.3354,7.2822,7.217,7.2037,7.1987,7.1987,7.1987,7.1987,7.1987,7.1987,7.1987,7.1987,7.1987,7.1441,7.066,6.9801,6.8942,6.8044,6.7185,6.6873,6.6795,6.6795,6.6795,6.6795,6.6795,6.6795,6.6795,6.6795,6.6209,6.5755,6.5779,6.5117,6.4609,6.4492,6.3711,6.289,6.2148,6.2031,6.2344,6.3125,6.3164,6.3515,6.4258,6.4293,6.436,6.4453,6.4453,6.4531,6.4609,6.5351,6.5741,6.5741,6.6561,6.6985,6.7006,6.7844,6.8288,5.1406,5.1396,5.1414,5.1414,5.1414,5.1414,5.1414,5.1414,5.1414,5.1414,5.2078,5.2741,5.2897,5.4225,5.5357,5.5513,5.7543,5.9104,5.9104,6.211,6.4297,0.0,6.578,6.742,6.902,6.9294,0.0,0.0,7.1909,7.1987,7.1987,7.269,7.3393,7.4134,7.4993,7.5501,7.5662,7.6404,7.6814,7.6951,7.6951,7.703,7.7187,7.7187,7.7187,7.7187,7.7031,0.0,7.6953,7.6797,7.6328,7.5664,7.5685,7.5155,7.429,7.3588,7.3203,7.2969,7.226,7.1987,7.1987,7.1987,7.1987,7.1987,7.1987,7.1987,7.1987,7.1987,7.187,7.1558,7.0699,6.984,6.8942,6.8083,6.7303,6.6795,6.6795,6.6795,6.6795,6.6795,6.6795,6.6795,6.6795,6.6678,6.6605,6.6575,6.6518,6.6172,6.5469,6.4609,6.4023,6.3867,6.3867,6.3906,6.4062,6.4062,6.414,6.4297,6.4297,6.4604,6.5351,6.5351,6.5702,6.6366,6.6522,6.66,6.66,6.7459,6.7883,6.7904,6.8702,6.9467,5.1406,5.1404,5.1396,5.1418,5.1414,5.1414,5.1414,5.1414,5.1414,5.1414,5.1726,5.2156,5.2624,5.3756,5.4771,5.524,5.7074,5.8597,5.9026,6.133,6.3282,6.4179,6.539,6.7029,6.9176,6.9411,7.0113,7.187,7.1987,7.2182,7.2651,7.351,7.4374,7.5247,7.5668,7.6131,7.6555,7.6974,7.7183,7.7187,7.7187,7.7187,7.7187,7.7187,7.7187,7.7187,7.7187,7.7187,7.7187,7.7187,7.6951,7.6587,7.6566,7.6008,7.511,7.429,7.3705,7.3197,7.23,7.1987,7.1987,7.1987,7.1987,7.1987,7.1987,7.1987,7.1987,7.1987,7.1987,7.1792,7.0933,7.0387,6.9723,6.8435,6.742,6.6795,6.6795,6.6795,6.6795,6.6795,6.6795,6.6795,6.6795,6.6795,6.6795,6.6795,6.6817,6.6713,6.6328,6.5898,6.5312,6.4414,6.4297,6.4492,6.4922,6.4961,6.5156,6.5625,6.5664,6.5857,6.6266,6.6258,6.6405,6.6795,6.6795,6.7029,6.7498,6.7888,6.8312,6.8814,6.9653,7.0224,5.1406,5.1406,5.1406,5.1394,5.1382,5.1414,5.1414,5.1414,5.1414,5.1414,5.1414,5.1609,5.2312,5.3132,5.399,5.4888,5.645,5.7894,5.8948,6.0588,6.2345,6.4101,6.5077,0.0,6.9137,6.9411,0.0,7.187,7.2339,7.2846,7.3549,7.4408,7.5277,7.6154,7.6189,7.6497,7.7195,7.7184,7.7187,7.7187,7.7187,7.7187,7.7187,7.7187,7.7187,7.7187,7.7187,7.7187,7.7187,7.7187,7.7215,7.7218,7.7179,7.6711,7.5969,7.5149,7.433,7.3432,7.2573,7.2143,7.1987,7.1987,7.1987,7.1987,7.1987,7.1987,7.1987,7.1987,7.1987,7.1831,7.1167,7.0855,7.0309,6.8747,6.7693,6.7068,6.7068,6.6912,6.6795,6.6795,6.6795,6.6795,6.6795,6.6795,6.6795,6.6795,6.6795,6.6809,6.6872,6.6914,6.6367,6.5,6.4844,6.5117,6.582,6.5898,6.6172,6.6875,6.6914,6.6913,6.6904,6.6848,6.6912,6.7068,6.7068,6.7498,6.8396,6.8552,6.902,6.9684,7.0564,7.0941,5.1406,5.1406,5.1406,5.1406,5.1396,5.1414,5.1414,5.1414,5.1414,5.1414,5.1414,5.1414,5.1492,5.2234,5.3093,5.399,5.5591,5.727,5.887,6.0588,6.2345,6.4101,0.0,0.0,6.9137,6.9411,7.0113,7.187,7.3471,7.4408,7.4486,7.5311,7.617,7.7068,7.7064,7.7109,7.7187,7.7187,7.7187,7.7187,7.7187,7.7187,7.7187,7.7187,7.7187,7.7187,7.7187,7.7187,0.0,7.7204,7.7185,7.7179,7.714,7.7062,7.6867,7.6008,7.5149,7.4251,7.3471,7.2651,7.1987,7.1987,7.1987,7.1987,7.1987,7.1987,7.1987,7.1987,7.1987,7.1987,7.1909,7.1285,7.0465,6.9528,6.8591,6.7966,6.7966,6.7342,6.6795,6.6795,6.6795,6.6795,6.6795,6.6795,6.6795,6.6795,6.6795,6.6839,6.6883,6.6908,6.6836,6.668,6.664,6.668,6.6758,6.6797,6.6797,6.6875,6.6914,6.6913,6.6904,6.6887,6.7224,6.7966,6.7966,6.8396,6.9294,7.0074,7.0504,7.0582,7.1423,7.1806,5.1289,5.1406,5.1406,5.1406,5.1405,5.14,5.1394,5.1382,5.1414,5.1414,5.1414,5.1414,5.1414,5.2117,5.2975,5.3873,5.5005,5.6606,5.8792,5.969,6.1174,6.3984,6.4609,0.0,0.0,0.0,7.0348,7.2612,7.39,7.4837,7.535,7.6203,7.6844,7.7178,7.7187,7.7187,7.7187,7.7187,7.7187,7.7187,7.7187,7.7187,7.7187,7.7187,7.7187,7.7187,7.7187,7.7187,0.0,7.72,7.7179,7.714,7.7101,7.7101,7.6984,7.6125,7.5266,7.4369,7.3588,7.2729,7.1987,7.1987,7.1987,7.1987,7.1987,7.1987,7.1987,7.1987,7.1987,7.1987,7.1987,7.1363,7.0621,7.027,6.9528,6.8864,6.8864,6.82,6.7576,6.7576,6.7146,6.6795,6.6795,6.6795,6.6795,6.6795,6.6795,6.6795,6.6834,6.6862,6.6911,6.6914,6.6914,6.6914,6.6914,6.6914,6.6914,6.6914,6.6914,6.7108,6.7607,6.7629,6.8005,6.8864,6.8864,6.9294,7.0191,7.0543,7.0972,7.148,7.1825,7.1937,5.082,5.1055,5.1055,5.1055,5.1055,5.0976,5.0739,5.0654,5.0647,5.064,5.0836,5.1031,5.1023,5.1726,5.2702,5.3834,5.4537,5.5903,5.8714,5.9104,6.0393,6.3906,0.0,0.0,0.0,0.0,0.0,0.0,0.0,7.5077,7.6209,7.6883,7.7215,7.7187,7.7187,7.7187,7.7187,7.7187,7.7187,7.7187,7.7187,7.7187,7.7187,7.7187,7.7187,7.7187,7.7187,7.7187,0.0,7.7165,7.7146,7.7101,7.7101,7.7101,7.7023,7.6399,7.5462,7.4408,7.3861,7.2924,7.1987,7.1987,7.1987,7.1987,7.1987,7.1987,7.1987,7.1987,7.1987,7.1987,7.1987,7.1558,7.1089,7.1089,7.0426,6.9762,6.9762,6.9098,6.8474,6.8474,6.8005,6.7576,6.7576,6.7576,6.7576,6.7576,6.7576,6.7576,6.7576,6.759,6.7646,6.7656,6.7656,6.7461,6.6953,6.7148,6.7265,6.7265,6.7539,6.7928,6.8466,6.8484,6.8903,6.9762,6.9762,7.0191,7.1089,7.1089,7.1402,7.1987,7.1987,7.2099,4.9961,5.0195,5.0195,5.0195,5.0195,5.0,4.9101,4.8945,4.8945,4.8939,4.9563,5.0105,5.0129,5.0828,5.196,5.3721,5.399,5.5201,5.8636,5.9104,6.0393,0.0,0.0,6.5624,0.0,0.0,0.0,0.0,0.0,0.0,7.7107,7.7181,7.7187,7.7187,7.7187,7.7187,7.7187,7.7187,7.7187,7.7187,7.7187,7.7187,7.7187,7.7187,7.7187,7.7187,7.7187,7.7181,0.0,7.713,7.7087,7.7101,7.7101,7.7101,7.7101,7.7101,7.6008,7.4486,7.4486,7.3393,7.1987,7.1987,7.1987,7.1987,7.1987,7.1987,7.1987,7.1987,7.1987,7.1987,7.1987,7.1987,7.1987,7.1987,7.1324,7.0699,7.0699,6.9996,6.9372,6.9372,6.9372,6.9372,6.9372,6.9372,6.9372,6.9372,6.9372,6.9372,6.9372,6.9377,6.9355,6.9375,6.9414,6.8789,6.7031,6.7695,6.8203,6.8203,6.8984,6.9451,6.9403,6.9382,6.9801,7.066,7.0699,7.1128,7.1987,7.1987,7.1987,7.1987,7.1987,7.245,4.9062,4.9297,4.9297,4.9297,4.9297,4.9258,4.8945,4.8906,4.8906,4.8906,4.9569,5.0155,5.0153,5.0852,5.198,5.3737,5.401,5.5176,5.8601,5.9104,0.0,6.3906,6.6344,6.8219,0.0,0.0,0.0,0.0,0.0,0.0,7.7105,7.7187,7.7187,7.7187,7.7187,7.7187,7.7187,7.7187,7.7187,7.7187,7.7187,7.7187,7.7187,7.7187,7.7187,7.7187,7.7215,7.7195,7.7179,7.7112,7.7112,7.7101,7.7101,7.7101,7.7101,7.7101,7.6008,7.4486,7.4486,7.3393,7.1987,7.1987,7.1987,7.1987,7.1987,7.1987,7.1987,7.1987,7.1987,7.1987,7.1987,7.1987,7.1987,7.1987,7.1792,7.1597,7.1597,7.0894,7.0309,7.0309,6.9801,6.9411,6.9411,6.9411,6.9411,6.9411,6.9411,6.9411,6.9411,6.9411,6.9386,6.9408,6.9413,6.9219,6.8711,6.8945,6.9101,6.9101,6.9297,6.9687,7.0272,7.0292,7.0699,7.1558,7.1597,7.1714,7.1987,7.1987,7.23,7.2885,7.2885,7.3627,4.8086,4.8398,4.8398,4.8398,4.8398,4.832,4.8008,4.793,4.793,4.793,4.8867,4.9726,4.9726,5.0624,5.1989,5.3708,5.3981,5.5189,5.8652,5.939,0.0,0.0,0.0,0.0,0.0,0.0,0.0,0.0,0.0,0.0,7.7109,7.7187,7.7187,7.7187,7.7187,7.7187,7.7187,7.7187,7.7187,7.7187,7.7187,7.7187,7.7187,7.7187,7.7187,7.7187,7.7204,7.7179,0.0,7.7101,7.7101,7.7101,7.7101,7.7101,7.7101,7.7101,7.6008,7.4486,7.4486,7.3393,7.1987,7.1987,7.1987,7.1987,7.1987,7.1987,7.1987,7.1987,7.1987,7.1987,7.1987,7.1987,7.1987,7.1987,7.1987,7.1987,7.1987,7.1558,7.1206,7.1206,7.0738,7.0387,7.0387,7.0387,7.0387,7.0387,7.0387,7.0387,7.0387,7.0387,7.0397,7.0377,7.0389,7.039,7.043,7.0156,6.9961,6.9961,7.0234,7.0625,7.1172,7.12,7.1451,7.1987,7.1987,7.1987,7.1987,7.2339,7.2768,7.3315,7.3939,7.4798,0.0,4.7461,4.75,4.75,4.75,4.7305,4.6484,4.6289,0.0,4.6367,4.7734,4.8906,4.8984,5.0351,5.2031,5.3711,5.4101,5.5351,5.8743,6.0032,0.0,0.0,0.0,0.0,0.0,0.0,0.0,0.0,0.0,0.0,7.7109,7.7187,7.7187,7.7187,7.7187,7.7187,7.7187,7.7187,7.7187,7.7187,7.7187,7.7187,7.7187,7.7187,7.7187,0.0,7.7204,7.714,7.7101,7.7101,7.7101,7.7101,7.7101,7.7101,7.7101,7.7101,7.6008,7.4486,7.4486,7.3393,7.1987,7.1987,7.1987,7.1987,7.1987,7.1987,7.1987,7.1987,7.1987,7.1987,7.1987,7.1987,7.1987,7.1987,7.1987,7.1987,7.1987,7.1987,7.1987,7.1987,7.1987,7.1987,7.1987,7.1987,7.1987,7.1987,7.1987,7.1987,7.1987,7.1987,7.1997,7.2017,7.199,7.1992,7.1992,7.125,7.0781,7.0781,7.1562,7.1992,7.1992,7.1986,7.201,7.1987,7.2065,7.2104,7.2104,7.2963,7.3432,7.351,7.5071,7.5813,4.5508,0.0,4.6601,4.6601,4.6601,4.6562,0.0,4.6289,4.6484,4.7148,4.8164,4.9101,4.9766,5.125,5.2734,5.3828,5.5117,5.6758,5.8906,0.0,0.0,0.0,0.0,0.0,0.0,0.0,0.0,0.0,0.0,7.5351,7.7109,7.7187,7.7187,7.7187,7.7187,7.7187,7.7187,7.7187,7.7187,7.7187,7.7187,7.7187,7.7187,7.7187,7.7184,7.72,7.7169,7.7122,7.7101,7.7101,7.7101,7.7101,7.7101,7.7101,7.7101,7.7101,7.6008,7.4486,7.4486,7.3393,7.1987,7.1987,7.1987,7.1987,7.1987,7.1987,7.1987,7.1987,7.1987,7.1987,7.1987,7.1987,7.1987,7.1987,7.1987,7.1987,7.1987,7.1987,7.1987,7.1987,7.1987,7.1987,7.1987,7.1987,7.1987,7.1987,7.1987,7.1987,7.1987,7.1987,7.1997,7.2017,7.199,7.1992,7.1992,7.1797,7.168,7.168,7.1875,7.1991,7.1986,7.1981,7.201,7.1987,7.2651,7.3002,7.3002,7.3822,7.4564,7.5227,7.5618,7.6164,4.4883,4.5625,4.6289,4.6289,4.6289,4.6289,4.6289,4.6601,4.7031,4.75,4.8594,4.9648,5.0117,5.1562,5.3008,5.3867,5.5469,5.7617,0.0,0.0,0.0,0.0,0.0,0.0,0.0,0.0,0.0,0.0,0.0,7.5351,7.7109,7.7187,7.7187,7.7187,7.7187,7.7187,7.7187,7.7187,7.7187,7.7187,7.7187,7.7187,7.7187,7.7187,7.7181,7.7218,7.7117,7.7117,7.7101,7.7101,7.7101,7.7101,7.7101,7.7101,7.7101,7.7101,7.6242,7.5032,7.4642,7.3393,7.1987,7.1987,7.1987,7.1987,7.1987,7.1987,7.1987,7.1987,7.1987,7.1987,7.1987,7.1987,7.1987,7.1987,7.1987,7.1987,7.1987,7.1987,7.1987,7.1987,7.1987,7.1987,7.1987,7.1987,7.1987,7.1987,7.1987,7.1987,7.1987,7.1987,7.1993,7.2006,7.1988,7.1992,7.1992,7.1992,7.1992,7.1992,7.1992,7.1992,7.1989,7.2017,7.2197,7.2573,7.308,7.3471,7.3861,7.4681,7.5345,7.5813,7.6203,7.6633,4.4609,4.5547,4.6289,4.6289,4.6289,4.6328,4.6484,4.707,4.7695,4.793,4.918,5.0273,5.0547,5.1836,5.3242,5.4219,5.5976,0.0,0.0,0.0,0.0,0.0,0.0,0.0,0.0,0.0,0.0,0.0,0.0,7.5312,7.6914,7.7148,7.7187,7.7187,7.7187,7.7187,7.7187,7.7187,7.7187,7.7187,7.7187,7.7187,7.7187,7.7187,7.7178,7.7185,0.0,0.0,7.7101,7.7101,7.7101,7.7101,7.7101,7.7101,7.7101,7.7101,7.6555,7.5657,7.4642,7.3315,7.1987,7.1987,7.1987,7.1987,7.1987,7.1987,7.1987,7.1987,7.1987,7.1987,7.1987,7.1987,7.1987,7.1987,7.1987,7.1987,7.1987,7.1987,7.1987,7.1987,7.1987,7.2026,7.2182,7.2182,7.2221,7.2378,7.2378,7.2378,7.2378,7.2378,7.2378,7.2417,7.2413,7.2382,7.2383,7.2383,7.2383,7.2383,7.2265,7.2265,7.2383,7.2408,7.2734,7.3471,7.3627,7.4017,7.4681,7.5579,7.6008,7.6008,7.675,7.7101,4.3867,4.5078,4.6289,4.6289,4.6289,4.6484,4.7226,4.75,4.8008,4.9492,5.0,5.0625,5.2031,5.3125,5.4336,0.0,0.0,0.0,0.0,0.0,0.0,0.0,0.0,0.0,0.0,0.0,0.0,0.0,0.0,7.5039,7.6055,7.6797,7.7187,7.7187,7.7187,7.7187,7.7187,7.7187,7.7187,7.7187,7.7187,7.7187,7.7187,7.7211,7.7161,7.7094,0.0,7.7101,7.7101,7.7101,7.7101,7.7101,7.7101,7.7101,7.7101,7.7101,7.6555,7.5579,7.4017,7.2846,7.1987,7.1987,7.1987,7.1987,7.1987,7.1987,7.1987,7.1987,7.1987,7.1987,7.1987,7.1987,7.1987,7.1987,7.1987,7.1987,7.1987,7.1987,7.1987,7.1987,7.1987,7.2221,7.2963,7.3119,7.3315,7.4017,7.4134,7.4134,7.4134,7.4134,7.4134,7.4179,7.4201,7.4214,7.4219,7.4219,7.4219,7.4219,7.3515,7.3437,7.418,7.4212,7.4275,7.4408,7.5071,7.5462,7.5618,7.6477,7.6906,7.6906,7.7023,7.7101,4.3711,4.4961,4.6289,4.6289,4.6641,4.7109,4.75,4.832,4.9219,5.0039,5.0937,5.1797,5.2578,0.0,5.6133,5.8281,0.0,0.0,0.0,0.0,0.0,0.0,0.0,0.0,0.0,0.0,0.0,0.0,0.0,0.0,7.5859,7.6719,7.7187,7.7187,7.7187,7.7187,7.7187,7.7187,7.7187,7.7187,7.7187,7.7187,7.7187,7.7204,7.7146,7.7083,0.0,7.7101,7.7101,7.7101,7.7101,7.7101,7.7101,7.7101,7.7101,7.7101,7.6242,7.4993,7.4212,7.308,7.1987,7.1987,7.1987,7.1987,7.1987,7.1987,7.1987,7.1987,7.1987,7.1987,7.1987,7.1987,7.2104,7.2573,7.269,7.2807,7.3275,7.3354,7.3354,7.3354,7.3354,7.3471,7.3861,7.3939,7.4056,7.4447,7.4486,7.4486,7.4486,7.4486,7.4525,7.4603,7.4588,7.4603,7.4609,7.4609,7.4609,7.4609,7.4219,7.418,7.457,7.4605,7.4822,7.5305,7.5618,7.6047,7.6516,7.6906,7.7101,7.7101,7.7101,7.7101,4.3711,4.4961,4.6367,4.6562,4.7109,4.7656,4.7851,4.9101,5.0312,5.0703,5.1797,5.2812,0.0,0.0,0.0,0.0,0.0,0.0,0.0,0.0,0.0,0.0,0.0,0.0,0.0,0.0,0.0,0.0,0.0,0.0,7.5547,7.6406,7.6992,7.7187,7.7187,7.7187,7.7187,7.7187,7.7187,7.7187,7.7187,7.7187,7.7184,7.7165,7.7146,7.7101,7.7101,7.7101,7.7101,7.7101,7.7101,7.7101,7.7101,7.7101,7.7101,7.7101,7.6008,7.4486,7.4486,7.3393,7.1987,7.1987,7.1987,7.1987,7.1987,7.1987,7.2026,7.226,7.23,7.23,7.23,7.23,7.2534,7.3393,7.3588,7.3744,7.4369,7.4486,7.4486,7.4486,7.4486,7.4564,7.4759,7.4798,7.4876,7.5071,7.511,7.511,7.511,7.511,7.511,7.5188,7.5173,7.5189,7.5195,7.5195,7.5195,7.5195,7.5039,7.5,7.5195,7.5192,7.5532,7.6164,7.6125,7.6438,7.7101,7.7101,7.7101,7.7101,7.7101,7.7218,4.3711,4.4961,4.6484,4.7305,4.7539,4.7812,4.8633,4.9531,5.0625,5.2187,5.2617,5.3203,0.0,0.0,0.0,0.0,0.0,0.0,0.0,0.0,0.0,0.0,0.0,0.0,0.0,0.0,0.0,0.0,0.0,0.0,7.4648,7.5508,7.6367,7.7187,7.7187,7.7187,7.7187,7.7187,7.7187,7.7187,7.7187,7.7183,7.7185,7.713,7.7087,7.7101,7.7101,7.7101,7.7101,7.7101,7.7101,7.7101,7.7101,7.7101,7.7101,7.7101,7.6008,7.4486,7.4486,7.3393,7.1987,7.1987,7.1987,7.1987,7.1987,7.1987,7.2182,7.2963,7.3197,7.3197,7.3197,7.3197,7.3393,7.4212,7.4408,7.4447,7.4486,7.4486,7.4486,7.4486,7.4486,7.4759,7.5579,7.5696,7.5969,7.6789,7.6906,7.6906,7.6906,7.6906,7.6906,7.6906,7.6931,7.6946,7.6992,7.6992,7.6992,7.6992,7.625,7.6172,7.6992,7.6992,7.7026,7.7023,7.7023,7.7023,7.7101,7.7101,7.7101,7.7101,7.7101,7.7531,4.3711,4.4961,4.6523,4.7383,4.8008,4.8633,4.9492,5.0781,5.1914,5.2578,5.3555,5.5039,0.0,0.0,0.0,0.0,0.0,0.0,0.0,0.0,0.0,0.0,0.0,0.0,0.0,0.0,0.0,0.0,0.0,0.0,7.3789,7.4609,7.5508,7.6367,7.6406,7.664,7.7187,7.7187,7.7187,7.7187,7.7187,7.7181,7.7218,7.7112,7.7112,7.7101,7.7101,7.7101,7.7101,7.7101,7.7101,7.7101,7.7101,7.7101,7.7101,7.7101,7.632,7.5227,7.4681,7.3744,7.2729,7.2182,7.2378,7.2807,7.2807,7.3158,7.3627,7.3939,7.4056,7.4056,7.4056,7.4056,7.4251,7.511,7.5305,7.5462,7.6008,7.6125,7.6125,7.6125,7.6125,7.6203,7.6555,7.6594,7.6711,7.7062,7.7101,7.7101,7.7101,7.7101,7.7101,7.7101,7.7137,7.7187,7.7187,7.7187,7.7187,7.7187,7.6875,7.6875,7.7187,7.7187,7.7187,7.7142,7.7117,7.7101,7.7101,7.7101,7.7101,7.7101,7.7648,7.8077,4.3711,4.5156,4.6914,4.7773,4.8672,4.9609,5.0742,5.1875,5.2851,5.3398,5.4922,5.6836,5.914,0.0,0.0,0.0,0.0,0.0,0.0,0.0,0.0,0.0,0.0,0.0,0.0,0.0,0.0,0.0,0.0,0.0,7.3281,7.3867,7.4609,7.5469,7.5508,7.5781,7.6367,7.6367,7.6367,7.6367,7.6678,7.6902,7.7156,7.7107,7.7101,7.7101,7.7101,7.7101,7.7101,7.7101,7.7101,7.7101,7.7101,7.7101,7.7101,7.7101,7.6555,7.5696,7.511,7.4369,7.3588,7.2963,7.3197,7.3666,7.3666,7.4056,7.4564,7.4837,7.4915,7.4954,7.5266,7.511,7.511,7.6008,7.6203,7.636,7.6984,7.7101,7.7101,7.7101,7.7101,7.7101,7.7101,7.7101,7.7101,7.7101,7.7101,7.7101,7.7101,7.7101,7.7107,7.7112,7.7144,7.7187,7.7187,7.7187,7.7187,7.7187,7.7187,7.7187,7.7187,7.7187,7.7187,7.7187,7.7139,7.7117,7.7101,7.7101,7.7257,7.7531,7.8116,7.8702,4.3711,4.5625,4.7812,4.8672,4.957,5.0664,5.2344,5.2695,5.3203,5.4961,5.6719,5.8437,6.0117,6.1133,0.0,0.0,0.0,0.0,0.0,0.0,0.0,0.0,0.0,0.0,0.0,0.0,0.0,0.0,0.0,7.2383,7.3242,7.3281,7.3672,7.457,7.4609,7.4609,7.4609,7.4609,7.4609,7.4609,7.5486,7.6297,7.7097,7.7112,7.7101,7.7101,7.7101,7.7101,7.7101,7.7101,7.7101,7.7101,7.7101,7.7101,7.7101,7.7101,7.6555,7.5813,7.5813,7.5227,7.4525,7.4486,7.4525,7.4525,7.4525,7.4525,7.4681,7.5579,7.5813,7.6008,7.6867,7.6477,7.6047,7.6906,7.7101,7.7101,7.7101,7.7101,7.7101,7.7101,7.7101,7.7101,7.7101,7.7101,7.7101,7.7101,7.7101,7.7101,7.7101,7.7101,7.7112,7.7097,7.7147,7.7187,7.7187,7.7187,7.7187,7.7187,7.7187,7.7187,7.7187,7.7187,7.7187,7.7187,7.7187,7.7183,7.7101,7.7101,7.757,7.839,7.8429,7.9366,4.3711,4.5625,0.0,4.8672,4.9961,5.1484,5.3203,5.3594,5.4297,5.664,5.8476,6.0,6.1094,0.0,0.0,0.0,0.0,0.0,0.0,0.0,0.0,0.0,0.0,0.0,0.0,0.0,0.0,0.0,0.0,7.2109,7.2383,7.2383,7.2773,7.3672,7.3672,7.3984,7.4609,7.4609,7.4609,7.4609,7.4874,7.5443,7.6292,7.6834,7.7101,7.7101,7.7101,7.7101,7.7101,7.7101,7.7101,7.7101,7.7101,7.7101,7.7101,7.7101,7.6945,7.6633,7.6008,7.5618,7.5305,7.4681,7.4915,7.5423,7.5423,7.5852,7.6399,7.6633,7.6711,7.6789,7.7023,7.6906,7.6789,7.7023,7.7101,7.7101,7.7101,7.7101,7.7101,7.7101,7.7101,7.7101,7.7101,7.7101,7.7101,7.7101,7.7101,7.7101,7.7101,7.7101,7.7112,7.7097,7.7147,7.7187,7.7187,7.7187,7.7187,7.7187,7.7187,7.7187,7.7187,7.7187,7.7187,7.7187,7.7187,7.7187,7.7183,7.7742,7.8155,7.8429,7.9678,8.0498,4.3711,4.5859,0.0,4.8789,5.043,5.2461,5.457,0.0,0.0,0.0,5.9961,6.1172,6.207,0.0,0.0,0.0,0.0,0.0,0.0,0.0,0.0,0.0,0.0,0.0,0.0,0.0,0.0,0.0,7.1992,7.1992,7.1992,7.1992,7.2226,7.2773,7.2773,7.3047,7.3555,7.3555,7.3555,7.3555,7.3902,7.4353,7.4876,7.5696,7.6086,7.6086,7.6086,7.6086,7.6086,7.6086,7.6086,7.6086,7.6086,7.6281,7.6594,7.6594,7.6789,7.7023,7.6516,7.632,7.6242,7.5696,7.5891,7.632,7.632,7.6672,7.7101,7.7101,7.7101,7.7101,7.7101,7.7101,7.7101,7.7101,7.7101,7.7101,7.7101,7.7101,7.7101,7.7101,7.7101,7.7101,7.7101,7.7101,7.7101,7.7101,7.7101,7.7101,7.7101,7.7101,7.7112,7.7097,7.7459,7.7734,7.7734,7.8008,7.8203,7.8203,7.8203,7.8203,7.8203,7.7539,7.7187,7.7187,7.7187,7.7344,7.7695,7.8155,7.8762,7.9444,8.0498,8.12,4.3789,4.6328,0.0,0.0,0.0,0.0,0.0,0.0,0.0,0.0,0.0,6.207,0.0,0.0,0.0,0.0,0.0,0.0,0.0,0.0,0.0,0.0,0.0,0.0,0.0,0.0,0.0,7.1992,7.1992,7.1992,7.1992,7.1992,7.1992,7.1992,7.1992,7.1992,7.1992,7.1992,7.1992,7.1992,7.2806,7.3182,7.3197,7.4095,7.4486,7.4486,7.4486,7.4486,7.4486,7.4486,7.4486,7.4486,7.4486,7.4993,7.5696,7.5774,7.6281,7.6984,7.7062,7.7101,7.7101,7.7101,7.7101,7.7101,7.7101,7.7101,7.7101,7.7101,7.7101,7.7101,7.7101,7.7101,7.7101,7.7101,7.7101,7.7101,7.7101,7.7101,7.7101,7.7101,7.7101,7.7101,7.7101,7.7101,7.714,7.7218,7.7218,7.7257,7.7335,7.7335,7.7347,7.7332,7.8084,7.8594,7.8594,7.9297,7.9687,7.9687,7.9687,7.9687,7.9687,7.8242,7.7422,7.7422,7.7422,7.7773,7.8515,7.8594,7.9448,8.1017,8.1089,8.1558,4.4531,4.6758,0.0,0.0,0.0,0.0,0.0,0.0,0.0,0.0,0.0,0.0,0.0,0.0,0.0,0.0,0.0,0.0,0.0,0.0,0.0,0.0,0.0,0.0,7.1992,7.1992,7.1992,7.1992,7.1992,7.1992,7.1992,7.1992,7.1992,7.1992,7.1992,7.1992,7.1992,7.1992,7.1992,7.1992,7.2181,7.2284,7.2339,7.3822,7.4486,7.4486,7.4486,7.4486,7.4486,7.4486,7.4486,7.4486,7.4486,7.4603,7.4876,7.554,7.593,7.6164,7.6867,7.7101,7.7101,7.7101,7.7101,7.7101,7.7101,7.7101,7.7101,7.7101,7.7101,7.7101,7.7101,7.7101,7.7101,7.7101,7.7101,7.7101,7.7101,7.7101,7.7101,7.7101,7.7101,7.7101,7.7101,7.7101,7.7335,7.8038,7.8116,7.835,7.9053,7.9131,7.9143,7.9128,7.9334,7.9453,7.9453,7.9609,7.9687,7.9687,7.9687,7.9687,7.9687,7.9336,7.914,7.914,7.914,7.9258,7.9414,8.0117,8.0625,8.1012,8.1706,8.212,4.4766,0.0,0.0,5.0937,0.0,0.0,0.0,0.0,0.0,0.0,0.0,0.0,0.0,0.0,0.0,0.0,0.0,0.0,0.0,0.0,0.0,0.0,0.0,7.1992,7.1992,7.1992,7.1992,7.1992,7.1992,7.1992,7.1992,7.1992,7.1992,7.1992,7.1992,7.1992,7.1992,7.1992,7.1992,7.1989,7.1984,7.201,7.2026,7.2885,7.3315,7.3315,7.3315,7.3315,7.3315,7.3315,7.3315,7.3315,7.3315,7.3549,7.4017,7.4876,7.5423,7.593,7.6789,7.7101,7.7101,7.7101,7.7101,7.7101,7.7101,7.7101,7.7101,7.7101,7.7101,7.7101,7.7101,7.7101,7.7101,7.7101,7.7101,7.7101,7.7101,7.7101,7.7101,7.7101,7.7101,7.7101,7.7101,7.7453,7.8038,7.8897,7.9014,7.917,7.9639,7.9717,7.9689,7.9714,8.0076,8.0312,8.0312,8.0703,8.0937,8.0937,8.0937,8.0937,8.0937,8.0937,8.0547,7.9726,7.9687,7.9922,8.0312,8.0781,8.1211,8.164,8.2107,8.2297,4.4961,0.0,4.9726,5.3164,5.3984,0.0,0.0,0.0,0.0,0.0,0.0,0.0,0.0,0.0,0.0,0.0,0.0,0.0,0.0,0.0,0.0,0.0,7.1328,7.1836,7.1992,7.1992,7.1992,7.1992,7.1992,7.1992,7.1992,7.1992,7.1992,7.1992,7.1992,7.1992,7.1992,7.1992,7.1991,7.1984,7.2017,7.2006,7.1987,7.1987,7.1987,7.1987,7.1987,7.1987,7.1987,7.1987,7.1987,7.1987,7.1987,7.2456,7.3197,7.4134,7.4954,7.5735,7.675,7.7101,7.7101,7.7101,7.7101,7.7101,7.7101,7.7101,7.7101,7.7101,7.7101,7.7101,7.7101,7.7101,7.7101,7.7101,7.7101,7.7101,7.7101,7.7101,7.7101,7.7101,7.7218,7.7375,7.7531,7.8155,7.8936,7.9795,7.9912,7.999,8.0146,8.0146,8.0158,8.0144,8.0779,8.1211,8.1211,8.1875,8.2304,8.2304,8.2304,8.2304,8.2304,8.2304,8.1601,8.0195,8.0156,8.0508,8.1211,8.1211,8.1601,8.2304,8.2304,8.2304,4.5664,0.0,4.9726,0.0,5.3984,5.4726,0.0,0.0,0.0,0.0,0.0,0.0,0.0,0.0,0.0,0.0,0.0,0.0,0.0,0.0,6.8945,7.0508,7.0781,7.1172,7.1914,7.1992,7.1992,7.1992,7.1992,7.1992,7.1992,7.1992,7.1992,7.1992,7.1992,7.1992,7.1992,7.1992,7.1992,7.1992,7.2014,7.1993,7.1987,7.1987,7.1987,7.1987,7.1987,7.1987,7.1987,7.1987,7.1987,7.1987,7.1987,7.2065,7.2378,7.3939,7.4564,7.4915,7.6555,7.7101,7.7101,7.7101,7.7101,7.7101,7.7101,7.7101,7.7101,7.7101,7.7101,7.7101,7.7101,7.7101,7.7101,7.7101,7.7101,7.7101,7.7101,7.7101,7.7101,7.7101,7.7726,7.8468,7.9209,7.9444,7.9834,8.0693,8.081,8.1083,8.1864,8.1942,8.1954,8.194,8.2068,8.2148,8.2148,8.2226,8.2304,8.2304,8.2304,8.2304,8.2304,8.2304,8.2187,8.1953,8.1953,8.1992,8.2148,8.2148,8.2187,8.2304,8.2304,8.2304,4.7031,4.832,4.9609,0.0,5.3633,5.457,5.668,0.0,5.9414,0.0,0.0,0.0,0.0,0.0,0.0,0.0,0.0,0.0,6.7422,6.789,6.8476,6.9219,6.9687,7.0312,7.1172,7.1289,7.1484,7.1953,7.1992,7.1992,7.1992,7.1992,7.1992,7.1992,7.1992,7.1992,7.1992,7.1992,7.1992,7.1992,7.201,7.1987,7.1987,7.1987,7.1987,7.1987,7.1987,7.1987,7.1987,7.1987,7.1987,7.1987,7.1987,7.1987,7.2182,7.3861,7.4486,7.4759,7.6516,7.7101,7.7101,7.7101,7.7101,7.7101,7.7101,7.7101,7.7101,7.7101,7.7101,7.7101,7.7101,7.7101,7.7101,7.7101,7.7101,7.7101,7.7101,7.7101,7.7257,7.7726,7.8546,7.9405,8.0263,8.042,8.0732,8.1591,8.1747,8.1864,8.2254,8.2293,8.2305,8.2292,8.2303,8.2304,8.2304,8.2304,8.2304,8.2304,8.2304,8.2304,8.2304,8.2304,8.2304,8.2304,8.2304,8.2304,8.2304,8.2304,8.2304,8.2304,8.2304,8.2304,4.7812,0.0,4.9453,5.1797,5.3203,5.4414,0.0,0.0,5.9101,0.0,0.0,0.0,0.0,6.4844,6.582,6.6445,6.6758,6.6914,6.6914,6.7461,6.7969,6.8164,6.8711,6.9453,7.0312,7.039,7.0664,7.1328,7.1367,7.1328,7.1328,7.1562,7.168,7.168,7.1875,7.1992,7.1992,7.1992,7.1992,7.1992,7.1981,7.2002,7.1987,7.1987,7.1987,7.1987,7.1987,7.1987,7.1987,7.1987,7.1987,7.1987,7.1987,7.1987,7.2182,7.3861,7.4486,7.4759,7.6516,7.7101,7.7101,7.7101,7.7101,7.7101,7.7101,7.7101,7.7101,7.7101,7.7101,7.7101,7.7101,7.7101,7.7101,7.7101,7.7101,7.7179,7.7375,7.7414,7.7765,7.8858,7.96,8.0302,8.1161,8.1317,8.1552,8.2215,8.2293,8.2293,8.2293,8.2293,8.2305,8.2292,8.2303,8.2304,8.2304,8.2304,8.2304,8.2304,8.2304,8.2304,8.2304,8.2304,8.2304,8.2304,8.2304,8.2304,8.2304,8.2304,8.2304,8.2304,8.2304,8.2304,4.7383,4.8281,0.0,5.1055,5.2734,0.0,0.0,0.0,0.0,0.0,5.9922,6.1055,6.2734,6.4453,6.5625,6.5664,6.6367,6.6914,6.6914,6.6953,6.7265,6.8086,6.8242,6.8594,6.9492,6.957,6.957,6.9648,6.957,6.9531,6.9531,7.0312,7.0781,7.0781,7.1562,7.1992,7.1992,7.1992,7.1992,7.1992,7.1992,7.1986,7.1987,7.1987,7.1987,7.1987,7.1987,7.1987,7.1987,7.1987,7.1987,7.1987,7.1987,7.1987,7.2182,7.3861,7.4486,7.4759,7.6516,7.7101,7.7101,7.7101,7.7101,7.7101,7.7101,7.7101,7.7101,7.7101,7.7101,7.7101,7.7101,7.7101,7.7101,7.7101,7.7101,7.7335,7.8155,7.8311,7.8819,8.0537,8.0888,8.12,8.2098,8.2215,8.2254,8.2293,8.2293,8.2293,8.2293,8.2293,8.2305,8.2292,8.2303,8.2304,8.2304,8.2304,8.2304,8.2304,8.2304,8.2304,8.2304,8.2304,8.2304,8.2304,8.2304,8.2304,8.2304,8.2304,8.2304,8.2304,8.2304,8.2304,4.7344,4.8242,0.0,5.0351,5.1914,5.3398,5.4258,5.582,5.7305,5.8203,5.9453,6.0586,6.1211,6.2773,6.4297,6.543,6.5859,6.625,6.6836,6.6914,6.7031,6.7344,6.7383,6.7695,6.8594,6.8672,6.8867,6.9414,6.9414,6.9414,6.9453,6.9765,6.9922,6.9883,7.0156,7.0586,7.1172,7.1719,7.1992,7.1992,7.1992,7.1991,7.1986,7.2002,7.1987,7.1987,7.1987,7.1987,7.1987,7.1987,7.1987,7.1987,7.1987,7.1987,7.2182,7.3861,7.4486,7.4759,7.6516,7.7101,7.7101,7.7101,7.7101,7.7101,7.7101,7.7101,7.7101,7.7101,7.7101,7.7101,7.7101,7.7101,7.7101,7.7101,7.7101,7.7492,7.8936,7.9248,7.9561,8.0771,8.1435,8.1942,8.2254,8.2293,8.2293,8.2293,8.2293,8.2293,8.2293,8.2293,8.2299,8.231,8.23,8.2304,8.2304,8.2304,8.2304,8.2304,8.2304,8.2304,8.2304,8.2304,8.2304,8.2304,8.2304,8.2304,8.2304,8.2304,8.2304,8.2304,8.2304,8.2304,4.6992,4.8008,4.9023,4.9609,5.125,5.2851,5.3437,0.0,5.6406,5.7265,5.8594,5.9648,5.9922,6.1172,6.2695,6.4453,6.4961,6.5351,6.5937,6.6289,6.6445,6.6445,6.6719,6.7148,6.7695,6.7773,6.8008,6.8515,6.8555,0.0,6.8633,6.8906,6.918,6.9375,6.9414,6.9726,7.0273,7.1133,7.1562,7.1562,7.1875,7.1992,7.1992,7.1984,7.2002,7.1987,7.1997,7.1997,7.1987,7.1987,7.1987,7.1987,7.1987,7.1987,7.2182,7.3861,7.4486,7.4759,7.6516,7.7101,7.7101,7.7101,7.7101,7.7101,7.7101,7.7101,7.7101,7.7101,7.7101,7.7101,7.7101,7.7101,7.7101,7.7101,7.7101,7.757,7.9326,7.9717,8.0029,8.12,8.1903,8.2293,8.2293,8.2293,8.2293,8.2293,8.2293,8.2293,8.2293,8.2293,8.2293,8.2293,8.2285,8.2301,8.2304,8.2304,8.2304,8.2304,8.2304,8.2304,8.2304,8.2304,8.2304,8.2304,8.2304,8.2304,8.2304,8.2304,8.2304,8.2304,8.2304,8.2304,0.0,0.0,0.0,4.8906,5.0781,0.0,5.2695,0.0,5.5469,5.6367,5.7265,5.8125,5.8984,5.9805,6.0937,6.2617,6.3672,6.4258,6.4297,6.5039,6.5547,6.5547,6.6328,6.6836,6.6836,6.6836,6.6875,6.6875,6.6875,6.6914,6.6914,6.7695,6.8515,6.9297,6.9414,6.9453,6.9453,7.0273,7.0664,7.0703,7.1562,7.1992,7.1992,7.1992,7.1986,7.1993,7.2014,7.201,7.1987,7.1987,7.1987,7.1987,7.1987,7.1987,7.2182,7.3861,7.4486,7.4759,7.6516,7.7101,7.7101,7.7101,7.7101,7.7101,7.7101,7.7101,7.7101,7.7101,7.7101,7.7101,7.7101,7.7101,7.7101,7.7101,7.7101,7.757,7.9326,7.9717,8.0224,8.1942,8.2293,8.2293,8.2293,8.2293,8.2293,8.2293,8.2293,8.2293,8.2293,8.2293,8.2293,8.2293,8.2293,8.2315,8.2304,8.2304,8.2304,8.2304,8.2304,8.2304,8.2304,8.2304,8.2304,8.2304,8.2304,8.2304,8.2304,8.2304,8.2304,8.2304,8.2304,8.2304,4.6312,0.0,0.0,0.0,0.0,0.0,5.2578,5.3086,5.3867,5.5351,5.6367,5.7226,5.8086,5.8945,5.9687,6.0156,6.1992,6.3594,6.4219,6.4492,6.4648,6.4648,6.4883,6.5039,6.5039,6.5586,6.5976,0.0,6.6523,6.6914,6.6914,6.7148,6.7344,6.7578,6.8203,6.8555,6.8555,6.9375,7.0078,7.0703,7.0937,7.1406,7.1992,7.1992,7.1991,7.1988,7.1984,7.2017,7.201,7.1997,7.1987,7.1987,7.1987,7.1987,7.2221,7.3939,7.4564,7.4798,7.6516,7.7101,7.7101,7.7101,7.7101,7.7101,7.7101,7.7101,7.7101,7.7101,7.7101,7.7101,7.7101,7.7101,7.7101,7.7101,7.7101,7.757,7.9326,7.9717,8.0224,8.1942,8.2293,8.2293,8.2293,8.2293,8.2293,8.2293,8.2293,8.2293,8.2293,8.2293,8.2293,8.2293,8.2293,8.2299,8.2315,8.2292,8.2301,8.2304,8.2304,8.2304,8.2304,8.2304,8.2304,8.2304,8.2304,8.2304,8.2304,8.2304,8.2304,8.2304,8.2304,8.2304,4.7354,4.8337,4.9397,4.9397,0.0,0.0,5.2025,5.2458,5.3007,5.4022,5.5194,5.621,5.6717,5.7811,5.867,5.867,6.0194,6.1679,6.2539,6.3281,6.375,6.375,6.4062,6.4297,6.4297,6.4765,6.5078,6.5078,6.5547,6.5976,6.6328,6.6719,6.6914,6.6914,6.7383,6.7656,6.7656,6.8476,6.914,6.9687,7.0351,7.0976,7.1484,7.1836,7.1992,7.1992,7.199,7.1988,7.1988,7.1981,7.201,7.2002,7.2002,7.2002,7.2197,7.3959,7.4584,7.4853,7.6532,7.7112,7.7101,7.7101,7.7101,7.7101,7.7101,7.7101,7.7101,7.7101,7.7101,7.7101,7.7101,7.7101,7.7101,7.7101,7.7101,7.7492,7.8858,7.9444,8.0224,8.1942,8.2293,8.2293,8.2293,8.2293,8.2293,8.2293,8.2293,8.2293,8.2293,8.2293,8.2293,8.2293,8.2293,8.2293,8.2293,8.231,8.2285,8.2295,8.23,8.2303,8.2303,8.2303,8.2303,8.2303,8.2303,8.2303,8.2303,8.2304,8.2304,8.2304,8.23,8.2295,4.8798,4.9423,5.0087,5.0087,5.075,0.0,5.1414,5.2013,5.2568,5.2685,5.3935,5.5028,5.5145,5.6512,5.7606,5.7606,5.8387,5.9251,6.0116,6.1601,6.2578,6.2578,6.3359,6.3867,6.3867,6.4023,6.414,6.414,6.4258,6.4687,6.5547,6.6328,6.6797,6.6914,6.6914,6.6914,6.6914,6.7656,6.8086,6.8203,6.9805,7.0625,7.0742,7.1601,7.1992,7.1992,7.1992,7.1992,7.1992,7.1992,7.199,7.1984,7.1984,7.1984,7.2218,7.3976,7.4601,7.4835,7.6514,7.7091,7.7112,7.7107,7.7107,7.7107,7.7101,7.7101,7.7101,7.7101,7.7101,7.7101,7.7101,7.7101,7.7101,7.7101,7.7101,7.7335,7.8194,7.9014,8.0068,8.1825,8.2215,8.2293,8.2293,8.2293,8.2293,8.2293,8.2293,8.2293,8.2293,8.2293,8.2293,8.2293,8.2293,8.2293,8.2293,8.2293,8.2293,8.2293,8.232,8.2289,8.2289,8.2289,8.2289,8.2289,8.2289,8.2289,8.2289,8.2303,8.2304,8.2304,8.2281,8.2293,4.8798,4.9423,5.0087,5.0087,0.0,0.0,5.1414,5.1535,5.1851,5.2553,5.2983,5.3412,5.4112,5.5088,5.579,5.579,5.7122,5.8417,5.9251,5.9643,5.9879,5.9922,6.0664,6.1172,6.1172,6.2422,6.3242,6.3242,6.3906,6.4687,6.5547,6.5742,6.6172,6.6875,6.6914,6.6914,6.6914,6.707,6.75,6.8203,6.9258,7.0078,7.0742,7.1601,7.1992,7.1992,7.1992,7.1992,7.1992,7.1992,7.1992,7.1991,7.1991,7.1991,7.2226,7.3944,7.4608,7.4843,7.6562,7.7187,7.7184,7.7137,7.7094,7.7091,7.7107,7.7101,7.7101,7.7101,7.7101,7.7101,7.7101,7.7101,7.7101,7.7101,7.7101,7.7335,7.8194,7.8546,7.917,8.0927,8.1825,8.2293,8.2293,8.2293,8.2293,8.2293,8.2293,8.2293,8.2293,8.2293,8.2293,8.2293,8.2293,8.2293,8.2293,8.2293,8.2293,8.2293,8.2299,8.2299,8.2299,8.2299,8.2299,8.2299,8.2299,8.2299,8.2299,8.2289,8.2297,8.2297,8.2292,8.2315,5.0087,0.0,0.0,5.075,0.0,0.0,0.0,5.1414,5.1531,5.196,5.239,5.2819,5.3288,5.4068,5.4654,5.4654,5.5396,5.6103,5.6504,5.8027,5.9123,5.9131,5.9528,5.9764,5.9805,6.0937,6.1875,6.2305,6.3164,6.3828,6.4297,6.4726,6.5351,6.6211,6.625,6.6445,6.6914,6.6914,6.7109,6.7578,6.8437,6.9297,7.0117,7.0976,7.1601,7.1992,7.1992,7.1992,7.1992,7.1992,7.1992,7.1992,7.1992,7.1992,7.2148,7.3476,7.4219,7.4805,7.6094,7.6836,7.7187,7.7147,7.7145,7.7144,7.7169,7.7112,7.7101,7.7101,7.7101,7.7101,7.7101,7.7101,7.7101,7.7101,7.7101,7.7218,7.7648,7.8077,7.8663,7.9522,8.0771,8.1786,8.2215,8.2293,8.2293,8.2293,8.2293,8.2293,8.2293,8.2293,8.2293,8.2293,8.2293,8.2293,8.2293,8.2293,8.2293,8.2293,8.2293,8.2293,8.2293,8.2293,8.2293,8.2293,8.2293,8.2293,8.2293,8.231,8.2315,8.2315,8.2315,8.231,0.0,0.0,0.0,0.0,0.0,5.1414,0.0,0.0,0.0,0.0,0.0,0.0,0.0,0.0,0.0,5.3756,0.0,0.0,0.0,5.6372,0.0,5.8363,5.8652,5.8897,5.8944,5.9687,6.0547,6.1406,6.2109,6.2656,6.2969,6.3672,6.4453,6.5312,6.5508,6.5937,6.664,6.6836,6.6914,6.6914,6.7773,6.8633,6.9492,7.0312,7.1172,7.1992,7.1992,7.1992,7.1992,7.1992,7.1992,7.1992,7.1992,7.1992,7.2109,7.2969,7.3867,7.4726,7.5586,7.6484,7.7187,7.7187,7.7187,7.7187,7.7183,7.7172,7.7117,7.7112,7.7112,7.7112,7.7112,7.7112,7.7112,7.7112,7.7112,7.7112,7.7112,7.7659,7.8206,7.8362,7.9528,8.0849,8.1864,8.2176,8.2293,8.2293,8.2293,8.2293,8.2293,8.2293,8.2293,8.2293,8.2293,8.2293,8.2293,8.2293,8.2293,8.2293,8.2293,8.2293,8.2293,8.2293,8.2293,8.2293,8.2293,8.2293,8.2293,8.2293,8.2293,8.2293,8.2293,8.2293,0.0,0.0,0.0,0.0,5.1414,0.0,0.0,0.0,5.1414,5.1414,0.0,0.0,0.0,0.0,0.0,5.2858,5.3483,0.0,5.399,5.4342,5.4888,5.563,5.7035,5.7977,5.8059,5.8824,5.9687,6.0508,6.0625,6.1367,6.293,6.3086,6.3555,6.4414,6.5195,6.5664,6.5742,6.6523,6.6914,6.6914,6.7773,6.8633,6.9453,7.0312,7.1172,7.1992,7.1992,7.1992,7.1992,7.1992,7.1992,7.1992,7.1992,7.1992,7.2109,7.2969,7.3867,7.4726,7.5586,7.6484,7.7187,7.7187,7.7187,7.7187,7.7187,7.7187,7.7186,7.7139,7.7094,7.7094,7.7094,7.7094,7.7094,7.7094,7.7094,7.7094,7.7094,7.7172,7.7485,7.8266,7.8562,7.9209,8.0849,8.1786,8.2293,8.2293,8.2293,8.2293,8.2293,8.2293,8.2293,8.2293,8.2293,8.2293,8.2293,8.2293,8.2293,8.2293,8.2293,8.2293,8.2293,8.2293,8.2293,8.2293,8.2293,8.2293,8.2293,8.2293,8.2293,8.2293,8.2293,8.2293,0.0,0.0,0.0,0.0,0.0,0.0,5.1531,0.0,5.1414,0.0,0.0,0.0,0.0,0.0,0.0,0.0,5.2234,5.2507,0.0,0.0,5.3561,5.4459,0.0,0.0,5.7051,5.7927,5.8789,5.9648,6.0156,6.0703,6.1445,6.1953,6.2656,6.3515,6.4375,6.5078,6.5586,6.6445,6.6914,6.6914,6.7265,6.789,6.8711,6.957,7.043,7.1289,7.1797,7.1992,7.1992,7.1992,7.1992,7.1992,7.1992,7.1992,7.2031,7.2422,7.3437,7.4648,7.5039,7.6055,7.7187,7.7187,7.7187,7.7187,7.7187,7.7187,7.7187,7.7186,7.7147,7.7147,7.7147,7.7147,7.7147,7.7147,7.7147,7.7147,7.7147,7.7147,7.7263,7.7647,7.8098,7.8624,7.9366,8.0615,8.1708,8.2215,8.2293,8.2293,8.2293,8.2293,8.2293,8.2293,8.2293,8.2293,8.2293,8.2293,8.2293,8.2293,8.2293,8.2293,8.2293,8.2293,8.2293,8.2293,8.2293,8.2293,8.2293,8.2293,8.2293,8.2293,8.2293,8.2293,5.4771,0.0,0.0,0.0,0.0,0.0,0.0,0.0,0.0,0.0,0.0,0.0,0.0,0.0,5.1414,5.1414,0.0,5.1414,5.1414,5.1921,0.0,0.0,0.0,0.0,0.0,5.6677,5.7539,5.8437,5.9258,5.9922,6.039,6.1015,6.1758,6.2617,6.3476,6.4375,6.5234,6.6094,6.664,6.6914,6.6914,6.7344,6.8242,6.9062,6.9883,7.0742,7.1601,7.1992,7.1992,7.1992,7.1992,7.1992,7.1992,7.1992,7.1992,7.1992,7.3086,7.4609,7.4609,7.5742,7.7187,7.7187,7.7187,7.7187,7.7187,7.7187,7.7187,7.7187,7.7187,7.7187,7.7187,7.7187,7.7187,7.7187,7.7187,7.7187,7.7187,7.7187,7.7187,7.7183,7.768,7.8137,7.8367,7.984,8.12,8.1864,8.2137,8.2293,8.2293,8.2293,8.2293,8.2293,8.2293,8.2293,8.2293,8.2293,8.2293,8.2293,8.2293,8.2293,8.2293,8.2293,8.2293,8.2293,8.2293,8.2293,8.2293,8.2293,8.2293,8.2293,8.2293,8.2293,0.0,0.0,0.0,5.4186,0.0,0.0,0.0,0.0,5.2429,0.0,0.0,0.0,0.0,5.1414,5.1414,5.1414,5.1414,0.0,0.0,5.1414,5.1765,5.2624,0.0,0.0,0.0,5.4878,5.5742,0.0,5.75,5.8672,6.0312,6.043,6.0859,6.1719,6.2578,6.3476,6.4336,6.5195,6.6055,6.6914,6.6914,6.7344,6.8242,6.9101,6.9922,7.0742,7.1601,7.1992,7.1992,7.1992,7.1992,7.1992,7.1992,7.1992,7.1992,7.1992,7.3086,7.4609,7.4609,7.5742,7.7187,7.7187,7.7187,7.7187,7.7187,7.7187,7.7187,7.7187,7.7187,7.7187,7.7187,7.7187,7.7187,7.7187,7.7187,7.7187,7.7187,7.7187,7.7187,7.7187,7.7226,7.7499,7.8272,7.9851,8.1005,8.1044,8.1747,8.2293,8.2293,8.2293,8.2293,8.2293,8.2293,8.2293,8.2293,8.2293,8.2293,8.2293,8.2293,8.2293,8.2293,8.2293,8.2293,8.2293,8.2293,8.2293,8.2293,8.2293,8.2293,8.2293,8.2293,8.2293,0.0,0.0,5.6748,5.585,0.0,0.0,0.0,0.0,0.0,0.0,0.0,0.0,0.0,5.1414,5.1414,5.1414,5.1414,5.1414,0.0,5.1414,5.1492,5.1804,0.0,0.0,0.0,0.0,0.0,0.0,5.6562,0.0,5.8672,5.9805,6.0547,6.082,6.2226,6.3437,6.4297,6.5156,6.6055,6.6914,6.6914,6.7031,6.7383,6.8828,6.9609,6.9922,7.1367,7.1992,7.1992,7.1992,7.1992,7.1992,7.1992,7.1992,7.1992,7.1992,7.3086,7.4765,7.5937,7.6719,7.7187,7.7187,7.7187,7.7187,7.7187,7.7187,7.7187,7.7187,7.7187,7.7187,7.7187,7.7187,7.7187,7.7187,7.7187,7.7187,7.7187,7.7187,7.7187,7.7187,7.7187,7.7265,7.7491,7.8528,7.9678,8.081,8.1239,8.1669,8.2215,8.2293,8.2293,8.2293,8.2293,8.2293,8.2293,8.2293,8.2293,8.2293,8.2293,8.2293,8.2293,8.2293,8.2293,8.2293,8.2293,8.2293,8.2293,8.2293,8.2293,8.2293,8.2293,8.2293,5.9567,5.8949,0.0,5.7551,5.6782,0.0,5.5075,0.0,0.0,0.0,0.0,0.0,0.0,5.1609,5.1414,5.1414,5.1414,5.1414,0.0,5.1141,5.1063,5.1375,0.0,0.0,0.0,0.0,0.0,0.0,0.0,0.0,0.0,5.9062,6.0117,6.039,6.1797,6.3125,6.4297,6.4844,6.5742,6.6914,6.6914,6.6914,6.6953,6.8672,6.9453,6.9492,7.125,7.1992,7.1992,7.1992,7.1992,7.1992,7.1992,7.1992,7.1992,7.1992,7.3086,7.4844,7.6601,7.7187,7.7187,7.7187,7.7187,7.7187,7.7187,7.7187,7.7187,7.7187,7.7187,7.7187,7.7187,7.7187,7.7187,7.7187,7.7187,7.7187,7.7187,7.7187,7.7187,7.7187,7.7187,7.7187,7.71,7.759,7.8546,8.0263,8.081,8.1317,8.2176,8.2293,8.2293,8.2293,8.2293,8.2293,8.2293,8.2293,8.2293,8.2293,8.2293,8.2293,8.2293,8.2293,8.2293,8.2293,8.2293,8.2293,8.2293,8.2293,8.2293,8.2293,8.2293,8.2293]},{"header":{"parameterUnit":"m.s-1","parameterCategory":1,"la1":30.6,"la2":29.2853,"lo1":-89.7004,"lo2":-87.6739,"dy":0.0162,"dx":0.0183,"nx":112,"ny":82,"refTime":"2024-03-22T00:00:00:Z","depth":0,"parameterNumber":3,"parameterNumberName":"V-component_of_WINDS"},"data":[0.0,0.0,0.0,0.0,0.0,0.0,0.0,0.0,0.0,0.0,0.0,0.0,0.0,0.0,0.0,0.0,0.0,0.0,0.0,0.0,0.0,0.0,0.0,0.0,0.0,0.0,0.0,0.0,0.0,0.0,0.0,0.0,0.0,0.0,0.0,0.0,0.0,0.0,0.0,0.0,0.0,0.0,0.0,0.0,0.0,0.0,0.0,0.0,0.0,0.0,0.0,0.0,0.0,0.0,0.0,0.0,0.0,0.0,0.0,0.0,0.0,0.0,0.0,0.0,0.0,0.0,0.0,0.0,0.0,0.0,0.0,0.0,0.0,0.0,0.0,0.0,0.0,0.0,0.0,0.0,0.0,0.0,0.0,0.0,0.0,0.0,0.0,0.0,0.0,0.0,-0.5122,-0.5159,-0.525,-0.5315,-0.5315,-0.5218,-0.5143,-0.5111,0.0,0.0,0.0,0.0,0.0,0.0,0.0,0.0,0.0,0.0,0.0,0.0,0.0,0.0,0.0,0.0,0.0,0.0,0.0,0.0,0.0,0.0,0.0,0.0,0.0,0.0,0.0,0.0,0.0,0.0,0.0,0.0,0.0,0.0,0.0,0.0,0.0,0.0,0.0,0.0,0.0,0.0,0.0,0.0,0.0,0.0,0.0,0.0,0.0,0.0,0.0,0.0,0.0,0.0,0.0,0.0,0.0,0.0,0.0,0.0,0.0,0.0,0.0,0.0,0.0,0.0,0.0,0.0,0.0,0.0,0.0,0.0,0.0,0.0,0.0,0.0,0.0,0.0,0.0,0.0,0.0,0.0,0.0,0.0,0.0,0.0,0.0,0.0,0.0,0.0,0.0,0.0,0.0,0.0,0.0,0.0,0.0,0.0,0.0,0.0,0.0,0.0,0.0,0.0,-0.4859,-0.4879,-0.4913,-0.4923,-0.4923,-0.4908,-0.4821,-0.4879,0.0,0.0,0.0,0.0,0.0,0.0,0.0,0.0,0.0,0.0,0.0,0.0,0.0,0.0,0.0,0.0,0.0,0.0,0.0,0.0,0.0,0.0,0.0,0.0,0.0,0.0,0.0,0.0,0.0,0.0,0.0,0.0,0.0,0.0,0.0,0.0,0.0,0.0,0.0,0.0,0.0,0.0,0.0,0.0,0.0,0.0,0.0,0.0,0.0,0.0,0.0,0.0,0.0,0.0,0.0,0.0,0.0,0.0,0.0,0.0,0.0,0.0,0.0,0.0,0.0,0.0,0.0,0.0,0.0,0.0,0.0,0.0,0.0,0.0,0.0,0.0,0.0,0.0,0.0,0.0,0.0,0.0,0.0,0.0,0.0,0.0,0.0,0.0,0.0,0.0,0.0,0.0,0.0,0.0,0.0,0.0,0.0,0.0,0.0,0.0,0.0,0.0,0.0,-0.4734,-0.486,-0.4927,-0.4941,-0.4941,-0.4941,-0.4807,-0.4794,-0.4724,-0.4644,0.0,0.0,0.0,0.0,0.0,0.0,0.0,0.0,0.0,0.0,0.0,0.0,0.0,0.0,0.0,0.0,0.0,0.0,0.0,0.0,0.0,0.0,0.0,0.0,0.0,0.0,0.0,0.0,0.0,0.0,0.0,0.0,0.0,0.0,0.0,0.0,0.0,0.0,0.0,0.0,0.0,0.0,0.0,0.0,0.0,0.0,0.0,0.0,0.0,0.0,0.0,0.0,0.0,0.0,0.0,0.0,0.0,0.0,0.0,0.0,0.0,0.0,0.0,0.0,0.0,0.0,0.0,0.0,0.0,0.0,0.0,0.0,0.0,0.0,0.0,0.0,0.0,0.0,0.0,0.0,0.0,0.0,0.0,0.0,0.0,0.0,0.0,0.0,0.0,0.0,0.0,0.0,0.0,0.0,0.0,0.0,0.0,0.0,0.0,0.0,0.0,0.0,-0.4623,-0.4724,-0.4821,-0.483,-0.483,-0.483,-0.4766,-0.4669,-0.4624,-0.454,0.0,0.0,0.0,0.0,0.0,0.0,0.0,0.0,0.0,0.0,0.0,0.0,0.0,0.0,0.0,0.0,0.0,0.0,0.0,0.0,0.0,0.0,0.0,0.0,0.0,0.0,0.0,0.0,0.0,0.0,0.0,0.0,0.0,0.0,0.0,0.0,0.0,0.0,0.0,0.0,0.0,0.0,0.0,0.0,0.0,0.0,0.0,0.0,0.0,0.0,0.0,0.0,0.0,0.0,0.0,0.0,0.0,0.0,0.0,0.0,0.0,0.0,0.0,0.0,0.0,0.0,0.0,0.0,0.0,0.0,0.0,0.0,0.0,0.0,0.0,0.0,0.0,0.0,0.0,0.0,0.0,0.0,0.0,0.0,0.0,0.0,0.0,0.0,0.0,0.0,0.0,0.0,0.0,0.0,0.0,0.0,0.0,0.0,0.0,0.0,0.0,0.0,-0.4282,-0.4293,-0.438,-0.4389,-0.4389,-0.4389,-0.438,-0.4301,-0.4294,-0.4356,0.0,0.0,0.0,0.0,0.0,0.0,0.0,0.0,0.0,0.0,0.0,0.0,0.0,0.0,0.0,0.0,0.0,0.0,0.0,0.0,0.0,0.0,0.0,0.0,0.0,0.0,0.0,0.0,0.0,0.0,0.0,0.0,0.0,0.0,0.0,0.0,0.0,0.0,0.0,0.0,0.0,0.0,0.0,0.0,0.0,0.0,0.0,0.0,0.0,0.0,0.0,0.0,0.0,0.0,0.0,0.0,0.0,0.0,0.0,0.0,0.0,0.0,0.0,0.0,0.0,0.0,0.0,0.0,0.0,0.0,0.0,0.0,0.0,0.0,0.0,0.0,0.0,0.0,0.0,0.0,0.0,0.0,0.0,0.0,0.0,0.0,0.0,0.0,0.0,0.0,0.0,0.0,0.0,0.0,0.0,0.0,0.0,0.0,0.0,0.0,0.0,0.0,-0.4285,-0.4283,0.0,-0.4332,-0.432,-0.4377,-0.4332,-0.4246,-0.4214,0.0,0.0,0.0,0.0,0.0,0.0,0.0,0.0,0.0,0.0,0.0,0.0,0.0,0.0,0.0,0.0,0.0,0.0,0.0,0.0,0.0,0.0,0.0,0.0,0.0,0.0,0.0,0.0,0.0,0.0,0.0,0.0,0.0,0.0,0.0,0.0,0.0,0.0,0.0,0.0,0.0,0.0,0.0,0.0,0.0,0.0,0.0,0.0,0.0,0.0,0.0,0.0,0.0,0.0,0.0,0.0,0.0,0.0,0.0,0.0,0.0,0.0,0.0,0.0,0.0,0.0,0.0,0.0,0.0,0.0,0.0,0.0,0.0,0.0,0.0,0.0,0.0,0.0,0.0,0.0,0.0,0.0,0.0,0.0,0.0,0.0,0.0,0.0,0.0,0.0,0.0,0.0,0.0,0.0,0.0,0.0,0.0,0.0,0.0,0.0,0.0,0.0,-0.4165,-0.4271,-0.4365,0.0,-0.4406,-0.4398,-0.443,-0.4377,-0.4295,-0.4181,0.0,0.0,0.0,0.0,0.0,0.0,0.0,0.0,0.0,0.0,0.0,0.0,0.0,0.0,0.0,0.0,0.0,0.0,0.0,0.0,0.0,0.0,0.0,0.0,0.0,0.0,0.0,0.0,0.0,0.0,0.0,0.0,0.0,0.0,0.0,0.0,0.0,0.0,0.0,0.0,0.0,0.0,0.0,0.0,0.0,0.0,0.0,0.0,0.0,0.0,0.0,0.0,0.0,0.0,0.0,0.0,0.0,0.0,0.0,0.0,0.0,0.0,0.0,0.0,0.0,0.0,0.0,0.0,0.0,0.0,0.0,0.0,0.0,0.0,0.0,0.0,0.0,0.0,0.0,0.0,0.0,0.0,0.0,0.0,0.0,0.0,0.0,0.0,0.0,0.0,0.0,0.0,0.0,0.0,0.0,0.0,0.0,0.0,0.0,0.0,0.0,0.0,-0.4177,-0.4328,-0.4434,-0.4438,-0.452,-0.4536,-0.4447,-0.4434,-0.4361,0.0,0.0,0.0,0.0,0.0,0.0,0.0,0.0,0.0,0.0,0.0,0.0,0.0,0.0,0.0,0.0,0.0,0.0,0.0,0.0,0.0,0.0,0.0,0.0,0.0,0.0,0.0,0.0,0.0,0.0,0.0,0.0,0.0,0.0,0.0,0.0,0.0,0.0,0.0,0.0,0.0,0.0,0.0,0.0,0.0,0.0,0.0,0.0,0.0,0.0,0.0,0.0,0.0,0.0,0.0,0.0,0.0,0.0,0.0,0.0,0.0,0.0,0.0,0.0,0.0,0.0,0.0,0.0,0.0,0.0,0.0,0.0,0.0,0.0,0.0,0.0,0.0,0.0,0.0,0.0,0.0,0.0,0.0,0.0,0.0,0.0,0.0,0.0,0.0,0.0,0.0,0.0,0.0,0.0,0.0,0.0,0.0,0.0,0.0,0.0,0.0,0.0,0.0,-0.434,-0.4402,-0.4483,-0.4614,-0.4594,-0.4585,-0.4626,-0.4508,-0.4414,-0.4361,0.0,0.0,0.0,0.0,0.0,0.0,0.0,0.0,0.0,0.0,0.0,0.0,0.0,0.0,0.0,0.0,0.0,0.0,0.0,0.0,0.0,0.0,0.0,0.0,0.0,0.0,0.0,0.0,0.0,0.0,0.0,0.0,0.0,0.0,0.0,0.0,0.0,0.0,0.0,0.0,0.0,0.0,0.0,0.0,0.0,0.0,0.0,0.0,0.0,0.0,0.0,0.0,0.0,0.0,0.0,0.0,0.0,0.0,0.0,0.0,0.0,0.0,0.0,0.0,0.0,0.0,0.0,0.0,0.0,0.0,0.0,0.0,0.0,0.0,0.0,0.0,0.0,0.0,0.0,0.0,0.0,0.0,0.0,0.0,0.0,0.0,0.0,0.0,0.0,0.0,0.0,0.0,0.0,0.0,0.0,0.0,0.0,0.0,0.0,0.0,0.0,0.0,-0.4193,-0.4145,-0.4201,-0.4403,-0.4395,-0.4392,-0.4411,-0.4319,-0.4231,-0.4254,0.0,0.0,0.0,0.0,0.0,0.0,0.0,0.0,0.0,0.0,0.0,0.0,0.0,0.0,0.0,0.0,0.0,0.0,0.0,0.0,0.0,0.0,0.0,0.0,0.0,0.0,0.0,0.0,0.0,0.0,0.0,0.0,0.0,0.0,0.0,0.0,0.0,0.0,0.0,0.0,0.0,0.0,0.0,0.0,0.0,0.0,0.0,0.0,0.0,0.0,0.0,0.0,0.0,0.0,0.0,0.0,0.0,0.0,0.0,0.0,0.0,0.0,0.0,0.0,0.0,0.0,0.0,0.0,0.0,0.0,0.0,0.0,0.0,0.0,0.0,0.0,0.0,0.0,0.0,0.0,0.0,0.0,0.0,0.0,0.0,0.0,0.0,0.0,0.0,0.0,0.0,0.0,0.0,0.0,0.0,0.0,0.0,0.0,0.0,0.0,0.0,0.0,-0.3813,-0.3881,-0.3922,-0.3929,-0.3993,-0.4004,-0.3936,-0.3925,-0.3953,-0.3992,0.0,0.0,0.0,0.0,0.0,0.0,0.0,0.0,0.0,0.0,0.0,0.0,0.0,0.0,0.0,0.0,0.0,0.0,0.0,0.0,0.0,0.0,0.0,0.0,0.0,0.0,0.0,0.0,0.0,0.0,0.0,0.0,0.0,0.0,0.0,0.0,0.0,0.0,0.0,0.0,0.0,0.0,0.0,0.0,0.0,0.0,0.0,0.0,0.0,0.0,0.0,0.0,0.0,0.0,0.0,0.0,0.0,0.0,0.0,0.0,-0.3769,0.0,0.0,0.0,0.0,0.0,0.0,0.0,0.0,0.0,0.0,0.0,0.0,0.0,0.0,0.0,0.0,0.0,0.0,0.0,0.0,0.0,0.0,0.0,0.0,0.0,0.0,0.0,0.0,0.0,0.0,0.0,0.0,0.0,0.0,0.0,0.0,0.0,0.0,0.0,0.0,0.0,-0.3888,-0.3908,-0.3942,-0.4004,-0.4024,-0.4028,-0.4011,-0.3953,-0.3881,-0.3887,-0.381,0.0,0.0,0.0,0.0,0.0,0.0,0.0,0.0,0.0,0.0,0.0,0.0,0.0,0.0,0.0,0.0,0.0,0.0,0.0,0.0,0.0,0.0,0.0,0.0,0.0,0.0,0.0,0.0,0.0,0.0,0.0,0.0,0.0,0.0,0.0,0.0,0.0,0.0,0.0,0.0,0.0,0.0,0.0,0.0,0.0,0.0,0.0,0.0,0.0,0.0,0.0,0.0,0.0,0.0,0.0,0.0,0.0,0.0,0.0,0.0,-0.3895,0.0,0.0,0.0,0.0,0.0,0.0,0.0,0.0,0.0,0.0,0.0,0.0,0.0,0.0,0.0,0.0,0.0,0.0,0.0,0.0,0.0,0.0,0.0,0.0,0.0,0.0,0.0,0.0,0.0,0.0,0.0,0.0,0.0,0.0,0.0,0.0,0.0,0.0,0.0,0.0,-0.3616,-0.3629,-0.3653,-0.3724,-0.373,-0.3718,-0.3684,-0.3647,-0.3586,-0.3681,-0.3607,0.0,0.0,0.0,0.0,0.0,0.0,0.0,0.0,0.0,0.0,0.0,0.0,0.0,0.0,0.0,0.0,0.0,0.0,0.0,0.0,0.0,0.0,0.0,0.0,0.0,0.0,0.0,0.0,0.0,0.0,0.0,0.0,0.0,0.0,0.0,0.0,0.0,0.0,0.0,0.0,0.0,0.0,0.0,0.0,0.0,0.0,0.0,0.0,0.0,0.0,0.0,0.0,0.0,-0.437,-0.441,-0.4321,-0.4201,-0.4135,-0.412,-0.4036,-0.3984,-0.3957,-0.3957,0.0,0.0,0.0,0.0,0.0,0.0,0.0,0.0,0.0,0.0,0.0,0.0,0.0,0.0,0.0,0.0,0.0,0.0,0.0,0.0,0.0,0.0,0.0,0.0,-0.3597,-0.3581,-0.3351,0.0,0.0,0.0,0.0,0.0,0.0,0.0,0.0,0.0,0.0,0.0,-0.3324,-0.3338,-0.3357,-0.3406,-0.3412,-0.3392,-0.3341,-0.3327,-0.3377,-0.346,-0.3391,-0.3387,0.0,0.0,0.0,0.0,0.0,0.0,0.0,0.0,0.0,0.0,0.0,0.0,0.0,0.0,0.0,0.0,0.0,0.0,0.0,0.0,0.0,0.0,0.0,0.0,0.0,0.0,0.0,0.0,0.0,0.0,0.0,0.0,-0.3177,-0.3189,0.0,0.0,0.0,0.0,0.0,0.0,0.0,0.0,0.0,0.0,0.0,0.0,0.0,-0.4426,-0.452,-0.4598,-0.4546,-0.4264,-0.435,-0.4288,-0.399,-0.3897,-0.3904,-0.3901,-0.3963,0.0,-0.3849,-0.3849,0.0,0.0,0.0,0.0,0.0,0.0,0.0,0.0,0.0,0.0,0.0,0.0,0.0,0.0,0.0,0.0,0.0,0.0,0.0,0.0,0.0,0.0,-0.3147,-0.32,-0.322,-0.3231,0.0,-0.3274,-0.3393,-0.3402,-0.3317,0.0,0.0,0.0,0.0,0.0,0.0,0.0,-0.3398,-0.3401,-0.3403,-0.3412,-0.3412,-0.3409,-0.3401,-0.3352,-0.3292,-0.3224,-0.3161,-0.317,-0.3322,-0.3249,0.0,0.0,0.0,0.0,0.0,0.0,0.0,0.0,0.0,0.0,0.0,0.0,0.0,0.0,0.0,0.0,0.0,0.0,0.0,0.0,0.0,0.0,0.0,0.0,0.0,0.0,0.0,0.0,0.0,-0.3242,-0.3397,-0.3446,-0.3569,-0.3667,0.0,0.0,0.0,0.0,0.0,0.0,0.0,0.0,0.0,-0.4524,-0.4375,-0.4365,-0.4499,-0.4437,-0.4275,-0.4215,-0.4295,-0.4225,-0.412,-0.4053,-0.3966,-0.3966,-0.3752,-0.3719,-0.3656,-0.3807,-0.3743,-0.3641,0.0,0.0,0.0,0.0,-0.3361,-0.3361,-0.3361,-0.3361,-0.3361,-0.3361,0.0,0.0,0.0,0.0,0.0,0.0,0.0,0.0,0.0,0.0,-0.3259,-0.3286,-0.3292,-0.33,-0.3327,-0.3394,-0.3344,0.0,-0.333,-0.3253,-0.3253,0.0,0.0,0.0,0.0,-0.3422,-0.3455,-0.3461,-0.3471,-0.3507,-0.3512,-0.3496,-0.3463,-0.3436,-0.3382,-0.3286,-0.3224,-0.3153,-0.3158,-0.3155,-0.3162,0.0,0.0,0.0,0.0,0.0,0.0,0.0,0.0,0.0,0.0,0.0,0.0,0.0,0.0,0.0,0.0,0.0,0.0,0.0,0.0,0.0,0.0,0.0,0.0,0.0,0.0,0.0,0.0,-0.3467,-0.3597,-0.3687,-0.3777,-0.3871,0.0,0.0,0.0,0.0,0.0,0.0,-0.4402,-0.436,-0.4346,-0.4575,-0.4418,-0.4398,-0.4414,-0.4242,-0.4183,-0.4131,-0.4202,-0.4237,-0.4126,-0.4067,-0.3975,-0.3975,-0.3748,-0.3635,-0.3619,-0.3725,-0.3736,-0.3632,-0.3615,-0.3403,-0.3297,-0.3283,-0.3278,-0.3278,-0.3278,-0.3278,-0.3278,-0.3278,-0.3278,-0.3278,-0.3278,0.0,0.0,0.0,0.0,-0.3263,-0.3263,-0.3199,-0.3245,-0.326,-0.3265,-0.3268,-0.328,-0.3283,-0.3255,0.0,-0.3382,-0.3412,-0.3412,0.0,0.0,0.0,0.0,-0.3262,-0.3316,-0.3321,-0.3456,-0.3514,-0.3619,-0.3591,-0.3548,-0.3515,-0.3461,-0.3371,-0.3294,-0.3226,-0.3166,-0.306,-0.3063,-0.3165,0.0,0.0,0.0,0.0,0.0,0.0,0.0,0.0,0.0,0.0,0.0,0.0,0.0,0.0,0.0,0.0,0.0,0.0,0.0,0.0,0.0,0.0,0.0,0.0,0.0,0.0,0.0,0.0,0.0,-0.3875,-0.3965,0.0,0.0,0.0,0.0,-0.4414,-0.4296,-0.4294,-0.4302,-0.4149,-0.4126,-0.4136,-0.4276,-0.4354,-0.4361,-0.4389,-0.4347,-0.4125,-0.419,-0.4103,-0.3872,-0.3758,-0.376,-0.376,-0.376,-0.376,-0.3749,-0.3621,-0.357,-0.3564,-0.3507,-0.3482,-0.3477,-0.3422,-0.3403,-0.3403,-0.3403,-0.3403,-0.3403,-0.3403,-0.3403,-0.3403,-0.3403,-0.3403,0.0,0.0,-0.3232,-0.3057,-0.3057,-0.2874,-0.2699,-0.2741,-0.2752,-0.2762,-0.2803,-0.2811,-0.299,0.0,-0.3412,-0.3412,-0.3412,0.0,-0.3169,-0.3169,-0.2881,-0.2703,-0.275,-0.2981,-0.3229,-0.3284,-0.3593,-0.3673,-0.367,-0.3564,-0.3493,-0.3488,-0.3382,-0.3289,-0.3229,-0.3164,-0.3074,-0.3049,-0.299,0.0,0.0,0.0,0.0,0.0,0.0,0.0,0.0,0.0,0.0,0.0,0.0,0.0,0.0,0.0,0.0,0.0,0.0,0.0,0.0,0.0,0.0,0.0,0.0,0.0,0.0,0.0,0.0,-0.389,-0.3974,0.0,-0.3963,-0.404,-0.4021,-0.4103,-0.421,-0.4212,-0.4313,-0.4262,-0.4229,-0.4319,-0.4267,-0.4199,-0.4243,-0.4103,-0.4033,-0.3917,-0.4015,-0.406,-0.394,-0.3981,-0.3997,-0.3997,-0.3997,-0.3997,-0.3995,-0.3951,-0.3842,-0.3703,-0.3681,-0.3673,-0.367,-0.3649,-0.3527,-0.33,-0.33,-0.3186,-0.2956,-0.2956,-0.2956,-0.2956,-0.2956,-0.2956,-0.2956,-0.2956,-0.297,-0.2868,-0.2868,-0.2766,-0.2782,-0.2799,-0.2803,-0.2807,-0.2821,-0.2825,-0.2807,-0.2972,-0.2956,-0.2956,-0.2956,-0.2972,-0.2868,-0.2868,-0.2883,-0.2784,-0.2801,-0.2917,-0.2924,-0.2941,-0.3045,-0.3139,-0.3109,-0.2959,-0.3024,-0.3285,-0.3245,-0.3181,-0.3294,-0.3232,-0.3158,-0.3076,-0.3016,-0.3029,0.0,0.0,0.0,0.0,0.0,0.0,0.0,0.0,0.0,0.0,0.0,0.0,0.0,0.0,0.0,0.0,0.0,0.0,0.0,0.0,0.0,0.0,0.0,0.0,0.0,0.0,-0.3901,-0.3835,-0.3914,-0.3898,-0.3881,-0.3953,-0.4038,-0.414,-0.4113,-0.4102,-0.4221,-0.4139,-0.4202,-0.4318,-0.4112,-0.4035,-0.4096,-0.4041,-0.3948,-0.3951,-0.4027,-0.4065,-0.4065,-0.4106,-0.4125,-0.4125,-0.3997,-0.3868,-0.3868,-0.3868,-0.3655,-0.3524,-0.3628,-0.362,-0.3495,-0.3477,-0.3351,-0.3111,-0.3111,-0.299,-0.287,-0.287,-0.287,-0.287,-0.287,-0.287,-0.287,-0.287,-0.2763,-0.2652,-0.2652,-0.2663,-0.2551,-0.2551,-0.2551,-0.2551,-0.2551,-0.2551,-0.2548,-0.2533,-0.2618,-0.2825,-0.2825,-0.2708,-0.259,-0.259,-0.259,-0.2478,-0.249,-0.2611,-0.2616,-0.2749,-0.2737,-0.2836,-0.2809,-0.2778,-0.2735,-0.2899,-0.2973,-0.3033,-0.3173,-0.3099,-0.3131,-0.3172,-0.309,-0.3011,-0.2932,0.0,0.0,0.0,0.0,0.0,0.0,0.0,0.0,0.0,0.0,0.0,0.0,0.0,0.0,0.0,0.0,0.0,0.0,0.0,0.0,0.0,0.0,0.0,-0.3502,-0.3506,-0.3565,-0.3803,-0.3885,-0.3959,-0.3937,-0.401,-0.4113,-0.4259,-0.4117,-0.4073,-0.4144,-0.3861,-0.3804,-0.3867,-0.3927,-0.3981,-0.4036,-0.4101,-0.4131,-0.4131,-0.4134,-0.4136,-0.4136,-0.4136,-0.4136,-0.4007,-0.3749,-0.3618,-0.3618,-0.3235,-0.3105,-0.3101,-0.3433,-0.3284,-0.3026,-0.2981,-0.2841,-0.2841,-0.2841,-0.2841,-0.2841,-0.2841,-0.2841,-0.2841,-0.2841,-0.2841,-0.2841,-0.2841,-0.2747,-0.2525,-0.2525,-0.2297,-0.2064,-0.2064,-0.2064,-0.2064,-0.2064,-0.2064,-0.2056,-0.2026,-0.2437,-0.2833,-0.2829,-0.2478,-0.2244,-0.2244,-0.2124,0.0,-0.1929,-0.2172,-0.2426,-0.2462,-0.2678,-0.2895,-0.2893,-0.2698,-0.2649,-0.2647,-0.2678,-0.2738,-0.3064,-0.2964,-0.2988,-0.3237,-0.312,-0.3153,-0.315,0.0,0.0,0.0,0.0,0.0,0.0,0.0,0.0,0.0,0.0,0.0,0.0,0.0,0.0,0.0,0.0,0.0,0.0,0.0,0.0,0.0,-0.3155,-0.332,-0.35,-0.3711,-0.3828,-0.3676,-0.3783,-0.3776,-0.363,-0.3694,-0.3766,-0.385,-0.3914,-0.3883,-0.3993,-0.3891,-0.3948,-0.4049,-0.4068,-0.4085,-0.4101,-0.4204,-0.4259,-0.4259,-0.4343,-0.4247,-0.3976,-0.3976,-0.3839,-0.3563,-0.3426,-0.3426,-0.3426,-0.3291,-0.3154,-0.2866,-0.3134,-0.3207,-0.3077,-0.3065,-0.2933,-0.2676,-0.2422,-0.2294,-0.2294,-0.2294,-0.2294,-0.2294,-0.2294,-0.2294,-0.2294,-0.2294,-0.23,-0.218,-0.218,-0.2186,-0.2064,-0.2064,-0.2064,-0.2064,-0.2064,-0.2064,-0.2061,-0.2053,-0.2158,-0.2251,-0.2204,-0.2195,-0.2074,-0.2074,-0.2074,0.0,-0.1963,-0.2086,-0.209,-0.2099,-0.2214,-0.2199,-0.2175,-0.2155,-0.2242,-0.2421,-0.2395,-0.247,-0.2738,-0.2711,-0.2781,-0.3048,-0.3184,-0.3226,0.0,0.0,0.0,0.0,0.0,0.0,0.0,0.0,0.0,0.0,0.0,0.0,0.0,0.0,0.0,0.0,0.0,0.0,0.0,0.0,0.0,0.0,-0.3109,-0.3279,-0.3483,-0.3635,-0.3696,-0.3546,-0.3639,-0.3726,-0.3567,-0.3627,-0.37,-0.3785,-0.3826,-0.3897,-0.4016,-0.4025,-0.4065,-0.4161,-0.4188,-0.4213,-0.424,-0.4333,-0.4245,-0.4111,-0.4175,-0.4065,-0.3645,-0.3645,-0.3505,-0.3225,-0.3083,-0.3083,-0.3083,-0.2945,-0.2664,0.0,0.0,0.0,0.0,0.0,-0.2541,-0.2406,-0.2258,-0.2121,-0.2119,-0.2106,-0.2102,-0.2102,-0.2102,-0.2102,-0.2102,-0.2102,-0.2102,-0.2102,-0.2102,-0.2102,-0.2102,-0.2102,-0.2102,-0.2102,-0.2102,-0.2102,-0.2098,-0.2086,-0.2083,0.0,-0.2022,-0.2014,-0.2014,-0.2014,-0.2003,-0.1994,-0.1994,-0.1984,-0.1977,-0.1977,-0.1977,-0.1969,-0.1952,-0.1939,0.0,0.0,0.0,-0.2176,-0.2436,-0.2525,0.0,0.0,0.0,-0.3236,-0.3308,0.0,0.0,0.0,-0.3123,-0.3115,0.0,0.0,0.0,0.0,0.0,0.0,0.0,0.0,0.0,0.0,0.0,0.0,0.0,0.0,0.0,0.0,-0.3253,-0.3324,-0.3485,-0.3428,-0.3409,-0.3504,-0.357,-0.3635,-0.3703,-0.3758,-0.3839,-0.3962,-0.397,-0.4022,-0.4139,0.0,0.0,0.0,0.0,-0.4218,-0.4409,-0.4324,-0.4213,-0.3794,-0.3801,-0.3663,-0.3239,-0.3239,-0.3239,-0.3239,-0.2817,-0.2674,-0.2676,-0.2396,-0.2255,-0.2255,-0.2527,-0.2524,-0.2245,-0.2245,-0.2245,-0.2241,-0.2214,0.0,0.0,-0.2173,-0.2165,-0.2165,-0.2165,-0.2165,-0.2165,-0.2165,-0.2165,-0.2165,-0.2165,-0.2162,-0.2159,-0.2159,-0.2157,-0.2155,-0.2155,-0.2154,-0.2013,-0.212,-0.2114,-0.2238,-0.2079,-0.2068,-0.2064,-0.2064,-0.2041,-0.2023,-0.2023,-0.1999,-0.1981,-0.1981,0.0,0.0,-0.1977,-0.1952,-0.1934,-0.1932,-0.1903,-0.1979,-0.2146,-0.2448,-0.2629,-0.2914,-0.3014,-0.3119,-0.3334,-0.3436,-0.3436,-0.3439,-0.3256,-0.3229,0.0,0.0,0.0,0.0,0.0,0.0,0.0,0.0,0.0,0.0,0.0,0.0,0.0,0.0,0.0,-0.3226,-0.3392,-0.3531,-0.3564,-0.3635,-0.3673,-0.3646,-0.3698,-0.3777,-0.3888,-0.3907,-0.3965,-0.4082,-0.4093,-0.4145,-0.4264,-0.4273,-0.4322,-0.4428,-0.4167,-0.4041,-0.405,-0.3681,-0.3563,-0.3563,0.0,0.0,-0.304,-0.304,-0.275,-0.2459,-0.2459,-0.2459,-0.2459,-0.2316,-0.2316,-0.2311,-0.2263,-0.2245,-0.2245,-0.2245,-0.2245,-0.2245,-0.2238,-0.2237,-0.2236,-0.223,-0.2228,-0.2228,-0.2228,-0.2228,0.0,-0.2228,-0.2228,-0.2228,-0.2228,-0.221,-0.2191,-0.2191,-0.2173,-0.2155,-0.2155,-0.175,-0.1346,-0.1341,-0.1744,-0.2144,-0.2138,-0.2097,-0.2064,-0.2064,-0.2059,-0.2056,-0.2056,-0.2029,-0.2011,-0.2011,-0.199,-0.1977,-0.1977,-0.1971,-0.1958,-0.1933,-0.1903,-0.188,-0.1986,-0.2213,-0.2438,-0.2429,-0.2968,-0.3172,-0.3285,-0.3466,-0.3578,-0.3621,-0.3444,-0.3373,0.0,0.0,0.0,0.0,0.0,0.0,0.0,0.0,0.0,0.0,0.0,-0.3071,-0.3128,0.0,-0.3341,-0.3401,-0.351,-0.3619,-0.3711,-0.3804,-0.3847,-0.3818,-0.3842,-0.3907,-0.4027,-0.4038,-0.4087,-0.4207,-0.4215,-0.4137,-0.4116,-0.4123,-0.4008,-0.3923,-0.367,-0.3683,-0.3683,-0.3467,-0.3354,-0.3209,-0.3252,-0.2973,-0.2676,-0.2676,-0.2528,-0.2378,-0.2378,-0.2378,-0.2378,-0.2378,-0.2378,-0.2373,-0.233,-0.2303,-0.2289,-0.2289,-0.2289,-0.2288,-0.2273,-0.2268,-0.2266,-0.2251,-0.2245,-0.2245,-0.2245,-0.1965,-0.1684,-0.1684,-0.1684,-0.1684,-0.1684,-0.1675,-0.1667,-0.1667,-0.1649,-0.1769,-0.2177,-0.1894,-0.1481,-0.0673,-0.1481,-0.2019,-0.175,-0.1597,-0.1714,-0.2109,-0.2097,-0.2087,-0.2087,-0.206,-0.2041,-0.2041,-0.2015,-0.1997,-0.1997,-0.1985,-0.197,-0.1955,-0.1925,-0.1909,-0.1909,-0.2012,-0.2122,-0.224,-0.2571,-0.2909,-0.3258,-0.3347,-0.3577,-0.3722,-0.3632,-0.3591,0.0,0.0,0.0,0.0,0.0,0.0,0.0,-0.2424,-0.2561,-0.281,-0.2933,-0.3035,-0.3058,-0.3155,-0.326,-0.3349,-0.339,-0.3464,-0.3733,-0.3684,-0.3727,-0.375,-0.3867,-0.3902,-0.4005,-0.4023,-0.4076,-0.4047,-0.4065,-0.3979,-0.3797,-0.3801,-0.3665,-0.3392,-0.3292,-0.3315,-0.3315,-0.3246,-0.3134,-0.2836,-0.2864,-0.2727,-0.2424,-0.2424,-0.2424,-0.2424,-0.2424,-0.2424,-0.2424,-0.2424,-0.2424,-0.2421,-0.2397,-0.2224,-0.2055,-0.2192,-0.2334,-0.233,-0.2164,-0.2156,-0.2009,-0.1987,-0.198,-0.198,-0.2122,-0.1839,-0.1272,-0.099,-0.0848,-0.0848,-0.0848,-0.0847,-0.0845,-0.0845,-0.0837,-0.1104,-0.1657,-0.1775,-0.1487,-0.027,-0.0944,-0.1616,-0.1212,-0.1077,-0.1346,-0.1885,-0.2,-0.1985,-0.1985,-0.1961,-0.1943,-0.2072,-0.2045,-0.2024,-0.2019,-0.1997,-0.1982,-0.1977,-0.1954,-0.194,-0.194,-0.1917,-0.2022,-0.2261,-0.2253,-0.2607,-0.3208,-0.3327,-0.3453,-0.382,-0.3834,-0.382,-0.1348,-0.1366,-0.1479,-0.1685,-0.1808,-0.1934,0.0,-0.2271,-0.2298,-0.2481,-0.2511,-0.2547,-0.2527,-0.2617,-0.2682,-0.2692,-0.2909,-0.3011,-0.3069,-0.3118,-0.3179,-0.3134,-0.3752,-0.4002,-0.3806,-0.3723,-0.364,-0.3422,-0.3465,-0.3371,-0.3422,-0.3424,-0.3445,-0.3484,-0.3235,-0.3109,-0.3109,-0.2702,-0.257,-0.2418,-0.2421,-0.2424,-0.2424,-0.2424,-0.2424,-0.2424,-0.2424,-0.2424,-0.2424,-0.2424,-0.2424,-0.2423,-0.242,-0.1963,-0.1354,-0.206,-0.2335,-0.2189,-0.1603,-0.1311,-0.1311,-0.1308,-0.1308,-0.1454,-0.2035,-0.218,-0.189,-0.0436,-0.0145,-0.0145,-0.0145,-0.0144,-0.0143,-0.0143,-0.0141,-0.014,-0.028,-0.0277,-0.0137,-0.0,-0.0136,-0.0404,-0.0943,-0.1077,-0.1077,-0.1212,-0.121,-0.1209,-0.1209,-0.1194,-0.1446,-0.2104,-0.2076,-0.2048,-0.202,-0.2016,-0.2003,-0.1978,-0.1974,-0.1971,-0.1971,-0.1969,-0.1966,-0.2089,-0.2302,-0.2542,-0.3069,-0.3316,-0.3707,-0.4006,-0.406,-0.4,-0.1452,-0.146,-0.1472,-0.1577,-0.1592,-0.171,-0.2059,-0.2073,-0.2195,-0.2379,-0.2523,-0.256,-0.2516,-0.2576,-0.2635,0.0,-0.2878,-0.2948,-0.2993,-0.3062,-0.3122,-0.3161,-0.3459,-0.3622,-0.3508,-0.3418,-0.3465,-0.3373,-0.3394,-0.3282,-0.318,-0.3205,-0.3081,-0.2802,-0.2687,-0.2705,-0.2705,-0.2587,-0.245,-0.245,-0.2467,-0.2476,-0.2476,-0.2476,-0.2476,-0.2476,-0.2476,-0.2476,-0.2476,-0.2476,-0.2166,-0.1856,-0.2303,-0.2297,-0.1986,-0.1802,-0.1939,-0.2238,-0.1939,-0.1188,-0.0443,-0.0443,-0.0441,-0.0584,-0.0876,-0.1022,-0.0876,-0.0146,0.0,0.0,0.0,0.0,0.0,0.0,0.0,0.0,0.0,0.0,0.0,0.0,0.0,-0.0136,-0.0404,-0.0404,-0.0404,-0.0404,-0.0404,-0.0404,-0.0404,-0.0402,-0.0798,-0.1451,-0.1573,-0.1688,-0.2048,-0.2045,-0.2039,-0.2029,-0.2027,-0.2027,-0.2027,-0.2027,-0.2027,-0.2027,-0.2139,-0.2391,-0.2787,-0.3167,-0.3431,-0.3832,-0.3986,-0.4104,-0.1525,-0.1538,-0.1551,-0.1551,-0.1564,-0.1587,-0.1834,-0.1949,-0.1967,-0.224,-0.2395,-0.2326,-0.2365,-0.2415,-0.2467,-0.2643,-0.2697,-0.2621,-0.2787,-0.2856,-0.2778,-0.28,-0.2997,-0.3044,-0.3057,-0.3083,-0.3115,-0.3145,-0.3158,-0.3036,-0.2783,-0.281,-0.2681,-0.239,-0.242,-0.2436,-0.2436,-0.2466,-0.2481,-0.2482,-0.2504,-0.2514,-0.2514,-0.2514,-0.2514,-0.2514,-0.2514,-0.2357,-0.22,-0.2357,-0.22,-0.1727,-0.2334,-0.2481,-0.2324,-0.1228,-0.1219,-0.1667,-0.1666,-0.0903,0.0,0.0,0.0,0.0,0.0,0.0,0.0,0.0,0.0,0.0,0.0,0.0,0.0,0.0,0.0,0.0,0.0,0.0,0.0,0.0,0.0,0.0,0.0,0.0,0.0,0.0,0.0,0.0,0.0,0.0,-0.0268,-0.0796,-0.0796,-0.1055,-0.1429,-0.1817,-0.2074,-0.2064,-0.2064,-0.2064,-0.2064,-0.2064,-0.2064,-0.2064,-0.2064,-0.2322,-0.258,-0.298,-0.3243,-0.3632,-0.4055,-0.4224,-0.1525,-0.1569,-0.1614,-0.1614,-0.1656,-0.1699,-0.1701,-0.1701,-0.1711,-0.1851,-0.1772,-0.1804,-0.1834,-0.1888,-0.1929,-0.193,-0.1979,-0.2027,-0.2059,-0.209,-0.2131,-0.2191,-0.2225,-0.2256,0.0,-0.2573,-0.2716,-0.229,-0.2316,-0.2345,-0.2375,-0.2378,-0.2391,-0.2421,-0.2451,-0.2467,-0.2467,-0.2497,-0.2512,-0.2512,-0.2514,-0.2514,-0.2514,-0.2514,-0.2514,-0.2514,-0.2514,-0.2043,-0.1414,-0.22,-0.2514,-0.2514,-0.2514,-0.2512,-0.2356,-0.0628,-0.0,-0.0,-0.0,-0.0,0.0,0.0,0.0,0.0,0.0,0.0,0.0,0.0,0.0,0.0,0.0,0.0,0.0,0.0,0.0,0.0,0.0,0.0,0.0,0.0,0.0,0.0,0.0,0.0,0.0,0.0,0.0,0.0,0.0,0.0,-0.0,-0.0,-0.0,-0.0,-0.0,-0.1317,-0.2226,-0.2065,-0.2064,-0.2064,-0.2064,-0.2064,-0.2064,-0.2064,-0.2064,-0.2322,-0.258,-0.3011,-0.3426,-0.3689,-0.42,-0.4392,-0.1617,-0.1645,-0.1675,-0.1675,-0.1689,-0.171,-0.173,-0.1734,-0.1744,-0.1774,-0.1804,-0.1835,-0.1865,-0.1903,-0.1944,-0.1982,-0.2023,-0.206,-0.209,-0.2138,-0.2177,-0.2198,-0.2245,0.0,0.0,0.0,0.0,-0.2348,-0.2357,-0.2376,-0.2406,-0.2428,-0.2443,-0.2454,-0.2484,-0.2499,-0.2499,-0.2508,-0.2514,-0.2514,-0.2514,-0.2514,-0.2514,-0.2514,-0.22,-0.1728,-0.22,-0.2357,-0.2043,-0.1256,-0.0785,-0.0785,-0.0785,-0.0785,-0.0785,-0.0157,0.0,0.0,0.0,0.0,0.0,0.0,0.0,0.0,0.0,0.0,0.0,0.0,0.0,0.0292,0.1314,0.146,0.146,0.0876,0.073,0.0584,0.0146,0.0,0.0,0.0,0.0,0.0,0.0,0.0,0.0,0.0,0.0,0.0,0.0,0.0,0.0,0.0,0.0,0.0,0.0,-0.0401,-0.12,-0.2124,-0.2124,-0.2124,-0.2124,-0.2124,-0.2124,-0.2124,-0.2124,-0.2257,-0.2389,-0.2694,-0.3117,-0.3388,-0.3866,-0.4177,-0.1678,-0.1699,-0.172,-0.172,-0.1729,-0.1742,-0.1761,-0.1765,-0.1771,-0.1791,-0.1828,-0.1862,-0.1883,-0.1919,-0.196,-0.1997,-0.2037,-0.2071,-0.209,-0.2154,-0.2204,-0.2215,-0.226,-0.2294,0.0,0.0,0.0,-0.2376,-0.2388,-0.2408,-0.2438,-0.2458,-0.2474,-0.2485,-0.2504,-0.2514,-0.2514,-0.2514,-0.2519,-0.253,-0.253,-0.2377,-0.2069,-0.2387,-0.2228,-0.175,-0.1584,-0.1581,-0.1581,-0.0472,0.0,0.0,0.0,0.0,0.0,0.0,0.0,0.0,0.0,0.0,0.0,0.0,0.0463,0.092,0.0916,0.0758,0.0452,0.045,0.0445,0.0588,0.1616,0.2051,0.2191,0.1752,0.1606,0.146,0.0876,0.0584,0.0437,0.0433,0.0431,0.0285,0.0,0.0,0.0,0.0,0.0,0.0,0.0,0.0,0.0,0.0,0.0,0.0,0.0,0.0,-0.0404,-0.1346,-0.1885,-0.2155,-0.2155,-0.2155,-0.2155,-0.2155,-0.2165,-0.217,-0.2172,-0.2614,-0.2907,-0.3322,-0.379,-0.4095,-0.171,-0.173,-0.1752,-0.1752,-0.1774,-0.1795,-0.1795,-0.1795,-0.1795,-0.1795,-0.1843,-0.1885,-0.1885,0.0,-0.1977,-0.1978,-0.2027,-0.2064,-0.2065,-0.2144,-0.2213,0.0,0.0,0.0,0.0,0.0,0.0,-0.2383,0.0,-0.2439,-0.247,-0.2472,-0.2485,-0.2514,-0.2514,-0.2515,-0.2517,-0.2518,-0.2533,-0.2562,-0.2562,-0.2094,-0.1465,-0.2116,-0.2442,-0.2277,-0.0644,0.0,0.0,0.0,0.0,0.0,0.0,0.0,0.0,0.0,0.0,0.0157,0.0157,0.0157,0.0157,0.0157,0.1099,0.2508,0.248,0.2007,0.1385,0.1369,0.1352,0.1338,0.1189,0.1768,0.2338,0.2337,0.2335,0.2335,0.2335,0.1752,0.1314,0.1314,0.13,0.1002,0.0143,0.0,0.0,0.0,0.0,0.0,0.0,0.0,0.0,0.0,0.0,0.0,0.0,0.0,0.0,0.0,-0.1346,-0.2155,-0.2157,-0.2157,-0.2158,-0.2159,-0.2188,-0.2203,-0.2203,-0.265,-0.2947,-0.3369,-0.3843,-0.4154,-0.1522,-0.1761,-0.1783,-0.1783,-0.179,-0.1795,-0.1795,-0.1795,-0.1795,-0.1795,-0.1843,-0.1885,-0.1885,-0.1936,0.0,-0.2004,-0.2039,0.0,-0.2094,-0.2176,0.0,-0.2244,0.0,-0.2334,-0.2364,-0.2394,0.0,0.0,-0.2453,-0.247,-0.2502,-0.2503,-0.2506,-0.2514,-0.2514,-0.2525,-0.2548,-0.2571,-0.2586,-0.2431,-0.2431,-0.2435,-0.2117,-0.1139,-0.0651,-0.0651,-0.0162,0.0,0.0,0.0,0.0,0.0,0.0,0.0,0.0,0.0,0.0785,0.1886,0.1886,0.1886,0.1886,0.1886,0.1728,0.1728,0.2349,0.2331,0.2159,0.2152,0.2131,0.2105,0.2086,0.2224,0.2361,0.2339,0.2334,0.2334,0.2334,0.2188,0.2042,0.2043,0.2023,0.1718,0.1002,0.0423,0.0,0.0,0.0,0.0,0.0,0.0,0.0,0.0,0.0,0.0,0.0,0.0,0.0,0.0,-0.0808,-0.1623,-0.2188,-0.2188,-0.2199,-0.2222,-0.223,-0.2234,-0.2234,-0.2406,-0.2847,-0.3416,-0.3607,-0.4085,-0.1106,-0.1559,-0.1795,-0.1795,-0.1795,-0.1795,-0.1795,-0.1795,-0.1795,-0.1795,-0.1832,-0.187,-0.1883,-0.1925,-0.1966,0.0,0.0,0.0,-0.2087,-0.218,-0.2245,0.0,-0.2297,0.0,-0.2375,-0.2406,-0.2436,0.0,-0.2481,-0.2496,-0.2514,-0.2514,-0.2514,-0.2514,-0.2527,-0.2549,-0.2579,-0.2271,-0.2121,-0.246,-0.246,-0.2138,-0.1322,-0.0496,0.0,0.0,0.0,0.0,0.0,0.0,0.0,0.0,0.0,0.048,0.1108,0.1108,0.142,0.2043,0.2357,0.2514,0.2514,0.2514,0.22,0.1886,0.2357,0.2503,0.2489,0.2489,0.2467,0.2436,0.2406,0.2388,0.2371,0.2339,0.2333,0.2333,0.2333,0.2333,0.2333,0.2334,0.232,0.2165,0.1732,0.1285,0.0849,0.0142,0.0,0.0,0.0,0.0,0.0,0.0,0.0,0.0,0.0,0.0,0.0,0.0,-0.0686,-0.1514,-0.2219,-0.2219,-0.2228,-0.2245,-0.2259,-0.2266,-0.2266,-0.2294,-0.2598,-0.3175,-0.3508,-0.3838,-0.0673,-0.1234,-0.1795,-0.1795,-0.1795,-0.1795,-0.1795,-0.1795,-0.1795,-0.1795,-0.1819,-0.1849,-0.1874,-0.1907,-0.194,-0.1966,0.0,-0.2064,-0.2064,-0.2169,-0.2245,-0.2245,-0.2297,-0.2346,-0.238,-0.2408,-0.2438,-0.2473,-0.2499,-0.2514,-0.2514,-0.2518,-0.2522,-0.2526,-0.2556,-0.2585,-0.2611,-0.1798,-0.1644,-0.2158,-0.2158,-0.1335,0.0,0.0,0.0,0.0,0.0,0.0,0.0,0.0,0.0,0.0,0.0326,0.1296,0.2566,0.2562,0.2066,0.1575,0.2201,0.2514,0.2514,0.2514,0.2514,0.2514,0.2514,0.2514,0.2514,0.2514,0.2495,0.2467,0.2438,0.2408,0.2376,0.2346,0.2335,0.2333,0.2333,0.2333,0.2333,0.2333,0.2333,0.2333,0.2333,0.2312,0.1865,0.0574,0.0142,0.0,0.0,0.0,0.0,0.0,0.0,0.0,0.0,0.0,0.0,0.0,-0.0701,-0.1404,-0.2251,-0.2251,-0.2253,-0.2256,-0.2282,-0.2296,-0.2296,-0.2324,-0.2485,-0.2926,-0.3407,-0.3878,-0.0112,-0.1009,-0.1795,-0.1795,-0.1795,-0.1795,-0.1795,-0.1795,-0.1795,-0.1795,-0.1819,-0.1842,-0.1847,-0.1894,-0.1933,-0.1939,-0.2009,-0.2064,-0.2064,-0.2169,-0.2245,0.0,-0.2297,-0.2354,-0.241,-0.242,0.0,0.0,-0.2511,-0.2514,-0.2514,-0.2538,-0.2563,-0.2589,-0.2619,-0.2637,-0.2477,-0.2501,-0.1844,-0.0504,-0.0504,-0.0336,0.0,0.0,0.0,0.0,0.0,0.0,0.0,0.0,0.0,0.0165,0.1651,0.246,0.2594,0.257,0.2396,0.2389,0.2523,0.2514,0.2514,0.2514,0.2514,0.2514,0.2514,0.2514,0.2514,0.2514,0.251,0.2499,0.2469,0.2439,0.2408,0.2378,0.235,0.2333,0.2333,0.2333,0.2333,0.2333,0.2333,0.2333,0.2333,0.2328,0.218,0.1889,0.0871,0.0,0.0,0.0,0.0,0.0,0.0,0.0,0.0,0.0,0.0,0.0,-0.014,-0.0846,-0.2282,-0.2282,-0.2294,-0.2318,-0.2323,-0.2326,-0.2326,-0.2356,-0.2519,-0.2965,-0.345,-0.3793,0.0,-0.0449,-0.1009,-0.1683,-0.1795,-0.1795,-0.1795,-0.1795,-0.1795,-0.1795,-0.1806,-0.1821,-0.1838,-0.1877,-0.1913,-0.1929,-0.1993,-0.2046,-0.2061,-0.2142,-0.221,-0.2241,-0.2283,-0.2341,-0.2416,-0.2424,-0.2448,-0.251,-0.2514,-0.2521,-0.2537,-0.2567,-0.2435,-0.197,-0.2312,-0.2492,-0.2673,-0.168,-0.0842,0.0,0.0,0.0,0.0,0.0,0.0,0.0,0.0,0.0,0.0,0.0,0.0504,0.1504,0.2339,0.2654,0.2623,0.2594,0.2574,0.2556,0.2525,0.2514,0.2514,0.2514,0.2514,0.2514,0.2514,0.2514,0.2514,0.2514,0.2514,0.2507,0.2477,0.2458,0.2435,0.239,0.2354,0.2333,0.2333,0.2333,0.2333,0.2333,0.2333,0.2333,0.2333,0.2333,0.2333,0.2333,0.1604,0.0873,0.0145,0.0,0.0,0.0,0.0,0.0,0.0,0.0,0.0,0.0,0.0,-0.0575,-0.1735,-0.2024,-0.2319,-0.2333,-0.2333,-0.2341,-0.2357,-0.2371,-0.2535,-0.2704,-0.3193,-0.3527,0.0,0.0,-0.0224,-0.1121,-0.157,-0.1795,-0.1795,-0.1795,-0.1795,-0.1795,-0.1795,-0.1802,-0.1827,-0.1855,-0.1885,-0.1917,-0.1971,-0.2022,-0.2059,-0.2116,-0.2177,-0.2238,-0.2273,0.0,-0.2414,-0.2424,0.0,-0.251,-0.2526,-0.2544,-0.2568,-0.2598,-0.23,-0.1662,-0.1829,-0.2003,-0.219,-0.0674,0.0,0.0,0.0,0.0,0.0,0.0,0.0,0.0,0.0,0.0,0.0,0.0337,0.1348,0.2697,0.2695,0.2679,0.2653,0.2624,0.2596,0.2564,0.2534,0.2519,0.2514,0.2514,0.2514,0.2514,0.2514,0.2514,0.2514,0.2514,0.2514,0.2508,0.2485,0.2474,0.2455,0.2401,0.2364,0.2342,0.2342,0.2337,0.2333,0.2333,0.2333,0.2333,0.2333,0.2333,0.2333,0.2333,0.2333,0.1895,0.0584,0.0146,0.0,0.0,0.0,0.0,0.0,0.0,0.0,0.0,0.0,-0.0292,-0.1168,-0.1896,-0.2337,-0.2342,-0.2342,-0.2357,-0.2388,-0.2394,-0.241,-0.2433,-0.2927,-0.3252,0.0,0.0,-0.0,-0.0112,-0.1009,-0.1795,-0.1795,-0.1795,-0.1795,-0.1795,-0.1795,-0.1795,-0.1798,-0.1824,-0.1854,-0.1885,-0.1941,-0.2,-0.2056,-0.2116,-0.2177,-0.2238,0.0,0.0,-0.2414,-0.2424,-0.2448,-0.251,-0.2566,-0.2598,-0.2601,-0.2465,-0.2494,-0.2523,-0.1009,-0.0168,-0.0168,-0.0,0.0,0.0,0.0,0.0,0.0,0.0,0.0,0.0,0.0,0.0,0.0,0.1853,0.2527,0.2695,0.2694,0.2691,0.2684,0.2654,0.2624,0.2593,0.2566,0.2537,0.2514,0.2514,0.2514,0.2514,0.2514,0.2514,0.2514,0.2514,0.2514,0.2514,0.2511,0.2489,0.2461,0.2428,0.2395,0.2373,0.2373,0.2352,0.2333,0.2333,0.2333,0.2333,0.2333,0.2333,0.2333,0.2333,0.2333,0.2188,0.2043,0.0876,0.0,0.0,0.0,0.0,0.0,0.0,0.0,0.0,0.0,-0.0292,-0.1168,-0.1898,-0.2348,-0.2373,-0.2373,-0.2388,-0.242,-0.2447,-0.2462,-0.2465,-0.2962,-0.3135,0.0,0.0,0.0,0.0,-0.0336,-0.0785,-0.1121,-0.157,-0.1795,-0.1795,-0.1795,-0.1795,-0.1795,-0.182,-0.185,-0.1881,-0.1921,-0.1977,-0.2053,-0.2084,-0.2136,-0.2234,-0.2256,0.0,0.0,0.0,-0.2457,-0.2536,-0.2581,-0.2613,-0.2467,-0.2661,-0.218,-0.1179,-0.0337,0.0,0.0,0.0,0.0,0.0,0.0,0.0,0.0,0.0,0.0,0.0,0.0,0.0,0.0,0.2022,0.2695,0.2694,0.2692,0.2692,0.2688,0.2658,0.2628,0.2597,0.257,0.254,0.2514,0.2514,0.2514,0.2514,0.2514,0.2514,0.2514,0.2514,0.2514,0.2514,0.2514,0.2492,0.2466,0.2454,0.2428,0.2405,0.2405,0.2382,0.236,0.236,0.2345,0.2333,0.2333,0.2333,0.2333,0.2333,0.2333,0.2333,0.2334,0.1313,0.0584,0.0,0.0,0.0,0.0,0.0,0.0,0.0,0.0,-0.0439,-0.118,-0.1919,-0.2375,-0.2405,-0.2405,-0.242,-0.2451,-0.2463,-0.2478,-0.2496,-0.2665,-0.2826,0.0,0.0,0.0,0.0,0.0,-0.0111,-0.0553,-0.0995,-0.1326,-0.1547,-0.1553,-0.1559,-0.1782,-0.1806,-0.184,-0.188,-0.1904,-0.1952,-0.205,-0.2064,-0.2109,-0.2232,0.0,0.0,0.0,0.0,0.0,0.0,0.0,-0.2458,-0.2495,-0.2181,-0.1348,-0.0,0.0,0.0,0.0,0.0,0.0,0.0,0.0,0.0,0.0,0.0,0.0,0.0,0.0,0.0337,0.0,0.1852,0.2525,0.2692,0.2692,0.2692,0.269,0.2668,0.2635,0.2598,0.2579,0.2547,0.2514,0.2514,0.2514,0.2514,0.2514,0.2514,0.2514,0.2514,0.2514,0.2514,0.2514,0.2499,0.2482,0.2482,0.2459,0.2436,0.2436,0.2413,0.2391,0.2391,0.2375,0.236,0.236,0.236,0.236,0.236,0.236,0.236,0.236,0.1917,0.1181,0.0148,0.0,0.0,0.0,0.0,0.0,0.0,0.0,-0.0445,-0.1195,-0.2092,-0.2406,-0.2436,-0.2436,-0.2451,-0.2482,-0.2482,-0.2493,-0.2514,-0.2514,-0.2675,0.0,0.0,0.0,0.0,0.0,-0.0,-0.0,-0.0,-0.0214,-0.0747,-0.0865,-0.1093,-0.1641,-0.1775,-0.1814,-0.1759,-0.1885,-0.1928,-0.2048,-0.2064,-0.2109,0.0,0.0,-0.2292,0.0,0.0,0.0,0.0,0.0,0.0,-0.2524,-0.101,-0.0,-0.0,0.0,0.0,0.0,0.0,0.0,0.0,0.0,0.0,0.0,0.0,0.0,0.0,0.0,0.101,0.0,0.1683,0.185,0.2692,0.2692,0.2692,0.2692,0.2692,0.2654,0.2601,0.2601,0.2563,0.2514,0.2514,0.2514,0.2514,0.2514,0.2514,0.2514,0.2514,0.2514,0.2514,0.2514,0.2514,0.2514,0.2514,0.2491,0.2469,0.2469,0.2444,0.2423,0.2423,0.2423,0.2423,0.2423,0.2423,0.2423,0.2423,0.2423,0.2423,0.2423,0.2271,0.1665,0.0151,0.0,0.0,0.0,0.0,0.0,0.0,0.0,-0.0455,-0.1211,-0.212,-0.2438,-0.2467,-0.2469,-0.2484,-0.2514,-0.2514,-0.2514,-0.2514,-0.2514,-0.2688,0.0,0.0,0.0,0.0,0.0,0.0,0.0,0.0,-0.0107,-0.0213,-0.0324,-0.0328,-0.0547,-0.0888,-0.1134,-0.1173,-0.1179,-0.1445,-0.1918,-0.2064,0.0,-0.2232,-0.1737,-0.1786,0.0,0.0,0.0,0.0,0.0,0.0,-0.0841,-0.0337,0.0,0.0,0.0,0.0,0.0,0.0,0.0,0.0,0.0,0.0,0.0,0.0,0.0,0.0,0.1348,0.219,0.2695,0.2356,0.2356,0.2692,0.2692,0.2692,0.2692,0.2692,0.2654,0.2601,0.2601,0.2563,0.2514,0.2514,0.2514,0.2514,0.2514,0.2514,0.2514,0.2514,0.2514,0.2514,0.2514,0.2514,0.2514,0.2514,0.2507,0.25,0.25,0.2476,0.2455,0.2455,0.2438,0.2424,0.2424,0.2424,0.2424,0.2424,0.2424,0.2424,0.2424,0.2424,0.1968,0.0909,0.0303,0.0,0.0,0.0,0.0,0.0,0.0,-0.0152,-0.046,-0.1687,-0.2469,-0.2499,-0.25,-0.2504,-0.2514,-0.2514,-0.2525,-0.2545,-0.2545,-0.2571,0.0,0.0,0.0,0.0,0.0,0.0,0.0,0.0,0.0,0.0,0.0,0.0,0.0,-0.0331,-0.0567,-0.0586,-0.0589,-0.0843,-0.1536,-0.1685,0.0,0.0,0.0,0.0,0.0,0.0,0.0,0.0,0.0,0.0,-0.0,0.0,0.0,0.0,0.0,0.0,0.0,0.0,0.0,0.0,0.0,0.0,0.0,0.0,0.0,0.0168,0.1853,0.2695,0.0,0.2692,0.2692,0.2692,0.2692,0.2692,0.2692,0.2692,0.2654,0.2601,0.2601,0.2563,0.2514,0.2514,0.2514,0.2514,0.2514,0.2514,0.2514,0.2514,0.2514,0.2514,0.2514,0.2514,0.2514,0.2514,0.2514,0.2514,0.2514,0.2499,0.2487,0.2487,0.247,0.2458,0.2458,0.2458,0.2458,0.2458,0.2458,0.2458,0.2458,0.2458,0.2151,0.1382,0.0461,0.0,0.0,0.0,0.0,0.0,0.0,0.0,0.0,-0.1243,-0.2183,-0.2514,-0.2514,-0.2514,-0.2514,-0.2526,-0.2541,-0.256,-0.2582,-0.2612,0.0,0.0,0.0,0.0,0.0,0.0,0.0,0.0,0.0,0.0,0.0,0.0,0.0,0.0,0.0,0.0,0.0,-0.0242,-0.0897,-0.0917,0.0,0.0,0.0,0.0,0.0,0.0,0.0,0.0,0.0,0.0,0.0,0.0,0.0,0.0,0.0,0.0,0.0,0.0,0.0,0.0,0.0,0.0,0.0,0.0,0.0,0.0,0.1853,0.2694,0.2692,0.2692,0.2692,0.2692,0.2692,0.2692,0.2692,0.2692,0.2654,0.2601,0.2601,0.2563,0.2514,0.2514,0.2514,0.2514,0.2514,0.2514,0.2514,0.2514,0.2514,0.2514,0.2514,0.2514,0.2514,0.2514,0.2514,0.2514,0.2514,0.2514,0.2514,0.2514,0.2514,0.2514,0.2514,0.2514,0.2514,0.2514,0.2514,0.2514,0.2514,0.2514,0.22,0.1414,0.0471,0.0,0.0,0.0,0.0,0.0,0.0,-0.0,-0.0157,-0.0942,-0.1728,-0.2514,-0.2517,-0.2518,-0.2518,-0.2548,-0.2564,-0.2567,-0.2622,-0.2647,0.0,0.0,0.0,0.0,0.0,0.0,0.0,0.0,0.0,0.0,0.0,0.0,0.0,0.0,0.0,0.0,0.0,-0.0,-0.0257,0.0,0.0,0.0,0.0,0.0,0.0,0.0,0.0,0.0,0.0,0.0,0.0,0.0,0.0,0.0,0.0,0.0,0.0,0.0,0.0,0.0,0.0,0.0,0.0,0.0,0.0674,0.2022,0.1684,0.202,0.2692,0.2692,0.2692,0.2692,0.2692,0.2692,0.2692,0.2692,0.2654,0.2601,0.2601,0.2563,0.2514,0.2514,0.2514,0.2514,0.2514,0.2514,0.2514,0.2514,0.2514,0.2514,0.2514,0.2514,0.2514,0.2514,0.2514,0.2514,0.2514,0.2514,0.2514,0.2514,0.2514,0.2514,0.2514,0.2514,0.2514,0.2514,0.2514,0.2514,0.2514,0.2514,0.22,0.1414,0.0471,0.0,0.0,0.0,0.0,0.0,0.0,-0.0314,-0.0942,-0.1256,-0.1728,-0.2514,-0.2537,-0.2549,-0.2549,-0.2578,-0.2604,-0.2627,-0.2641,-0.266,0.0,0.0,0.0,0.0,0.0,0.0,0.0,0.0,0.0,0.0,0.0,0.0,0.0,0.0,0.0,0.0,0.0,0.0,0.0,0.0,0.0,0.0,0.0,0.0,0.0,0.0,0.0,0.0,0.0,0.0,0.0,0.0,0.0,0.0,0.0,0.0,0.0,0.0,0.0,0.0,0.0,0.0,0.0,0.0,0.101,0.2697,0.2188,0.2188,0.2692,0.2692,0.2692,0.2692,0.2692,0.2692,0.2692,0.2692,0.2662,0.262,0.2607,0.2563,0.2514,0.2514,0.2514,0.2514,0.2514,0.2514,0.2514,0.2514,0.2514,0.2514,0.2514,0.2514,0.2514,0.2514,0.2514,0.2514,0.2514,0.2514,0.2514,0.2514,0.2514,0.2514,0.2514,0.2514,0.2514,0.2514,0.2514,0.2514,0.2514,0.2514,0.2357,0.1886,0.0785,0.0,0.0,0.0,0.0,0.0,0.0,-0.0157,-0.0628,-0.1414,-0.2048,-0.2534,-0.2552,-0.2566,-0.2579,-0.2608,-0.2631,-0.2647,-0.2661,-0.2676,0.0,0.0,0.0,0.0,0.0,0.0,0.0,0.0,0.0,0.0,0.0,0.0,0.0,0.0,0.0,0.0,0.0,0.0,0.0,0.0,0.0,0.0,0.0,0.0,0.0,0.0,0.0,0.0,0.0,0.0,0.0,0.0,0.0,0.0,0.0,0.0,0.0,0.0,0.0,0.0,0.0,0.0,0.0,0.0337,0.1179,0.2527,0.0,0.0,0.2692,0.2692,0.2692,0.2692,0.2692,0.2692,0.2692,0.2692,0.2673,0.2642,0.2607,0.256,0.2514,0.2514,0.2514,0.2514,0.2514,0.2514,0.2514,0.2514,0.2514,0.2514,0.2514,0.2514,0.2514,0.2514,0.2514,0.2514,0.2514,0.2514,0.2514,0.2514,0.2514,0.2515,0.2521,0.2521,0.2522,0.2527,0.2527,0.2527,0.2527,0.2527,0.2527,0.2529,0.1106,0.0158,0.0,0.0,0.0,0.0,0.0,0.0,0.0,-0.1422,-0.2381,-0.2566,-0.2571,-0.2585,-0.2608,-0.2639,-0.2654,-0.2654,-0.268,-0.2692,0.0,0.0,0.0,0.0,0.0,0.0,0.0,0.0,0.0,0.0,0.0,0.0,0.0,0.0,0.0,0.0,0.0,0.0,0.0,0.0,0.0,0.0,0.0,0.0,0.0,0.0,0.0,0.0,0.0,0.0,0.0,0.0,0.0,0.0,0.0,0.0,0.0,0.0,0.0,0.0,0.0,0.0,0.0,0.1516,0.2021,0.1514,0.0,0.2692,0.2692,0.2692,0.2692,0.2692,0.2692,0.2692,0.2692,0.2692,0.2673,0.2639,0.2585,0.2544,0.2514,0.2514,0.2514,0.2514,0.2514,0.2514,0.2514,0.2514,0.2514,0.2514,0.2514,0.2514,0.2514,0.2514,0.2514,0.2514,0.2514,0.2514,0.2514,0.2514,0.2514,0.2522,0.2548,0.2553,0.256,0.2585,0.2589,0.2589,0.2589,0.2589,0.2589,0.2428,0.1619,0.081,0.0,0.0,0.0,0.0,0.0,0.0,0.0,-0.0971,-0.1783,-0.2598,-0.2622,-0.2635,-0.2641,-0.2671,-0.2686,-0.2686,-0.269,-0.2692,0.0,0.0,0.0,0.0,0.0,0.0,0.0,0.0,0.0,0.0,0.0,0.0,0.0,0.0,0.0,0.0,0.0,0.0,0.0,0.0,0.0,0.0,0.0,0.0,0.0,0.0,0.0,0.0,0.0,0.0,0.0,0.0,0.0,0.0,0.0,0.0,0.0,0.0,0.0,0.0,0.0,0.0,0.0,0.1853,0.2525,0.2018,0.0,0.2692,0.2692,0.2692,0.2692,0.2692,0.2692,0.2692,0.2692,0.2692,0.2662,0.2619,0.2592,0.2552,0.2514,0.2514,0.2514,0.2514,0.2514,0.2514,0.2514,0.2514,0.2514,0.2514,0.2514,0.2514,0.2518,0.2534,0.2538,0.2542,0.2559,0.2562,0.2562,0.2562,0.2562,0.2566,0.2579,0.2582,0.2586,0.26,0.2601,0.2601,0.2601,0.2601,0.2602,0.2605,0.179,0.0977,0.0,0.0,0.0,0.0,0.0,0.0,0.0,-0.0814,-0.1796,-0.263,-0.2641,-0.2656,-0.2672,-0.2686,-0.2692,-0.2692,-0.2692,-0.2692,0.0,0.0,0.0,0.0,0.0,0.0,0.0,0.0,0.0,0.0,0.0,0.0,0.0,0.0,0.0,0.0,0.0,0.0,0.0,0.0,0.0,0.0,0.0,0.0,0.0,0.0,0.0,0.0,0.0,0.0,0.0,0.0,0.0,0.0,0.0,0.0,0.0,0.0,0.0,0.0,0.0,0.0168,0.0674,0.1852,0.2525,0.2692,0.2692,0.2692,0.2692,0.2692,0.2692,0.2692,0.2692,0.2692,0.2692,0.2692,0.2654,0.2601,0.2601,0.2563,0.2514,0.2514,0.2514,0.2514,0.2514,0.2514,0.2515,0.2523,0.2525,0.2525,0.2525,0.2525,0.2533,0.2563,0.257,0.2575,0.2597,0.2601,0.2601,0.2601,0.2601,0.2604,0.2611,0.2612,0.2615,0.2622,0.2623,0.2623,0.2623,0.2623,0.2623,0.2626,0.1804,0.0984,0.0,0.0,0.0,0.0,0.0,0.0,0.0,-0.0656,-0.1483,-0.266,-0.2658,-0.2669,-0.2692,-0.2692,-0.2692,-0.2692,-0.2692,-0.2697,0.0,0.0,0.0,0.0,0.0,0.0,0.0,0.0,0.0,0.0,0.0,0.0,0.0,0.0,0.0,0.0,0.0,0.0,0.0,0.0,0.0,0.0,0.0,0.0,0.0,0.0,0.0,0.0,0.0,0.0,0.0,0.0,0.0,0.0,0.0,0.0,0.0,0.0,0.0,0.0,0.0,0.0842,0.2527,0.1683,0.185,0.2692,0.2692,0.2692,0.2692,0.2692,0.2692,0.2692,0.2692,0.2692,0.2692,0.2692,0.2654,0.2601,0.2601,0.2563,0.2514,0.2514,0.2514,0.2514,0.2514,0.2514,0.2521,0.2548,0.2556,0.2556,0.2556,0.2556,0.2563,0.2592,0.2598,0.26,0.2601,0.2601,0.2601,0.2601,0.2601,0.2611,0.2639,0.2643,0.2653,0.2682,0.2686,0.2686,0.2686,0.2686,0.2686,0.2686,0.1847,0.1007,0.0,0.0,0.0,0.0,0.0,0.0,0.0,-0.0,-0.084,-0.269,-0.269,-0.269,-0.2692,-0.2692,-0.2692,-0.2692,-0.2692,-0.2707,0.0,0.0,0.0,0.0,0.0,0.0,0.0,0.0,0.0,0.0,0.0,0.0,0.0,0.0,0.0,0.0,0.0,0.0,0.0,0.0,0.0,0.0,0.0,0.0,0.0,0.0,0.0,0.0,0.0,0.0,0.0,0.0,0.0,0.0,0.0,0.0,0.0,0.0,0.0,0.0,0.0,0.101,0.2697,0.2356,0.2356,0.2692,0.2692,0.2692,0.2692,0.2692,0.2692,0.2692,0.2692,0.2692,0.2692,0.2692,0.2665,0.2627,0.2608,0.2575,0.254,0.2521,0.2527,0.2542,0.2542,0.2555,0.2571,0.2582,0.2586,0.2586,0.2586,0.2586,0.2593,0.2623,0.263,0.2635,0.2654,0.2658,0.2658,0.2658,0.2658,0.2661,0.2673,0.2675,0.2679,0.2691,0.2692,0.2692,0.2692,0.2692,0.2692,0.2692,0.1346,0.0337,0.0,0.0,0.0,0.0,0.0,0.0,0.0,0.0,-0.0337,-0.101,-0.2188,-0.2692,-0.2692,-0.2692,-0.2692,-0.2692,-0.2712,-0.2727,0.0,0.0,0.0,0.0,0.0,0.0,0.0,0.0,0.0,0.0,0.0,0.0,0.0,0.0,0.0,0.0,0.0,0.0,0.0,0.0,0.0,0.0,0.0,0.0,0.0,0.0,0.0,0.0,0.0,0.0,0.0,0.0,0.0,0.0,0.0,0.0,0.0,0.0,0.0,0.0,0.0502,0.1342,0.2189,0.2524,0.2692,0.2692,0.2692,0.2692,0.2692,0.2692,0.2692,0.2692,0.2692,0.2692,0.2692,0.2692,0.2673,0.2643,0.2623,0.2597,0.257,0.2548,0.2556,0.2572,0.2572,0.2586,0.2604,0.2613,0.2616,0.2617,0.2628,0.2623,0.2623,0.2654,0.2661,0.2667,0.2688,0.2692,0.2692,0.2692,0.2692,0.2692,0.2692,0.2692,0.2692,0.2692,0.2692,0.2692,0.2692,0.2692,0.2524,0.2356,0.0842,0.0,0.0,0.0,0.0,0.0,0.0,0.0,0.0,0.0,0.0,0.0,-0.1178,-0.2188,-0.2692,-0.2692,-0.2698,-0.2707,-0.2728,-0.2748,0.0,0.0,0.0,0.0,0.0,0.0,0.0,0.0,0.0,0.0,0.0,0.0,0.0,0.0,0.0,0.0,0.0,0.0,0.0,0.0,0.0,0.0,0.0,0.0,0.0,0.0,0.0,0.0,0.0,0.0,0.0,0.0,0.0,0.0,0.0,0.0,0.0,0.0,0.0,0.0,0.1812,0.2164,0.1346,0.2356,0.2692,0.2692,0.2692,0.2692,0.2692,0.2692,0.2692,0.2692,0.2692,0.2692,0.2692,0.2692,0.2673,0.2647,0.2647,0.2627,0.2602,0.2601,0.2602,0.2602,0.2602,0.2602,0.2608,0.2639,0.2647,0.2654,0.2684,0.2671,0.2656,0.2686,0.2692,0.2692,0.2692,0.2692,0.2692,0.2692,0.2692,0.2692,0.2692,0.2692,0.2692,0.2692,0.2692,0.2692,0.2692,0.2692,0.2356,0.1346,0.0505,0.0,0.0,0.0,0.0,0.0,0.0,0.0,0.0,0.0,0.0,0.0,0.0,-0.0842,-0.2692,-0.2692,-0.2709,-0.2737,-0.2739,-0.2772,0.0,0.0,0.0,0.0,0.0,0.0,0.0,0.0,0.0,0.0,0.0,0.0,0.0,0.0,0.0,0.0,0.0,0.0,0.0,0.0,0.0,0.0,0.0,0.0,0.0,0.0,0.0,0.0,0.0,0.0,0.0,0.0,0.0,0.0,0.0,0.0,0.0,0.0,0.0,0.0,0.1144,0.1976,0.2331,0.2515,0.2692,0.2692,0.2692,0.2692,0.2692,0.2692,0.2692,0.2692,0.2692,0.2692,0.2692,0.2692,0.2687,0.2676,0.2654,0.2641,0.263,0.2608,0.2616,0.2634,0.2634,0.2649,0.2668,0.2676,0.2679,0.2682,0.269,0.2686,0.2682,0.269,0.2692,0.2692,0.2692,0.2692,0.2692,0.2692,0.2692,0.2692,0.2692,0.2692,0.2692,0.2692,0.2692,0.2692,0.2692,0.2692,0.2356,0.1346,0.0505,0.0,0.0,0.0,0.0,0.0,0.0,0.0,0.0,0.0,0.0,0.0,0.0,-0.0337,-0.0842,-0.2205,-0.2729,-0.2739,-0.2782,-0.2811,0.0,0.0,0.0,0.0,0.0,0.0,0.0,0.0,0.0,0.0,0.0,0.0,0.0,0.0,0.0,0.0,0.0,0.0,0.0,0.0,0.0,0.0,0.0,0.0,0.0,0.0,0.0,0.0,0.0,0.0,0.0,0.0,0.0,0.0,0.0,0.0,0.0,0.0,0.0,0.0,0.0806,0.1785,0.2615,0.2643,0.2657,0.2657,0.2657,0.2657,0.2657,0.2657,0.2657,0.2657,0.2657,0.2664,0.2675,0.2675,0.2682,0.269,0.2672,0.2665,0.2662,0.2643,0.265,0.2665,0.2665,0.2677,0.2692,0.2692,0.2692,0.2692,0.2692,0.2692,0.2692,0.2692,0.2692,0.2692,0.2692,0.2692,0.2692,0.2692,0.2692,0.2692,0.2692,0.2692,0.2692,0.2692,0.2692,0.2692,0.2692,0.2692,0.2356,0.1346,0.0507,0.0,0.0,0.0,0.0,0.0,0.0,0.0,0.0,0.0,0.0,0.0,0.0,0.0,-0.0,-0.1194,-0.2062,-0.2774,-0.2811,-0.2836,0.0,0.0,0.0,0.0,0.0,0.0,0.0,0.0,0.0,0.0,0.0,0.0,0.0,0.0,0.0,0.0,0.0,0.0,0.0,0.0,0.0,0.0,0.0,0.0,0.0,0.0,0.0,0.0,0.0,0.0,0.0,0.0,0.0,0.0,0.0,0.0,0.0,0.0,0.0,0.0,0.0953,0.1757,0.2556,0.2587,0.2601,0.2601,0.2601,0.2601,0.2601,0.2601,0.2601,0.2601,0.2601,0.2619,0.2643,0.2646,0.2664,0.2688,0.2691,0.2692,0.2692,0.2692,0.2692,0.2692,0.2692,0.2692,0.2692,0.2692,0.2692,0.2692,0.2692,0.2692,0.2692,0.2692,0.2692,0.2692,0.2692,0.2692,0.2692,0.2692,0.2692,0.2692,0.2692,0.2692,0.2694,0.2697,0.2697,0.2698,0.2701,0.2701,0.2363,0.135,0.0511,0.0,0.0,0.0,0.0,0.0,0.0,0.0,0.0,0.0,0.0,0.0,0.0,0.0,0.0,0.0,-0.0867,-0.2475,-0.2655,-0.267,0.0,0.0,0.0,0.0,0.0,0.0,0.0,0.0,0.0,0.0,0.0,0.0,0.0,0.0,0.0,0.0,0.0,0.0,0.0,0.0,0.0,0.0,0.0,0.0,0.0,0.0,0.0,0.0,0.0,0.0,0.0,0.0,0.0,0.0,0.0,0.0,0.0,0.0,0.0,0.0,0.0945,0.1735,0.2526,0.2578,0.2601,0.2601,0.2601,0.2601,0.2601,0.2601,0.2601,0.2601,0.2601,0.2605,0.2615,0.2638,0.2652,0.266,0.2684,0.2692,0.2692,0.2692,0.2692,0.2692,0.2692,0.2692,0.2692,0.2692,0.2692,0.2692,0.2692,0.2692,0.2692,0.2692,0.2692,0.2692,0.2692,0.2692,0.2692,0.2692,0.2692,0.2692,0.2692,0.2692,0.2701,0.2725,0.2728,0.2736,0.2761,0.2763,0.2418,0.1381,0.0519,0.0,0.0,0.0,0.0,0.0,0.0,0.0,0.0,0.0,0.0,0.0,0.0,0.0,0.0,0.0,-0.0176,-0.0707,-0.1426,-0.215,0.0,0.0,0.0,0.0,0.0,0.0,0.0,0.0,0.0,0.0,0.0,0.0,0.0,0.0,0.0,0.0,0.0,0.0,0.0,0.0,0.0,0.0,0.0,0.0,0.0,0.0,0.0,0.0,0.0,0.0,0.0,0.0,0.0,0.0,0.0,0.0,0.0,0.0,0.0157,0.0628,0.1099,0.1728,0.2515,0.2545,0.256,0.256,0.256,0.256,0.256,0.256,0.256,0.256,0.256,0.2568,0.2585,0.2615,0.2634,0.2652,0.2682,0.2692,0.2692,0.2692,0.2692,0.2692,0.2692,0.2692,0.2692,0.2692,0.2692,0.2692,0.2692,0.2692,0.2692,0.2692,0.2692,0.2692,0.2692,0.2692,0.2692,0.2692,0.2692,0.2692,0.2692,0.2705,0.2725,0.2755,0.2759,0.2765,0.2781,0.2784,0.2435,0.1391,0.0524,0.0,0.0,0.0,0.0,0.0,0.0,0.0,0.0,0.0,0.0,0.0,0.0,0.0,0.0,0.0,0.0,-0.0,-0.0537,-0.1077,0.0,0.0,0.0,0.0,0.0,0.0,0.0,0.0,0.0,0.0,0.0,0.0,0.0,0.0,0.0,0.0,0.0,0.0,0.0,0.0,0.0,0.0,0.0,0.0,0.0,0.0,0.0,0.0,0.0,0.0,0.0,0.0,0.0,0.0,0.0,0.0,0.0,0.0,0.0314,0.1099,0.1414,0.1886,0.2514,0.2514,0.2514,0.2514,0.2514,0.2514,0.2514,0.2514,0.2514,0.2514,0.2514,0.253,0.2556,0.2589,0.2617,0.2645,0.268,0.2692,0.2692,0.2692,0.2692,0.2692,0.2692,0.2692,0.2692,0.2692,0.2692,0.2692,0.2692,0.2692,0.2692,0.2692,0.2692,0.2692,0.2692,0.2692,0.2692,0.2692,0.2697,0.2702,0.2707,0.2729,0.2757,0.2787,0.2791,0.2793,0.2799,0.2799,0.2449,0.1399,0.0529,0.0,0.0,0.0,0.0,0.0,0.0,0.0,0.0,0.0,0.0,0.0,0.0,0.0,0.0,0.0,0.0,0.0,0.0,0.0,0.0,0.0,0.0,0.0,0.0,0.0,0.0,0.0,0.0,0.0,0.0,0.0,0.0,0.0,0.0,0.0,0.0,0.0,0.0,0.0,0.0,0.0,0.0,0.0,0.0,0.0,0.0,0.0,0.0,0.0,0.0,0.0,0.0,0.0,0.0,0.0,0.0,0.0,0.0,0.0157,0.1571,0.2357,0.2514,0.2514,0.2514,0.2514,0.2514,0.2514,0.2514,0.2514,0.2514,0.2514,0.2514,0.2517,0.2527,0.2582,0.2604,0.2616,0.2673,0.2692,0.2692,0.2692,0.2692,0.2692,0.2692,0.2692,0.2692,0.2692,0.2692,0.2692,0.2692,0.2692,0.2692,0.2692,0.2692,0.2692,0.2692,0.2692,0.2692,0.2692,0.2714,0.274,0.2766,0.2774,0.2788,0.2818,0.2822,0.2831,0.2859,0.2861,0.2504,0.143,0.0537,0.0,0.0,0.0,0.0,0.0,0.0,0.0,0.0,0.0,0.0,0.0,0.0,0.0,0.0,0.0,0.0,0.0,0.0,0.0,0.0,0.0,0.0,0.0,0.0,0.0,0.0,0.0,0.0,0.0,0.0,0.0,0.0,0.0,0.0,0.0,0.0,0.0,0.0,0.0,0.0,0.0,0.0,0.0,0.0,0.0,0.0,0.0,0.0,0.0,0.0,0.0,0.0,0.0,0.0,0.0,0.0,0.0,0.0,0.0,0.1728,0.2514,0.2514,0.2514,0.2514,0.2514,0.2514,0.2514,0.2514,0.2514,0.2514,0.2514,0.2514,0.2514,0.2521,0.2579,0.2601,0.2611,0.2672,0.2692,0.2692,0.2692,0.2692,0.2692,0.2692,0.2692,0.2692,0.2692,0.2692,0.2692,0.2692,0.2692,0.2692,0.2692,0.2692,0.2692,0.2692,0.2692,0.2698,0.2714,0.2743,0.2773,0.2803,0.2808,0.2819,0.2849,0.2855,0.2859,0.2872,0.2874,0.2515,0.1436,0.0539,0.0,0.0,0.0,0.0,0.0,0.0,0.0,0.0,0.0,0.0,0.0,0.0,0.0,0.0,0.0,0.0,0.0,0.0,0.0,0.0,0.0,0.0,0.0,0.0,0.0,0.0,0.0,0.0,0.0,0.0,0.0,0.0,0.0,0.0,0.0,0.0,0.0,0.0,0.0,0.0,0.0,0.0,0.0,0.0,0.0,0.0,0.0,0.0,0.0,0.0,0.0,0.0,0.0,0.0,0.0,0.0,0.0,0.0,0.0,0.1256,0.2043,0.2514,0.2514,0.2514,0.2514,0.2514,0.2514,0.2514,0.2514,0.2514,0.2514,0.2514,0.2514,0.2521,0.2579,0.2601,0.2611,0.2672,0.2692,0.2692,0.2692,0.2692,0.2692,0.2692,0.2692,0.2692,0.2692,0.2692,0.2692,0.2692,0.2692,0.2692,0.2692,0.2692,0.2695,0.2702,0.2703,0.2716,0.2754,0.278,0.2804,0.2834,0.284,0.2848,0.2871,0.2874,0.2874,0.2874,0.2874,0.2515,0.1436,0.0539,0.0,0.0,0.0,0.0,0.0,0.0,0.0,0.0,0.0,0.0,0.0,0.0,0.0,0.0,0.0,0.0,0.0,0.0,0.0,0.0,0.0,0.0,0.0,0.0,0.0,0.0,0.0,0.0,0.0,0.0,0.0,0.0,0.0,0.0,0.0,0.0,0.0,0.0,0.0,0.0,0.0,0.0,0.0,0.0,0.0,0.0,0.0,0.0,0.0,0.0,0.0,0.0,0.0,0.0,0.0,0.0,0.0,0.0,0.0,0.0157,0.0942,0.2514,0.2514,0.2514,0.2514,0.2514,0.2514,0.2514,0.2514,0.2514,0.2514,0.2514,0.2514,0.2521,0.2579,0.2601,0.2611,0.2672,0.2692,0.2692,0.2692,0.2692,0.2692,0.2692,0.2692,0.2692,0.2692,0.2692,0.2692,0.2692,0.2692,0.2692,0.2692,0.2692,0.2701,0.2729,0.2735,0.2752,0.2812,0.2825,0.2836,0.2867,0.2871,0.2872,0.2874,0.2874,0.2874,0.2874,0.2874,0.2515,0.1436,0.0539,0.0,0.0,0.0,0.0,0.0,0.0,0.0,0.0,0.0,0.0,0.0,0.0,0.0,0.0,0.0,0.0,0.0,0.0,0.0,0.0,0.0,0.0,0.0,0.0,0.0,0.0,0.0,0.0,0.0,0.0,0.0,0.0,0.0,0.0,0.0,0.0,0.0,0.0,0.0,0.0,0.0,0.0,0.0,0.0,0.0,0.0,0.0,0.0,0.0,0.0,0.0,0.0,0.0,0.0,0.0,0.0,0.0,0.0,0.0,0.0,0.0314,0.0942,0.2043,0.2514,0.2514,0.2514,0.2514,0.2514,0.2514,0.2514,0.2514,0.2514,0.2514,0.2521,0.2579,0.2601,0.2611,0.2672,0.2692,0.2692,0.2692,0.2692,0.2692,0.2692,0.2692,0.2692,0.2692,0.2692,0.2692,0.2692,0.2692,0.2692,0.2692,0.2692,0.2706,0.2757,0.2767,0.2778,0.2821,0.2844,0.2861,0.2872,0.2874,0.2874,0.2874,0.2874,0.2874,0.2874,0.2874,0.2694,0.2335,0.0898,0.0,0.0,0.0,0.0,0.0,0.0,0.0,0.0,0.0,0.0,0.0,0.0,0.0,0.0,0.0,0.0,0.0,0.0,0.0,0.0,0.0,0.0,0.0,0.0,0.0,0.0,0.0,0.0,0.0,0.0,0.0,0.0,0.0,0.0,0.0,0.0,0.0,0.0,0.0,0.0,0.0,0.0,0.0,0.0,0.0,0.0,0.0,0.0,0.0,0.0,0.0,0.0,0.0,0.0,0.0,0.0,0.0,0.0,0.0,0.0,0.0,0.0,0.1099,0.2043,0.2514,0.22,0.22,0.2514,0.2514,0.2514,0.2514,0.2514,0.2514,0.2521,0.2579,0.2601,0.2611,0.2672,0.2692,0.2692,0.2692,0.2692,0.2692,0.2692,0.2692,0.2692,0.2692,0.2692,0.2692,0.2692,0.2692,0.2692,0.2692,0.2692,0.2709,0.277,0.2784,0.2795,0.2836,0.286,0.2874,0.2874,0.2874,0.2874,0.2874,0.2874,0.2874,0.2874,0.2874,0.2874,0.2874,0.1795,0.0718,0.0,0.0,0.0,0.0,0.0,0.0,0.0,0.0,0.0,0.0,0.0,0.0,0.0,0.0,0.0,0.0,0.0,0.0,0.0,0.0,0.0,0.0,0.0,0.0,0.0,0.0,0.0,0.0,0.0,0.0,0.0,0.0,0.0,0.0,0.0,0.0,0.0,0.0,0.0,0.0,0.0,0.0,0.0,0.0,0.0,0.0,0.0,0.0,0.0,0.0,0.0,0.0,0.0,0.0,0.0,0.0,0.0,0.0,0.0,0.0,0.0,0.0,0.0942,0.2357,0.1571,0.1728,0.2514,0.2514,0.2514,0.2514,0.2514,0.2514,0.2521,0.2579,0.2601,0.2611,0.2672,0.2692,0.2692,0.2692,0.2692,0.2692,0.2692,0.2692,0.2692,0.2692,0.2692,0.2692,0.2692,0.2692,0.2692,0.2692,0.2692,0.2709,0.277,0.2784,0.2801,0.2861,0.2874,0.2874,0.2874,0.2874,0.2874,0.2874,0.2874,0.2874,0.2874,0.2874,0.2874,0.2874,0.2874,0.2156,0.018,0.0,0.0,0.0,0.0,0.0,0.0,0.0,0.0,0.0,0.0,0.0,0.0,0.0,0.0,0.0,0.0,0.0,0.1213,0.0,0.0,0.0,0.0,0.0,0.0115,0.0,0.0,0.0,0.0,0.0,0.0,0.0,0.0,0.0,0.0,0.0,0.0,0.0,0.0,0.0,0.0,0.0,0.0,0.0,0.0,0.0,0.0,0.0,0.0,0.0,0.0,0.0,0.0,0.0,0.0,0.0,0.0,0.0,0.0,0.0,0.0,0.0,0.0314,0.0785,0.1099,0.1414,0.1728,0.22,0.2514,0.2514,0.2514,0.2514,0.2522,0.2582,0.2604,0.2612,0.2672,0.2692,0.2692,0.2692,0.2692,0.2692,0.2692,0.2692,0.2692,0.2692,0.2692,0.2692,0.2692,0.2692,0.2692,0.2692,0.2692,0.2709,0.277,0.2784,0.2801,0.2861,0.2874,0.2874,0.2874,0.2874,0.2874,0.2874,0.2874,0.2874,0.2874,0.2874,0.2874,0.2874,0.2874,0.2694,0.2156,0.1436,0.0718,0.0,0.0,0.0,0.0,0.0,0.0,0.0,0.0,0.0,0.0,0.0,0.0,0.0,0.0,0.0,0.1654,0.1477,0.1294,0.1294,0.0,0.0,0.0795,0.0572,0.0347,0.0354,0.0361,0.0368,0.0371,0.0378,0.0384,0.0384,0.0394,0.0269,0.0,0.0,0.0,0.0,0.0,0.0,0.0,0.0,0.0,0.0,0.0,0.0,0.0,0.0,0.0,0.0,0.0,0.0,0.0,0.0,0.0,0.0,0.0,0.0,0.0,0.0,0.0,0.0,0.0471,0.0785,0.0785,0.1256,0.1728,0.2043,0.2043,0.2043,0.2048,0.1937,0.1953,0.2124,0.2171,0.2356,0.2692,0.2692,0.2692,0.2692,0.2692,0.2692,0.2692,0.2692,0.2692,0.2692,0.2692,0.2692,0.2692,0.2692,0.2692,0.2706,0.2754,0.2774,0.2801,0.2861,0.2874,0.2874,0.2874,0.2874,0.2874,0.2874,0.2874,0.2874,0.2874,0.2874,0.2874,0.2874,0.2874,0.2874,0.2874,0.2335,0.1795,0.1257,0.0898,0.0539,0.0539,0.0539,0.0539,0.0539,0.0539,0.0539,0.0539,0.018,0.0,0.0,0.0898,0.1257,0.1704,0.1726,0.1749,0.1749,0.1772,0.0,0.1795,0.1362,0.1032,0.1035,0.1059,0.1081,0.1083,0.111,0.1131,0.1131,0.1147,0.0905,0.0262,0.0134,0.0137,0.0,0.0,0.0,0.0,0.0,0.0,0.0,0.0,0.0,0.0,0.0,0.0,0.0,0.0,0.0,0.0,0.0,0.0,0.0,0.0,0.0,0.0,0.0,0.0,0.0,0.0,0.0,0.0,0.0,0.0471,0.1099,0.1099,0.1099,0.1103,0.113,0.1139,0.1143,0.1169,0.1682,0.2356,0.2524,0.2524,0.2524,0.2692,0.2692,0.2692,0.2692,0.2692,0.2692,0.2692,0.2692,0.2692,0.2692,0.2692,0.2701,0.2731,0.2759,0.2796,0.2857,0.2871,0.2874,0.2874,0.2874,0.2874,0.2874,0.2874,0.2874,0.2874,0.2874,0.2874,0.2874,0.2874,0.2874,0.2874,0.2874,0.2874,0.2874,0.1976,0.1616,0.1616,0.1616,0.1616,0.1616,0.1616,0.1616,0.1616,0.0539,0.018,0.018,0.1975,0.2874,0.1704,0.1726,0.1749,0.1749,0.0,0.0,0.1795,0.1687,0.1584,0.1606,0.1619,0.1632,0.1771,0.1803,0.1826,0.1826,0.1745,0.153,0.0905,0.0781,0.0653,0.0,0.0,0.0,0.0,0.0,0.0,0.0,0.0,0.0,0.0,0.0,0.0,0.0,0.0,0.0,0.0,0.0,0.0,0.0,0.0,0.0,0.0,0.0,0.0,0.0,0.0,0.0,0.0,0.0,0.0157,0.0314,0.0314,0.0314,0.0315,0.0323,0.0326,0.0327,0.0334,0.0337,0.0674,0.1346,0.1514,0.1682,0.2524,0.2692,0.2692,0.2692,0.2692,0.2692,0.2692,0.2692,0.2692,0.2692,0.2692,0.2701,0.2731,0.2743,0.2765,0.2826,0.2857,0.2874,0.2874,0.2874,0.2874,0.2874,0.2874,0.2874,0.2874,0.2874,0.2874,0.2874,0.2874,0.2874,0.2874,0.2874,0.2874,0.2874,0.2694,0.2694,0.2694,0.2694,0.2694,0.2694,0.2694,0.2694,0.2694,0.1616,0.1077,0.1077,0.1436,0.2156,0.1749,0.0,0.0,0.1772,0.0,0.0,0.0,0.1795,0.18,0.1814,0.1829,0.1844,0.1861,0.1888,0.1909,0.1909,0.1934,0.1837,0.148,0.1519,0.1419,0.1032,0.0649,0.0391,0.0,0.0,0.0,0.0,0.0,0.0,0.0,0.0,0.0,0.0,0.0,0.0,0.0,0.0,0.0,0.0,0.0,0.0,0.0,0.0,0.0,0.0,0.0,0.0,0.0,0.0,0.0,0.0,0.0,0.0,0.0,0.0,0.0,0.0,0.0,0.0,0.0,0.0505,0.0673,0.0842,0.1684,0.2356,0.2692,0.2692,0.2692,0.2692,0.2692,0.2692,0.2692,0.2692,0.2692,0.2697,0.2712,0.2727,0.2747,0.2777,0.2821,0.2856,0.2871,0.2874,0.2874,0.2874,0.2874,0.2874,0.2874,0.2874,0.2874,0.2874,0.2874,0.2874,0.2874,0.2874,0.2874,0.2874,0.2874,0.2874,0.2874,0.2874,0.2874,0.2874,0.2874,0.2874,0.2874,0.2335,0.2156,0.2156,0.2156,0.2335,0.0,0.0,0.0,0.0,0.0,0.1795,0.0,0.0,0.0,0.0,0.0,0.0,0.0,0.0,0.0,0.1877,0.0,0.0,0.0,0.1969,0.0,0.2038,0.1536,0.1028,0.0386,0.013,0.0,0.0,0.0,0.0,0.0,0.0,0.0,0.0,0.0,0.0,0.0,0.0,0.0,0.0,0.0,0.0,0.0,0.0,0.0,0.0,0.0,0.0,0.0,0.0,0.0,0.0,0.0,0.0,0.0,0.0,0.0,0.0,0.0,0.0,0.0,0.0,0.0,0.0168,0.0842,0.1515,0.2188,0.2356,0.2356,0.2356,0.2356,0.2356,0.2356,0.2356,0.2356,0.2356,0.2356,0.2373,0.2389,0.2394,0.2603,0.2823,0.2859,0.287,0.2874,0.2874,0.2874,0.2874,0.2874,0.2874,0.2874,0.2874,0.2874,0.2874,0.2874,0.2874,0.2874,0.2874,0.2874,0.2874,0.2874,0.2874,0.2874,0.2874,0.2874,0.2874,0.2874,0.2874,0.2874,0.2874,0.2874,0.2874,0.0,0.0,0.0,0.0,0.1795,0.0,0.0,0.0,0.1795,0.1795,0.0,0.0,0.0,0.0,0.0,0.1846,0.1868,0.0,0.1885,0.1898,0.1917,0.1943,0.1992,0.1898,0.1774,0.0642,0.0,0.0,0.0,0.0,0.0,0.0,0.0,0.0,0.0,0.0,0.0,0.0,0.0,0.0,0.0,0.0,0.0,0.0,0.0,0.0,0.0,0.0,0.0,0.0,0.0,0.0,0.0,0.0,0.0,0.0,0.0,0.0,0.0,0.0,0.0,0.0,0.0,0.0,0.0168,0.0168,0.0505,0.1178,0.1514,0.1514,0.1514,0.1514,0.1514,0.1514,0.1514,0.1514,0.1514,0.1515,0.1522,0.1537,0.2229,0.2766,0.2823,0.2856,0.2874,0.2874,0.2874,0.2874,0.2874,0.2874,0.2874,0.2874,0.2874,0.2874,0.2874,0.2874,0.2874,0.2874,0.2874,0.2874,0.2874,0.2874,0.2874,0.2874,0.2874,0.2874,0.2874,0.2874,0.2874,0.2874,0.2874,0.2874,0.0,0.0,0.0,0.0,0.0,0.0,0.18,0.0,0.1795,0.0,0.0,0.0,0.0,0.0,0.0,0.0,0.1824,0.1834,0.0,0.0,0.187,0.1902,0.0,0.0,0.1494,0.0506,0.0,0.0,0.0,0.0,0.0,0.0,0.0,0.0,0.0,0.0,0.0,0.0,0.0,0.0,0.0,0.0,0.0,0.0,0.0,0.0,0.0,0.0,0.0,0.0,0.0,0.0,0.0,0.0,0.0,0.0,0.0,0.0,0.0,0.0,0.0,0.0,0.0,0.0,0.0,0.0,0.0,0.0505,0.0505,0.0505,0.0505,0.0505,0.0505,0.0505,0.0505,0.0505,0.0505,0.0505,0.0674,0.1186,0.2045,0.2746,0.2772,0.2815,0.2853,0.2871,0.2874,0.2874,0.2874,0.2874,0.2874,0.2874,0.2874,0.2874,0.2874,0.2874,0.2874,0.2874,0.2874,0.2874,0.2874,0.2874,0.2874,0.2874,0.2874,0.2874,0.2874,0.2874,0.2874,0.2874,0.2874,0.2874,0.1913,0.0,0.0,0.0,0.0,0.0,0.0,0.0,0.0,0.0,0.0,0.0,0.0,0.0,0.1795,0.1795,0.0,0.1795,0.1795,0.1813,0.0,0.0,0.0,0.0,0.0,0.0495,0.0,0.0,0.0,0.0,0.0,0.0,0.0,0.0,0.0,0.0,0.0,0.0,0.0,0.0,0.0,0.0,0.0,0.0,0.0,0.0,0.0,0.0,0.0,0.0,0.0,0.0,0.0,0.0,0.0,0.0,0.0,0.0,0.0,0.0,0.0,0.0,0.0,0.0,0.0,0.0,0.0,0.0,0.0,0.0,0.0,0.0,0.0,0.0,0.0,0.0,0.0,0.0,0.0168,0.0842,0.1525,0.2046,0.2223,0.2614,0.2836,0.2859,0.2868,0.2874,0.2874,0.2874,0.2874,0.2874,0.2874,0.2874,0.2874,0.2874,0.2874,0.2874,0.2874,0.2874,0.2874,0.2874,0.2874,0.2874,0.2874,0.2874,0.2874,0.2874,0.2874,0.2874,0.2874,0.2874,0.0,0.0,0.0,0.1892,0.0,0.0,0.0,0.0,0.1831,0.0,0.0,0.0,0.0,0.1795,0.1795,0.1795,0.1795,0.0,0.0,0.1795,0.1808,0.1838,0.0,0.0,0.0,0.0718,0.0,0.0,0.0,0.0,0.0,0.0,0.0,0.0,0.0,0.0,0.0,0.0,0.0,0.0,0.0,0.0,0.0,0.0,0.0,0.0,0.0,0.0,0.0,0.0,0.0,0.0,0.0,0.0,0.0,0.0,0.0,0.0,0.0,0.0,0.0,0.0,0.0,0.0,0.0,0.0,0.0,0.0,0.0,0.0,0.0,0.0,0.0,0.0,0.0,0.0,0.0,0.0,0.0,0.0,0.0,0.0338,0.1195,0.2265,0.2829,0.283,0.2855,0.2874,0.2874,0.2874,0.2874,0.2874,0.2874,0.2874,0.2874,0.2874,0.2874,0.2874,0.2874,0.2874,0.2874,0.2874,0.2874,0.2874,0.2874,0.2874,0.2874,0.2874,0.2874,0.2874,0.2874,0.2874,0.0,0.0,0.2354,0.2316,0.0,0.0,0.0,0.0,0.0,0.0,0.0,0.0,0.0,0.1795,0.1795,0.1795,0.1795,0.1795,0.0,0.1795,0.1798,0.1809,0.0,0.0,0.0,0.0,0.0,0.0,0.0,0.0,0.0,0.0,0.0,0.0,0.0,0.0,0.0,0.0,0.0,0.0,0.0,0.0,0.0,0.0,0.0,0.0,0.0,0.0,0.0,0.0,0.0,0.0,0.0,0.0,0.0,0.0,0.0,0.0,0.0,0.0,0.0,0.0,0.0,0.0,0.0,0.0,0.0,0.0,0.0,0.0,0.0,0.0,0.0,0.0,0.0,0.0,0.0,0.0,0.0,0.0,0.0,0.0337,0.1184,0.2056,0.2782,0.2822,0.2837,0.2852,0.2871,0.2874,0.2874,0.2874,0.2874,0.2874,0.2874,0.2874,0.2874,0.2874,0.2874,0.2874,0.2874,0.2874,0.2874,0.2874,0.2874,0.2874,0.2874,0.2874,0.2874,0.2874,0.2874,0.2874,0.3122,0.296,0.0,0.2764,0.2479,0.0,0.2164,0.0,0.0,0.0,0.0,0.0,0.0,0.1802,0.1795,0.1795,0.1795,0.1795,0.0,0.1786,0.1783,0.1794,0.0,0.0,0.0,0.0,0.0,0.0,0.0,0.0,0.0,0.0,0.0,0.0,0.0,0.0,0.0,0.0,0.0,0.0,0.0,0.0,0.0,0.0,0.0,0.0,0.0,0.0,0.0,0.0,0.0,0.0,0.0,0.0,0.0,0.0,0.0,0.0,0.0,0.0,0.0,0.0,0.0,0.0,0.0,0.0,0.0,0.0,0.0,0.0,0.0,0.0,0.0,0.0,0.0,0.0,0.0,0.0,0.0,0.0,0.0,0.0337,0.1178,0.2032,0.2743,0.2803,0.2822,0.284,0.287,0.2874,0.2874,0.2874,0.2874,0.2874,0.2874,0.2874,0.2874,0.2874,0.2874,0.2874,0.2874,0.2874,0.2874,0.2874,0.2874,0.2874,0.2874,0.2874,0.2874,0.2874,0.2874,0.2874]}]]